<?xml version='1.0' encoding='UTF-8'?><gpx version="1.1" creator="JPX - https://github.com/jenetics/jpx" xmlns="http://www.topografix.com/GPX/1/1"><trk><trkseg><trkpt lat="43.32812889917112" lon="-0.4152467043600104"><ele>187.0</ele><time>2026-04-22T13:59:26.999Z</time></trkpt><trkpt lat="43.32816001178458" lon="-0.41532536424900535"><ele>187.0</ele><time>2026-04-22T13:59:28.999Z</time></trkpt><trkpt lat="43.32820329523633" lon="-0.415389348021244"><ele>187.0</ele><time>2026-04-22T13:59:29.999Z</time></trkpt><trkpt lat="43.32829784356514" lon="-0.4154096316185253"><ele>187.0</ele><time>2026-04-22T13:59:31.999Z</time></trkpt><trkpt lat="43.32839360175872" lon="-0.41540766297894843"><ele>187.0</ele><time>2026-04-22T13:59:33.999Z</time></trkpt><trkpt lat="43.32847761458349" lon="-0.41548571247688065"><ele>187.0</ele><time>2026-04-22T13:59:35.999Z</time></trkpt><trkpt lat="43.328547407543496" lon="-0.4155692727792819"><ele>187.0</ele><time>2026-04-22T13:59:37.999Z</time></trkpt><trkpt lat="43.3286400098026" lon="-0.4155753904751701"><ele>187.0</ele><time>2026-04-22T13:59:39.999Z</time></trkpt><trkpt lat="43.32868573307185" lon="-0.41551115038457315"><ele>187.0</ele><time>2026-04-22T13:59:40.999Z</time></trkpt><trkpt lat="43.328774367196694" lon="-0.4154205914615867"><ele>187.0</ele><time>2026-04-22T13:59:42.999Z</time></trkpt><trkpt lat="43.328860407041404" lon="-0.41532117588274076"><ele>187.0</ele><time>2026-04-22T13:59:45Z</time></trkpt><trkpt lat="43.32892499825269" lon="-0.41529294305326153"><ele>187.0</ele><time>2026-04-22T13:59:46Z</time></trkpt><trkpt lat="43.32902129014737" lon="-0.41524270978018746"><ele>187.0</ele><time>2026-04-22T13:59:48Z</time></trkpt><trkpt lat="43.329090551571326" lon="-0.41522895998848247"><ele>187.0</ele><time>2026-04-22T13:59:49Z</time></trkpt><trkpt lat="43.32916295612256" lon="-0.41522898259385016"><ele>187.0</ele><time>2026-04-22T13:59:50Z</time></trkpt><trkpt lat="43.329232275099756" lon="-0.41524322349638276"><ele>187.0</ele><time>2026-04-22T13:59:51Z</time></trkpt><trkpt lat="43.329300640495255" lon="-0.4152595755396201"><ele>187.0</ele><time>2026-04-22T13:59:52Z</time></trkpt><trkpt lat="43.32936756747845" lon="-0.41527572319748407"><ele>187.0</ele><time>2026-04-22T13:59:53Z</time></trkpt><trkpt lat="43.32943280391128" lon="-0.4152951355314839"><ele>187.0</ele><time>2026-04-22T13:59:54Z</time></trkpt><trkpt lat="43.32954171710635" lon="-0.4153382651400859"><ele>187.0</ele><time>2026-04-22T13:59:56Z</time></trkpt><trkpt lat="43.329683637677306" lon="-0.4153700500510867"><ele>187.0</ele><time>2026-04-22T13:59:59Z</time></trkpt><trkpt lat="43.32975286613385" lon="-0.415387246297684"><ele>187.0</ele><time>2026-04-22T14:00:02Z</time></trkpt><trkpt lat="43.3297615387834" lon="-0.4155606335813715"><ele>187.0</ele><time>2026-04-22T14:00:04Z</time></trkpt><trkpt lat="43.32977793798726" lon="-0.4156841927751703"><ele>187.0</ele><time>2026-04-22T14:00:06Z</time></trkpt><trkpt lat="43.32978101426323" lon="-0.41582051437298784"><ele>187.0</ele><time>2026-04-22T14:00:08Z</time></trkpt><trkpt lat="43.32978055067992" lon="-0.4159623440456551"><ele>187.0</ele><time>2026-04-22T14:00:10Z</time></trkpt><trkpt lat="43.32978300467363" lon="-0.41611110744690366"><ele>187.0</ele><time>2026-04-22T14:00:12Z</time></trkpt><trkpt lat="43.32978952687944" lon="-0.41627643635183537"><ele>187.0</ele><time>2026-04-22T14:00:14Z</time></trkpt><trkpt lat="43.32979389295137" lon="-0.41644809053502857"><ele>187.16666666666669</ele><time>2026-04-22T14:00:16Z</time></trkpt><trkpt lat="43.32979723750614" lon="-0.41662223630506084"><ele>187.33333333333334</ele><time>2026-04-22T14:00:18Z</time></trkpt><trkpt lat="43.329799837774516" lon="-0.4167141241303235"><ele>187.5</ele><time>2026-04-22T14:00:19Z</time></trkpt><trkpt lat="43.32980038794446" lon="-0.41680183046805264"><ele>187.66666666666666</ele><time>2026-04-22T14:00:20Z</time></trkpt><trkpt lat="43.32979732045007" lon="-0.41689280158080655"><ele>187.83333333333331</ele><time>2026-04-22T14:00:21Z</time></trkpt><trkpt lat="43.32980025378894" lon="-0.41698379472531394"><ele>188.0</ele><time>2026-04-22T14:00:22Z</time></trkpt><trkpt lat="43.32979550402271" lon="-0.4170724285373937"><ele>187.85714285714286</ele><time>2026-04-22T14:00:23Z</time></trkpt><trkpt lat="43.329794311966076" lon="-0.4171633200190263"><ele>187.71428571428572</ele><time>2026-04-22T14:00:24Z</time></trkpt><trkpt lat="43.32979546758764" lon="-0.41725125615852127"><ele>187.57142857142856</ele><time>2026-04-22T14:00:25Z</time></trkpt><trkpt lat="43.32980128176763" lon="-0.4173429427454981"><ele>187.42857142857144</ele><time>2026-04-22T14:00:26Z</time></trkpt><trkpt lat="43.329805789627535" lon="-0.4174318236905145"><ele>187.2857142857143</ele><time>2026-04-22T14:00:27Z</time></trkpt><trkpt lat="43.32981408749826" lon="-0.41752096668586186"><ele>187.14285714285714</ele><time>2026-04-22T14:00:28Z</time></trkpt><trkpt lat="43.329823958044365" lon="-0.41761474275836996"><ele>187.0</ele><time>2026-04-22T14:00:29Z</time></trkpt><trkpt lat="43.32983339205572" lon="-0.41771118196386764"><ele>187.0</ele><time>2026-04-22T14:00:30Z</time></trkpt><trkpt lat="43.32983921887625" lon="-0.4178095331764916"><ele>187.0</ele><time>2026-04-22T14:00:31Z</time></trkpt><trkpt lat="43.32984424524149" lon="-0.4179074224049789"><ele>187.0</ele><time>2026-04-22T14:00:32Z</time></trkpt><trkpt lat="43.329850926356706" lon="-0.4180045301784848"><ele>187.0</ele><time>2026-04-22T14:00:33Z</time></trkpt><trkpt lat="43.3298581942118" lon="-0.4180972535984129"><ele>187.0</ele><time>2026-04-22T14:00:34Z</time></trkpt><trkpt lat="43.329857758063724" lon="-0.4181952904628597"><ele>187.0</ele><time>2026-04-22T14:00:35Z</time></trkpt><trkpt lat="43.32987047426984" lon="-0.41828777042941945"><ele>187.0</ele><time>2026-04-22T14:00:36Z</time></trkpt><trkpt lat="43.32987775427939" lon="-0.41838339948310077"><ele>187.0</ele><time>2026-04-22T14:00:37Z</time></trkpt><trkpt lat="43.32988534595668" lon="-0.41848299779284814"><ele>187.0</ele><time>2026-04-22T14:00:38Z</time></trkpt><trkpt lat="43.32988898282212" lon="-0.4185776239957797"><ele>187.0</ele><time>2026-04-22T14:00:39Z</time></trkpt><trkpt lat="43.32989808056955" lon="-0.4186752797071556"><ele>187.0</ele><time>2026-04-22T14:00:40Z</time></trkpt><trkpt lat="43.32990533320717" lon="-0.4187697666958445"><ele>187.0</ele><time>2026-04-22T14:00:41Z</time></trkpt><trkpt lat="43.329912371420285" lon="-0.41886392526746485"><ele>187.0</ele><time>2026-04-22T14:00:42Z</time></trkpt><trkpt lat="43.32991976911998" lon="-0.41895804309951995"><ele>187.0</ele><time>2026-04-22T14:00:43Z</time></trkpt><trkpt lat="43.32992786787768" lon="-0.4190519469757244"><ele>187.0</ele><time>2026-04-22T14:00:44Z</time></trkpt><trkpt lat="43.3299357962189" lon="-0.4191430015013112"><ele>187.0</ele><time>2026-04-22T14:00:45Z</time></trkpt><trkpt lat="43.32994000961054" lon="-0.41923521005500486"><ele>187.0</ele><time>2026-04-22T14:00:46Z</time></trkpt><trkpt lat="43.32994642639246" lon="-0.4193242891460519"><ele>187.0</ele><time>2026-04-22T14:00:47Z</time></trkpt><trkpt lat="43.329952466510065" lon="-0.4194158654684526"><ele>187.0</ele><time>2026-04-22T14:00:48Z</time></trkpt><trkpt lat="43.32995430203628" lon="-0.41950641541032674"><ele>187.0</ele><time>2026-04-22T14:00:49Z</time></trkpt><trkpt lat="43.329948376974265" lon="-0.4195994416586522"><ele>187.0</ele><time>2026-04-22T14:00:50Z</time></trkpt><trkpt lat="43.32993221518937" lon="-0.41969204788014086"><ele>186.83333333333334</ele><time>2026-04-22T14:00:51Z</time></trkpt><trkpt lat="43.32992113059033" lon="-0.419778782699591"><ele>186.66666666666669</ele><time>2026-04-22T14:00:52Z</time></trkpt><trkpt lat="43.32990618402874" lon="-0.4198660988138157"><ele>186.5</ele><time>2026-04-22T14:00:53Z</time></trkpt><trkpt lat="43.329890724353376" lon="-0.4199549626967054"><ele>186.33333333333334</ele><time>2026-04-22T14:00:54Z</time></trkpt><trkpt lat="43.32987900484566" lon="-0.42004339139015756"><ele>186.16666666666666</ele><time>2026-04-22T14:00:55Z</time></trkpt><trkpt lat="43.329879575420875" lon="-0.42021985433627734"><ele>186.0</ele><time>2026-04-22T14:00:57Z</time></trkpt><trkpt lat="43.32989012046353" lon="-0.4203134227145579"><ele>186.00000000000003</ele><time>2026-04-22T14:00:58Z</time></trkpt><trkpt lat="43.3298992963678" lon="-0.4204085676091671"><ele>186.0</ele><time>2026-04-22T14:00:59Z</time></trkpt><trkpt lat="43.3299111612248" lon="-0.4204959748777461"><ele>186.0</ele><time>2026-04-22T14:01:00Z</time></trkpt><trkpt lat="43.32993685421433" lon="-0.42058267102156177"><ele>186.0</ele><time>2026-04-22T14:01:01Z</time></trkpt><trkpt lat="43.329960566699434" lon="-0.42066860712924614"><ele>186.0</ele><time>2026-04-22T14:01:02Z</time></trkpt><trkpt lat="43.329980604221205" lon="-0.4207539805429694"><ele>186.00000000000003</ele><time>2026-04-22T14:01:03Z</time></trkpt><trkpt lat="43.330001236164165" lon="-0.42084743044531236"><ele>186.0</ele><time>2026-04-22T14:01:04Z</time></trkpt><trkpt lat="43.33001896773674" lon="-0.4209370251513953"><ele>186.00000000000003</ele><time>2026-04-22T14:01:05Z</time></trkpt><trkpt lat="43.33003806203449" lon="-0.421024058129396"><ele>186.0</ele><time>2026-04-22T14:01:06Z</time></trkpt><trkpt lat="43.33005606495733" lon="-0.4211131900682902"><ele>186.0</ele><time>2026-04-22T14:01:07Z</time></trkpt><trkpt lat="43.33007782643969" lon="-0.4212016169143192"><ele>186.0</ele><time>2026-04-22T14:01:08Z</time></trkpt><trkpt lat="43.33010034271658" lon="-0.4212888773846533"><ele>186.0</ele><time>2026-04-22T14:01:09Z</time></trkpt><trkpt lat="43.33011819133808" lon="-0.42137639843518737"><ele>186.00000000000003</ele><time>2026-04-22T14:01:10Z</time></trkpt><trkpt lat="43.33013611204613" lon="-0.4214659577270446"><ele>186.0</ele><time>2026-04-22T14:01:11Z</time></trkpt><trkpt lat="43.33015478361262" lon="-0.42155466300822575"><ele>186.0</ele><time>2026-04-22T14:01:12Z</time></trkpt><trkpt lat="43.33017347304115" lon="-0.42164010006984454"><ele>186.0</ele><time>2026-04-22T14:01:13Z</time></trkpt><trkpt lat="43.33018340710722" lon="-0.42173025456388996"><ele>186.0</ele><time>2026-04-22T14:01:14Z</time></trkpt><trkpt lat="43.330192413689275" lon="-0.42182327469324393"><ele>186.0</ele><time>2026-04-22T14:01:15Z</time></trkpt><trkpt lat="43.3302014507632" lon="-0.42191293772333716"><ele>186.0</ele><time>2026-04-22T14:01:16.001Z</time></trkpt><trkpt lat="43.33021508645339" lon="-0.42200510261796687"><ele>186.0</ele><time>2026-04-22T14:01:17.001Z</time></trkpt><trkpt lat="43.330240978635885" lon="-0.42218092454949335"><ele>186.14285714285717</ele><time>2026-04-22T14:01:19.001Z</time></trkpt><trkpt lat="43.33025207420714" lon="-0.42226662910705387"><ele>186.28571428571428</ele><time>2026-04-22T14:01:20.001Z</time></trkpt><trkpt lat="43.3302599136649" lon="-0.42235870989508956"><ele>186.42857142857144</ele><time>2026-04-22T14:01:21.001Z</time></trkpt><trkpt lat="43.33027499044592" lon="-0.4224488405834161"><ele>186.57142857142858</ele><time>2026-04-22T14:01:22.001Z</time></trkpt><trkpt lat="43.330283355762475" lon="-0.42253884925823176"><ele>186.71428571428572</ele><time>2026-04-22T14:01:23.001Z</time></trkpt><trkpt lat="43.33029297565821" lon="-0.4226294865000176"><ele>186.85714285714286</ele><time>2026-04-22T14:01:24.001Z</time></trkpt><trkpt lat="43.330304735829074" lon="-0.4227179460126419"><ele>187.0</ele><time>2026-04-22T14:01:25.001Z</time></trkpt><trkpt lat="43.330315580706575" lon="-0.4228083550599514"><ele>187.0</ele><time>2026-04-22T14:01:26.001Z</time></trkpt><trkpt lat="43.330325415554285" lon="-0.4228989557605763"><ele>187.0</ele><time>2026-04-22T14:01:26.999Z</time></trkpt><trkpt lat="43.33033633511031" lon="-0.42298862002477994"><ele>187.0</ele><time>2026-04-22T14:01:27.999Z</time></trkpt><trkpt lat="43.33034675560924" lon="-0.4230790882035095"><ele>187.0</ele><time>2026-04-22T14:01:28.999Z</time></trkpt><trkpt lat="43.33035893106487" lon="-0.4231646257852914"><ele>187.0</ele><time>2026-04-22T14:01:29.999Z</time></trkpt><trkpt lat="43.330370584846634" lon="-0.4232536628607925"><ele>187.0</ele><time>2026-04-22T14:01:30.999Z</time></trkpt><trkpt lat="43.330382202677846" lon="-0.4233457129387899"><ele>187.0</ele><time>2026-04-22T14:01:31.999Z</time></trkpt><trkpt lat="43.330394264938825" lon="-0.42343327470268183"><ele>187.14285714285714</ele><time>2026-04-22T14:01:32.999Z</time></trkpt><trkpt lat="43.330405720480904" lon="-0.42352227232652856"><ele>187.2857142857143</ele><time>2026-04-22T14:01:33.999Z</time></trkpt><trkpt lat="43.3304138449991" lon="-0.42360964989559574"><ele>187.42857142857144</ele><time>2026-04-22T14:01:34.999Z</time></trkpt><trkpt lat="43.33042705574338" lon="-0.4236969795064123"><ele>187.57142857142856</ele><time>2026-04-22T14:01:35.999Z</time></trkpt><trkpt lat="43.33043726712393" lon="-0.42378706152294554"><ele>187.71428571428572</ele><time>2026-04-22T14:01:36.999Z</time></trkpt><trkpt lat="43.3304486186002" lon="-0.4238733007564224"><ele>187.85714285714286</ele><time>2026-04-22T14:01:37.999Z</time></trkpt><trkpt lat="43.33046070173677" lon="-0.42396398528754303"><ele>188.0</ele><time>2026-04-22T14:01:38.999Z</time></trkpt><trkpt lat="43.330472079809375" lon="-0.424049769447133"><ele>188.0</ele><time>2026-04-22T14:01:39.999Z</time></trkpt><trkpt lat="43.33047803475016" lon="-0.4241452139007366"><ele>188.0</ele><time>2026-04-22T14:01:40.999Z</time></trkpt><trkpt lat="43.33049085115813" lon="-0.4242333995754518"><ele>188.0</ele><time>2026-04-22T14:01:41.999Z</time></trkpt><trkpt lat="43.33050394254028" lon="-0.4243200772590343"><ele>188.0</ele><time>2026-04-22T14:01:42.999Z</time></trkpt><trkpt lat="43.33051606540076" lon="-0.4244093768678491"><ele>188.0</ele><time>2026-04-22T14:01:43.999Z</time></trkpt><trkpt lat="43.33052741199773" lon="-0.42449563150497216"><ele>188.0</ele><time>2026-04-22T14:01:44.999Z</time></trkpt><trkpt lat="43.330550777831476" lon="-0.42465539466024665"><ele>188.0</ele><time>2026-04-22T14:01:46.999Z</time></trkpt><trkpt lat="43.3305780150486" lon="-0.4247608189682191"><ele>188.0</ele><time>2026-04-22T14:01:48.999Z</time></trkpt><trkpt lat="43.33059783928578" lon="-0.42486345228180594"><ele>188.0</ele><time>2026-04-22T14:01:50.999Z</time></trkpt><trkpt lat="43.330623662519244" lon="-0.42499578572682384"><ele>188.0</ele><time>2026-04-22T14:01:52.999Z</time></trkpt><trkpt lat="43.33065041262228" lon="-0.4250962190778487"><ele>188.0</ele><time>2026-04-22T14:01:54.999Z</time></trkpt><trkpt lat="43.33067217645558" lon="-0.42524619123283586"><ele>188.0</ele><time>2026-04-22T14:01:56.999Z</time></trkpt><trkpt lat="43.330701499914056" lon="-0.4253978050013578"><ele>187.83333333333331</ele><time>2026-04-22T14:01:58.999Z</time></trkpt><trkpt lat="43.33072073131313" lon="-0.4254972388805278"><ele>187.66666666666666</ele><time>2026-04-22T14:02:00Z</time></trkpt><trkpt lat="43.330766014509805" lon="-0.42566181097577227"><ele>187.5</ele><time>2026-04-22T14:02:02Z</time></trkpt><trkpt lat="43.33078274556767" lon="-0.42574631071976277"><ele>187.33333333333334</ele><time>2026-04-22T14:02:03Z</time></trkpt><trkpt lat="43.3307992315329" lon="-0.42583679741086966"><ele>187.16666666666669</ele><time>2026-04-22T14:02:04Z</time></trkpt><trkpt lat="43.33081683282875" lon="-0.42592687870374585"><ele>187.0</ele><time>2026-04-22T14:02:05Z</time></trkpt><trkpt lat="43.33083179615952" lon="-0.42601205849081214"><ele>187.0</ele><time>2026-04-22T14:02:06Z</time></trkpt><trkpt lat="43.330850926339615" lon="-0.4260982254859315"><ele>187.0</ele><time>2026-04-22T14:02:07Z</time></trkpt><trkpt lat="43.33086101974632" lon="-0.4261872274909934"><ele>187.0</ele><time>2026-04-22T14:02:08Z</time></trkpt><trkpt lat="43.33088056448327" lon="-0.4262707802163951"><ele>187.0</ele><time>2026-04-22T14:02:09Z</time></trkpt><trkpt lat="43.33090072024288" lon="-0.42636028684309074"><ele>187.0</ele><time>2026-04-22T14:02:10Z</time></trkpt><trkpt lat="43.33091795821572" lon="-0.42644640565652636"><ele>187.0</ele><time>2026-04-22T14:02:11Z</time></trkpt><trkpt lat="43.33094053741657" lon="-0.4265277560124615"><ele>187.0</ele><time>2026-04-22T14:02:12Z</time></trkpt><trkpt lat="43.330968900748715" lon="-0.4266090281271137"><ele>186.66666666666669</ele><time>2026-04-22T14:02:13Z</time></trkpt><trkpt lat="43.331036691281646" lon="-0.42676057338085105"><ele>186.33333333333334</ele><time>2026-04-22T14:02:15Z</time></trkpt><trkpt lat="43.33107215783893" lon="-0.42683325651598947"><ele>186.0</ele><time>2026-04-22T14:02:16Z</time></trkpt><trkpt lat="43.331102521559195" lon="-0.4269131935015619"><ele>185.66666666666666</ele><time>2026-04-22T14:02:17Z</time></trkpt><trkpt lat="43.33114239052539" lon="-0.42698313921245146"><ele>185.33333333333331</ele><time>2026-04-22T14:02:18Z</time></trkpt><trkpt lat="43.331178068250686" lon="-0.4270601645881712"><ele>185.0</ele><time>2026-04-22T14:02:19Z</time></trkpt><trkpt lat="43.331214113662384" lon="-0.427137470317442"><ele>185.0</ele><time>2026-04-22T14:02:20Z</time></trkpt><trkpt lat="43.33123951512051" lon="-0.42722635810867304"><ele>185.0</ele><time>2026-04-22T14:02:21Z</time></trkpt><trkpt lat="43.331287892463685" lon="-0.42728786072168085"><ele>185.0</ele><time>2026-04-22T14:02:22Z</time></trkpt><trkpt lat="43.33131050381658" lon="-0.42737873392986686"><ele>185.0</ele><time>2026-04-22T14:02:23Z</time></trkpt><trkpt lat="43.3313588835214" lon="-0.42744078061067875"><ele>185.0</ele><time>2026-04-22T14:02:24Z</time></trkpt><trkpt lat="43.33142148352862" lon="-0.42757904606492103"><ele>185.0</ele><time>2026-04-22T14:02:26Z</time></trkpt><trkpt lat="43.33143676532138" lon="-0.42773040037039717"><ele>185.0</ele><time>2026-04-22T14:02:28Z</time></trkpt><trkpt lat="43.331505351407685" lon="-0.4278586678322829"><ele>185.0</ele><time>2026-04-22T14:02:30Z</time></trkpt><trkpt lat="43.331572387450905" lon="-0.4279941087005178"><ele>185.0</ele><time>2026-04-22T14:02:32Z</time></trkpt><trkpt lat="43.33163569391418" lon="-0.4281366244208239"><ele>185.0</ele><time>2026-04-22T14:02:34Z</time></trkpt><trkpt lat="43.331682359732646" lon="-0.42828241683126056"><ele>185.33333333333331</ele><time>2026-04-22T14:02:36Z</time></trkpt><trkpt lat="43.33172268241581" lon="-0.42834963498867734"><ele>185.66666666666666</ele><time>2026-04-22T14:02:37Z</time></trkpt><trkpt lat="43.331769338825815" lon="-0.4284126380533282"><ele>186.0</ele><time>2026-04-22T14:02:38Z</time></trkpt><trkpt lat="43.33184744825544" lon="-0.4285416220924339"><ele>186.33333333333334</ele><time>2026-04-22T14:02:40Z</time></trkpt><trkpt lat="43.331886415881556" lon="-0.42861504193309"><ele>186.66666666666669</ele><time>2026-04-22T14:02:41Z</time></trkpt><trkpt lat="43.33195416637814" lon="-0.42875141771557373"><ele>187.0</ele><time>2026-04-22T14:02:43Z</time></trkpt><trkpt lat="43.331985265135806" lon="-0.4288275372226109"><ele>187.0</ele><time>2026-04-22T14:02:44Z</time></trkpt><trkpt lat="43.33202047810034" lon="-0.428904963648102"><ele>187.0</ele><time>2026-04-22T14:02:45Z</time></trkpt><trkpt lat="43.33205487660315" lon="-0.42898289676716933"><ele>187.0</ele><time>2026-04-22T14:02:46Z</time></trkpt><trkpt lat="43.332088388831465" lon="-0.42905918005934557"><ele>187.0</ele><time>2026-04-22T14:02:47Z</time></trkpt><trkpt lat="43.332122957835345" lon="-0.4291415378794091"><ele>187.0</ele><time>2026-04-22T14:02:48Z</time></trkpt><trkpt lat="43.33217404086026" lon="-0.4293000652981857"><ele>187.0</ele><time>2026-04-22T14:02:50Z</time></trkpt><trkpt lat="43.33223499044257" lon="-0.429436852562807"><ele>186.6</ele><time>2026-04-22T14:02:52Z</time></trkpt><trkpt lat="43.33227480859526" lon="-0.4295061503415757"><ele>186.2</ele><time>2026-04-22T14:02:53Z</time></trkpt><trkpt lat="43.332350505271094" lon="-0.4296397259454546"><ele>185.8</ele><time>2026-04-22T14:02:55Z</time></trkpt><trkpt lat="43.33242185823555" lon="-0.4297526404261883"><ele>185.4</ele><time>2026-04-22T14:02:57Z</time></trkpt><trkpt lat="43.33251358708736" lon="-0.4298389748723154"><ele>185.0</ele><time>2026-04-22T14:02:59Z</time></trkpt><trkpt lat="43.33258704454529" lon="-0.42996999313269313"><ele>185.0</ele><time>2026-04-22T14:03:01Z</time></trkpt><trkpt lat="43.33263483632949" lon="-0.43010866615148596"><ele>185.0</ele><time>2026-04-22T14:03:03Z</time></trkpt><trkpt lat="43.33262561930477" lon="-0.43024308012012297"><ele>185.0</ele><time>2026-04-22T14:03:05Z</time></trkpt><trkpt lat="43.332567504945416" lon="-0.43038222755648775"><ele>185.0</ele><time>2026-04-22T14:03:07.001Z</time></trkpt><trkpt lat="43.3325053861786" lon="-0.43050778949016466"><ele>185.0</ele><time>2026-04-22T14:03:09.001Z</time></trkpt><trkpt lat="43.332480470155964" lon="-0.43063769594654705"><ele>184.5</ele><time>2026-04-22T14:03:11.001Z</time></trkpt><trkpt lat="43.33244942284161" lon="-0.4307461044580185"><ele>184.0</ele><time>2026-04-22T14:03:13.001Z</time></trkpt><trkpt lat="43.332380431977455" lon="-0.43082903096774616"><ele>183.5</ele><time>2026-04-22T14:03:15.001Z</time></trkpt><trkpt lat="43.33239941268189" lon="-0.4309338394139375"><ele>183.0</ele><time>2026-04-22T14:03:16.001Z</time></trkpt><trkpt lat="43.33234243608909" lon="-0.43101218194048685"><ele>182.5</ele><time>2026-04-22T14:03:18.001Z</time></trkpt><trkpt lat="43.3322695642132" lon="-0.43110146538416494"><ele>182.0</ele><time>2026-04-22T14:03:20.001Z</time></trkpt><trkpt lat="43.33217875561672" lon="-0.43114929751170705"><ele>181.39999999999998</ele><time>2026-04-22T14:03:22.001Z</time></trkpt><trkpt lat="43.332117505418616" lon="-0.431190770812146"><ele>180.79999999999998</ele><time>2026-04-22T14:03:23.001Z</time></trkpt><trkpt lat="43.33200330384328" lon="-0.4312631349228993"><ele>180.2</ele><time>2026-04-22T14:03:25.001Z</time></trkpt><trkpt lat="43.33188939038157" lon="-0.4313201241449488"><ele>179.6</ele><time>2026-04-22T14:03:27.001Z</time></trkpt><trkpt lat="43.33179530902207" lon="-0.4314061384453327"><ele>179.0</ele><time>2026-04-22T14:03:29.001Z</time></trkpt><trkpt lat="43.33170504945705" lon="-0.43145516416379603"><ele>178.66666666666666</ele><time>2026-04-22T14:03:31.001Z</time></trkpt><trkpt lat="43.331612244312204" lon="-0.4315089631492024"><ele>178.33333333333331</ele><time>2026-04-22T14:03:32.999Z</time></trkpt><trkpt lat="43.33154952498127" lon="-0.4315574441700832"><ele>178.0</ele><time>2026-04-22T14:03:34.999Z</time></trkpt><trkpt lat="43.33148104378943" lon="-0.43160556487502927"><ele>177.66666666666666</ele><time>2026-04-22T14:03:37.999Z</time></trkpt><trkpt lat="43.33143501554573" lon="-0.4317031118092924"><ele>177.33333333333334</ele><time>2026-04-22T14:03:40.999Z</time></trkpt><trkpt lat="43.331385341423974" lon="-0.4317893873361324"><ele>177.0</ele><time>2026-04-22T14:03:43.999Z</time></trkpt><trkpt lat="43.33130993664076" lon="-0.4318718688759446"><ele>174.0</ele><time>2026-04-22T14:03:46.999Z</time></trkpt><trkpt lat="43.331246318576845" lon="-0.43191702186901487"><ele>171.0</ele><time>2026-04-22T14:03:48.999Z</time></trkpt><trkpt lat="43.33115174334483" lon="-0.431885320614978"><ele>168.0</ele><time>2026-04-22T14:03:50.999Z</time></trkpt><trkpt lat="43.33107310936975" lon="-0.43186684923982754"><ele>165.0</ele><time>2026-04-22T14:03:53Z</time></trkpt><trkpt lat="43.330969591805136" lon="-0.43187689738693347"><ele>162.0</ele><time>2026-04-22T14:03:55Z</time></trkpt><trkpt lat="43.33088649218622" lon="-0.4319825964229775"><ele>162.0</ele><time>2026-04-22T14:03:57Z</time></trkpt><trkpt lat="43.330789518094306" lon="-0.43210094090503126"><ele>162.0</ele><time>2026-04-22T14:03:59Z</time></trkpt><trkpt lat="43.33078858690276" lon="-0.43221354863532174"><ele>162.0</ele><time>2026-04-22T14:04:00Z</time></trkpt><trkpt lat="43.33076177201688" lon="-0.43231351737890167"><ele>162.0</ele><time>2026-04-22T14:04:01Z</time></trkpt><trkpt lat="43.33074277457217" lon="-0.43242022580735073"><ele>162.0</ele><time>2026-04-22T14:04:02Z</time></trkpt><trkpt lat="43.330717129675655" lon="-0.4325242675913565"><ele>162.0</ele><time>2026-04-22T14:04:03Z</time></trkpt><trkpt lat="43.33069123643141" lon="-0.43262110607413257"><ele>161.57142857142858</ele><time>2026-04-22T14:04:04Z</time></trkpt><trkpt lat="43.3306702645813" lon="-0.4327208611150584"><ele>161.14285714285714</ele><time>2026-04-22T14:04:05Z</time></trkpt><trkpt lat="43.33065068164923" lon="-0.43282217065153405"><ele>160.71428571428572</ele><time>2026-04-22T14:04:06Z</time></trkpt><trkpt lat="43.330631233211044" lon="-0.43292057615336965"><ele>160.28571428571428</ele><time>2026-04-22T14:04:07Z</time></trkpt><trkpt lat="43.330612426085224" lon="-0.4330177508615859"><ele>159.85714285714286</ele><time>2026-04-22T14:04:08Z</time></trkpt><trkpt lat="43.33059921861986" lon="-0.433114745520389"><ele>159.42857142857142</ele><time>2026-04-22T14:04:09Z</time></trkpt><trkpt lat="43.33059880526697" lon="-0.4332189364039618"><ele>159.0</ele><time>2026-04-22T14:04:10Z</time></trkpt><trkpt lat="43.33060563512139" lon="-0.43332033103138"><ele>158.57142857142856</ele><time>2026-04-22T14:04:11Z</time></trkpt><trkpt lat="43.330608576054544" lon="-0.4334207614463703"><ele>158.14285714285717</ele><time>2026-04-22T14:04:12Z</time></trkpt><trkpt lat="43.33060878126259" lon="-0.43351906538100987"><ele>157.71428571428572</ele><time>2026-04-22T14:04:13Z</time></trkpt><trkpt lat="43.330607243380804" lon="-0.4336134487008309"><ele>157.28571428571428</ele><time>2026-04-22T14:04:14Z</time></trkpt><trkpt lat="43.33060657225406" lon="-0.43371338202439824"><ele>156.85714285714283</ele><time>2026-04-22T14:04:15Z</time></trkpt><trkpt lat="43.33060728280685" lon="-0.43381148190522384"><ele>156.42857142857144</ele><time>2026-04-22T14:04:16Z</time></trkpt><trkpt lat="43.33060806413915" lon="-0.43390965008034926"><ele>156.0</ele><time>2026-04-22T14:04:17Z</time></trkpt><trkpt lat="43.33060633939668" lon="-0.43400788817419483"><ele>156.0</ele><time>2026-04-22T14:04:18Z</time></trkpt><trkpt lat="43.330604887975326" lon="-0.43410201268491166"><ele>156.0</ele><time>2026-04-22T14:04:19Z</time></trkpt><trkpt lat="43.33060560163878" lon="-0.4341964424132808"><ele>156.0</ele><time>2026-04-22T14:04:20Z</time></trkpt><trkpt lat="43.330609075835326" lon="-0.43429461924091656"><ele>156.0</ele><time>2026-04-22T14:04:21Z</time></trkpt><trkpt lat="43.330605569822495" lon="-0.4343930694724973"><ele>156.0</ele><time>2026-04-22T14:04:22Z</time></trkpt><trkpt lat="43.33060397440813" lon="-0.43448446897941867"><ele>156.0</ele><time>2026-04-22T14:04:23Z</time></trkpt><trkpt lat="43.33060053365375" lon="-0.43457903494543915"><ele>156.0</ele><time>2026-04-22T14:04:24Z</time></trkpt><trkpt lat="43.330603472785754" lon="-0.43467304261629447"><ele>155.6</ele><time>2026-04-22T14:04:25Z</time></trkpt><trkpt lat="43.33060479697004" lon="-0.4347643506526126"><ele>155.2</ele><time>2026-04-22T14:04:26Z</time></trkpt><trkpt lat="43.33060421362117" lon="-0.4348632718736593"><ele>154.8</ele><time>2026-04-22T14:04:27Z</time></trkpt><trkpt lat="43.3306081219775" lon="-0.4350410929567776"><ele>154.4</ele><time>2026-04-22T14:04:29Z</time></trkpt><trkpt lat="43.33060789722771" lon="-0.4351358412220324"><ele>154.0</ele><time>2026-04-22T14:04:30Z</time></trkpt><trkpt lat="43.33060626855993" lon="-0.43530438630733953"><ele>154.0</ele><time>2026-04-22T14:04:32Z</time></trkpt><trkpt lat="43.330612948163726" lon="-0.43539383227733264"><ele>154.0</ele><time>2026-04-22T14:04:33Z</time></trkpt><trkpt lat="43.3306111650987" lon="-0.43548416771111464"><ele>154.0</ele><time>2026-04-22T14:04:34Z</time></trkpt><trkpt lat="43.330607844202895" lon="-0.4355769421132219"><ele>154.0</ele><time>2026-04-22T14:04:35Z</time></trkpt><trkpt lat="43.33060651663167" lon="-0.43566774977016093"><ele>154.0</ele><time>2026-04-22T14:04:36Z</time></trkpt><trkpt lat="43.330590470673684" lon="-0.43575996075495055"><ele>154.0</ele><time>2026-04-22T14:04:37Z</time></trkpt><trkpt lat="43.33059010012274" lon="-0.43592945194463417"><ele>154.4</ele><time>2026-04-22T14:04:39Z</time></trkpt><trkpt lat="43.330583687325166" lon="-0.43608629162269874"><ele>154.8</ele><time>2026-04-22T14:04:41.001Z</time></trkpt><trkpt lat="43.33061428833627" lon="-0.43625047671866024"><ele>155.2</ele><time>2026-04-22T14:04:43.001Z</time></trkpt><trkpt lat="43.33062517198286" lon="-0.43633844408395117"><ele>155.6</ele><time>2026-04-22T14:04:44.001Z</time></trkpt><trkpt lat="43.3306408513643" lon="-0.4364257067657908"><ele>156.0</ele><time>2026-04-22T14:04:45.001Z</time></trkpt><trkpt lat="43.33065601712166" lon="-0.43657501148844585"><ele>156.16666666666666</ele><time>2026-04-22T14:04:47.001Z</time></trkpt><trkpt lat="43.33067563728313" lon="-0.43667771311842996"><ele>156.33333333333334</ele><time>2026-04-22T14:04:49.001Z</time></trkpt><trkpt lat="43.330702327117194" lon="-0.4367637670116501"><ele>156.5</ele><time>2026-04-22T14:04:52.001Z</time></trkpt><trkpt lat="43.330770432828146" lon="-0.43679603045175797"><ele>156.66666666666669</ele><time>2026-04-22T14:04:54.001Z</time></trkpt><trkpt lat="43.330844738248665" lon="-0.43687482292994856"><ele>156.83333333333334</ele><time>2026-04-22T14:04:56.001Z</time></trkpt><trkpt lat="43.330891517596385" lon="-0.4370139732685224"><ele>157.0</ele><time>2026-04-22T14:04:58.001Z</time></trkpt><trkpt lat="43.330940696206696" lon="-0.4371445874772717"><ele>157.0</ele><time>2026-04-22T14:05:00.001Z</time></trkpt><trkpt lat="43.331002943140405" lon="-0.43728804358993706"><ele>157.0</ele><time>2026-04-22T14:05:02.001Z</time></trkpt><trkpt lat="43.33108732166675" lon="-0.4374081572224898"><ele>157.0</ele><time>2026-04-22T14:05:04.001Z</time></trkpt><trkpt lat="43.331143569905755" lon="-0.43745599256066653"><ele>157.0</ele><time>2026-04-22T14:05:05.001Z</time></trkpt><trkpt lat="43.33125483640403" lon="-0.43751494641529814"><ele>157.0</ele><time>2026-04-22T14:05:07.001Z</time></trkpt><trkpt lat="43.33137166815426" lon="-0.4375760321477618"><ele>157.0</ele><time>2026-04-22T14:05:09.001Z</time></trkpt><trkpt lat="43.331484536004055" lon="-0.43761690942979903"><ele>157.0</ele><time>2026-04-22T14:05:11.001Z</time></trkpt><trkpt lat="43.331588874878044" lon="-0.43768313411303955"><ele>157.0</ele><time>2026-04-22T14:05:13.001Z</time></trkpt><trkpt lat="43.3317035306866" lon="-0.4377117003379614"><ele>157.0</ele><time>2026-04-22T14:05:15.001Z</time></trkpt><trkpt lat="43.331816176834295" lon="-0.43767628086149274"><ele>157.0</ele><time>2026-04-22T14:05:17.001Z</time></trkpt><trkpt lat="43.331924753201186" lon="-0.43760115305433284"><ele>157.0</ele><time>2026-04-22T14:05:19.001Z</time></trkpt><trkpt lat="43.33203100430786" lon="-0.4375266800030261"><ele>157.0</ele><time>2026-04-22T14:05:21.001Z</time></trkpt><trkpt lat="43.33214888745634" lon="-0.43750178909435194"><ele>157.0</ele><time>2026-04-22T14:05:23.001Z</time></trkpt><trkpt lat="43.33227021999363" lon="-0.43753473829395884"><ele>157.8</ele><time>2026-04-22T14:05:25.001Z</time></trkpt><trkpt lat="43.33238643041889" lon="-0.43757395222148143"><ele>158.6</ele><time>2026-04-22T14:05:27.001Z</time></trkpt><trkpt lat="43.33249474113559" lon="-0.4376339385748857"><ele>159.4</ele><time>2026-04-22T14:05:29.001Z</time></trkpt><trkpt lat="43.332592887894606" lon="-0.4376796609782984"><ele>160.20000000000002</ele><time>2026-04-22T14:05:31.001Z</time></trkpt><trkpt lat="43.33268797194709" lon="-0.4377462897221553"><ele>161.0</ele><time>2026-04-22T14:05:33.001Z</time></trkpt><trkpt lat="43.33276856605602" lon="-0.43777695799230704"><ele>161.0</ele><time>2026-04-22T14:05:35.001Z</time></trkpt><trkpt lat="43.332764494216725" lon="-0.4379414799068921"><ele>161.0</ele><time>2026-04-22T14:05:36.001Z</time></trkpt><trkpt lat="43.33276215314324" lon="-0.4381159327835214"><ele>161.0</ele><time>2026-04-22T14:05:38.001Z</time></trkpt><trkpt lat="43.33275873081357" lon="-0.4382075327160791"><ele>161.0</ele><time>2026-04-22T14:05:38.999Z</time></trkpt><trkpt lat="43.33276193600193" lon="-0.4383005689652305"><ele>161.0</ele><time>2026-04-22T14:05:39.999Z</time></trkpt><trkpt lat="43.332771983041866" lon="-0.4383937660818448"><ele>160.71428571428572</ele><time>2026-04-22T14:05:40.999Z</time></trkpt><trkpt lat="43.332776605608075" lon="-0.4384861016005426"><ele>160.42857142857144</ele><time>2026-04-22T14:05:41.999Z</time></trkpt><trkpt lat="43.33277954369096" lon="-0.4385784577758947"><ele>160.14285714285714</ele><time>2026-04-22T14:05:42.999Z</time></trkpt><trkpt lat="43.33278009648924" lon="-0.43867916322697037"><ele>159.85714285714286</ele><time>2026-04-22T14:05:43.999Z</time></trkpt><trkpt lat="43.332807331722734" lon="-0.4387656255132615"><ele>159.57142857142858</ele><time>2026-04-22T14:05:44.999Z</time></trkpt><trkpt lat="43.33280671203131" lon="-0.43885614982336385"><ele>159.28571428571428</ele><time>2026-04-22T14:05:45.999Z</time></trkpt><trkpt lat="43.332820847018134" lon="-0.43894763718168844"><ele>159.0</ele><time>2026-04-22T14:05:46.999Z</time></trkpt><trkpt lat="43.332836350542955" lon="-0.43904318527962244"><ele>158.7142857142857</ele><time>2026-04-22T14:05:47.999Z</time></trkpt><trkpt lat="43.33285200373246" lon="-0.4391337499500977"><ele>158.42857142857144</ele><time>2026-04-22T14:05:48.999Z</time></trkpt><trkpt lat="43.3328579790324" lon="-0.4392253368725478"><ele>158.14285714285714</ele><time>2026-04-22T14:05:49.999Z</time></trkpt><trkpt lat="43.33284499192181" lon="-0.43931727794923625"><ele>157.85714285714283</ele><time>2026-04-22T14:05:50.999Z</time></trkpt><trkpt lat="43.3328361604305" lon="-0.4394127719217073"><ele>157.57142857142856</ele><time>2026-04-22T14:05:51.999Z</time></trkpt><trkpt lat="43.33282407674631" lon="-0.43950714092428106"><ele>157.28571428571428</ele><time>2026-04-22T14:05:52.999Z</time></trkpt><trkpt lat="43.332805073316635" lon="-0.4396008337343476"><ele>157.0</ele><time>2026-04-22T14:05:53.999Z</time></trkpt><trkpt lat="43.33277572301754" lon="-0.4396952348468841"><ele>156.85714285714283</ele><time>2026-04-22T14:05:54.999Z</time></trkpt><trkpt lat="43.33274721815878" lon="-0.4397806532844196"><ele>156.71428571428572</ele><time>2026-04-22T14:05:55.999Z</time></trkpt><trkpt lat="43.33272039817172" lon="-0.43987625213543824"><ele>156.57142857142856</ele><time>2026-04-22T14:05:56.999Z</time></trkpt><trkpt lat="43.332698912035724" lon="-0.43997129520469497"><ele>156.42857142857142</ele><time>2026-04-22T14:05:57.999Z</time></trkpt><trkpt lat="43.33268614680212" lon="-0.44007625640448894"><ele>156.28571428571428</ele><time>2026-04-22T14:05:59Z</time></trkpt><trkpt lat="43.33267614205224" lon="-0.44017396649376755"><ele>156.14285714285714</ele><time>2026-04-22T14:06:00Z</time></trkpt><trkpt lat="43.33267425812518" lon="-0.44027002444428814"><ele>156.0</ele><time>2026-04-22T14:06:01Z</time></trkpt><trkpt lat="43.33267735483926" lon="-0.44036499256420636"><ele>156.0</ele><time>2026-04-22T14:06:02Z</time></trkpt><trkpt lat="43.332689701937696" lon="-0.44046568381250056"><ele>156.0</ele><time>2026-04-22T14:06:03Z</time></trkpt><trkpt lat="43.33271221692354" lon="-0.4405585487077823"><ele>156.0</ele><time>2026-04-22T14:06:04Z</time></trkpt><trkpt lat="43.33273768228607" lon="-0.44066161354012207"><ele>156.0</ele><time>2026-04-22T14:06:05Z</time></trkpt><trkpt lat="43.33276630207802" lon="-0.44075401382025103"><ele>156.0</ele><time>2026-04-22T14:06:06Z</time></trkpt><trkpt lat="43.332799735736614" lon="-0.44084139272255135"><ele>156.0</ele><time>2026-04-22T14:06:07Z</time></trkpt><trkpt lat="43.33283161151389" lon="-0.4409351720019972"><ele>156.0</ele><time>2026-04-22T14:06:08Z</time></trkpt><trkpt lat="43.33286467805016" lon="-0.44101833413395114"><ele>156.0</ele><time>2026-04-22T14:06:09Z</time></trkpt><trkpt lat="43.332883285838584" lon="-0.44111727186583066"><ele>156.0</ele><time>2026-04-22T14:06:10Z</time></trkpt><trkpt lat="43.332896711511275" lon="-0.44121143562211884"><ele>156.0</ele><time>2026-04-22T14:06:11Z</time></trkpt><trkpt lat="43.33291252492158" lon="-0.441311010981688"><ele>156.0</ele><time>2026-04-22T14:06:12Z</time></trkpt><trkpt lat="43.33294322225954" lon="-0.44139603673312033"><ele>156.0</ele><time>2026-04-22T14:06:13Z</time></trkpt><trkpt lat="43.332968275450035" lon="-0.4414869681052724"><ele>156.0</ele><time>2026-04-22T14:06:14Z</time></trkpt><trkpt lat="43.33299630260948" lon="-0.44157547107029615"><ele>156.0</ele><time>2026-04-22T14:06:15Z</time></trkpt><trkpt lat="43.33302757200531" lon="-0.44166075104689123"><ele>156.0</ele><time>2026-04-22T14:06:16Z</time></trkpt><trkpt lat="43.33305238697779" lon="-0.4417469850878894"><ele>156.0</ele><time>2026-04-22T14:06:17Z</time></trkpt><trkpt lat="43.333070737794294" lon="-0.44183616235739087"><ele>156.0</ele><time>2026-04-22T14:06:18Z</time></trkpt><trkpt lat="43.33308804667564" lon="-0.44198706829431866"><ele>156.0</ele><time>2026-04-22T14:06:20Z</time></trkpt><trkpt lat="43.33310072818768" lon="-0.4421101255587048"><ele>156.0</ele><time>2026-04-22T14:06:23Z</time></trkpt><trkpt lat="43.33309734162459" lon="-0.44225059141273226"><ele>156.0</ele><time>2026-04-22T14:06:25Z</time></trkpt><trkpt lat="43.333105530711464" lon="-0.442409965359489"><ele>155.66666666666666</ele><time>2026-04-22T14:06:27Z</time></trkpt><trkpt lat="43.33311820361555" lon="-0.44249738457690896"><ele>155.33333333333334</ele><time>2026-04-22T14:06:28Z</time></trkpt><trkpt lat="43.33313776311544" lon="-0.4426700740926751"><ele>155.0</ele><time>2026-04-22T14:06:30Z</time></trkpt><trkpt lat="43.33314616762833" lon="-0.4427592145855968"><ele>154.66666666666669</ele><time>2026-04-22T14:06:31Z</time></trkpt><trkpt lat="43.333157182036224" lon="-0.442853181840429"><ele>154.33333333333334</ele><time>2026-04-22T14:06:32Z</time></trkpt><trkpt lat="43.33317026836621" lon="-0.4429455226483932"><ele>154.0</ele><time>2026-04-22T14:06:33Z</time></trkpt><trkpt lat="43.33318334258208" lon="-0.4430389205662567"><ele>153.57142857142858</ele><time>2026-04-22T14:06:34Z</time></trkpt><trkpt lat="43.333193979112984" lon="-0.4431356754947846"><ele>153.14285714285714</ele><time>2026-04-22T14:06:35Z</time></trkpt><trkpt lat="43.33320657681386" lon="-0.4432312962183867"><ele>152.71428571428572</ele><time>2026-04-22T14:06:36Z</time></trkpt><trkpt lat="43.33321537083785" lon="-0.44333390205946915"><ele>152.28571428571428</ele><time>2026-04-22T14:06:37Z</time></trkpt><trkpt lat="43.33322507164498" lon="-0.4434343406632227"><ele>151.85714285714286</ele><time>2026-04-22T14:06:38Z</time></trkpt><trkpt lat="43.33323753495746" lon="-0.4435350017029454"><ele>151.42857142857144</ele><time>2026-04-22T14:06:39Z</time></trkpt><trkpt lat="43.333249500781875" lon="-0.4436356045655996"><ele>151.0</ele><time>2026-04-22T14:06:40Z</time></trkpt><trkpt lat="43.333265953166254" lon="-0.44373745832388545"><ele>151.33333333333334</ele><time>2026-04-22T14:06:41Z</time></trkpt><trkpt lat="43.33328047352169" lon="-0.4438365186456285"><ele>151.66666666666669</ele><time>2026-04-22T14:06:42Z</time></trkpt><trkpt lat="43.33329553460979" lon="-0.4439419470021382"><ele>152.0</ele><time>2026-04-22T14:06:43.001Z</time></trkpt><trkpt lat="43.33331489575473" lon="-0.444038573987066"><ele>152.33333333333334</ele><time>2026-04-22T14:06:44.001Z</time></trkpt><trkpt lat="43.333334876224804" lon="-0.44413986485500156"><ele>152.66666666666666</ele><time>2026-04-22T14:06:45.001Z</time></trkpt><trkpt lat="43.33335169770367" lon="-0.44423554714626223"><ele>153.0</ele><time>2026-04-22T14:06:46.001Z</time></trkpt><trkpt lat="43.333369660001516" lon="-0.4443392008113716"><ele>153.0</ele><time>2026-04-22T14:06:47.001Z</time></trkpt><trkpt lat="43.33338755242299" lon="-0.4444389237674356"><ele>153.0</ele><time>2026-04-22T14:06:48.001Z</time></trkpt><trkpt lat="43.33340872087068" lon="-0.444530604703894"><ele>153.0</ele><time>2026-04-22T14:06:49.001Z</time></trkpt><trkpt lat="43.33342966468764" lon="-0.4446257495326865"><ele>153.0</ele><time>2026-04-22T14:06:50.001Z</time></trkpt><trkpt lat="43.33344733165052" lon="-0.44472120878097965"><ele>153.0</ele><time>2026-04-22T14:06:51.001Z</time></trkpt><trkpt lat="43.33346603407147" lon="-0.44481308757231797"><ele>153.0</ele><time>2026-04-22T14:06:52.001Z</time></trkpt><trkpt lat="43.333487418052115" lon="-0.444909089746542"><ele>153.0</ele><time>2026-04-22T14:06:53.001Z</time></trkpt><trkpt lat="43.33351047330046" lon="-0.44500385488832195"><ele>153.0</ele><time>2026-04-22T14:06:54.001Z</time></trkpt><trkpt lat="43.33352922524435" lon="-0.4450956884973755"><ele>153.0</ele><time>2026-04-22T14:06:55.001Z</time></trkpt><trkpt lat="43.333541426695014" lon="-0.4451918630871182"><ele>153.0</ele><time>2026-04-22T14:06:56.001Z</time></trkpt><trkpt lat="43.33355291236895" lon="-0.4452890115984576"><ele>153.0</ele><time>2026-04-22T14:06:57.001Z</time></trkpt><trkpt lat="43.333555131982905" lon="-0.44538596669076447"><ele>153.0</ele><time>2026-04-22T14:06:58.001Z</time></trkpt><trkpt lat="43.33355292749156" lon="-0.4454868256710587"><ele>153.0</ele><time>2026-04-22T14:06:59.001Z</time></trkpt><trkpt lat="43.33355054819966" lon="-0.44558736725597553"><ele>153.0</ele><time>2026-04-22T14:07:00.001Z</time></trkpt><trkpt lat="43.33354704146945" lon="-0.4456810188530185"><ele>153.0</ele><time>2026-04-22T14:07:01.001Z</time></trkpt><trkpt lat="43.33353880913243" lon="-0.44578062340732094"><ele>153.0</ele><time>2026-04-22T14:07:02.001Z</time></trkpt><trkpt lat="43.33352923070897" lon="-0.445875443831884"><ele>153.0</ele><time>2026-04-22T14:07:03.001Z</time></trkpt><trkpt lat="43.33351586543932" lon="-0.44597090286238794"><ele>153.0</ele><time>2026-04-22T14:07:04.001Z</time></trkpt><trkpt lat="43.3335050368989" lon="-0.44606672011072523"><ele>153.0</ele><time>2026-04-22T14:07:05.001Z</time></trkpt><trkpt lat="43.33349592157982" lon="-0.446160276680478"><ele>153.0</ele><time>2026-04-22T14:07:06.001Z</time></trkpt><trkpt lat="43.33349176361889" lon="-0.44625556487111895"><ele>153.0</ele><time>2026-04-22T14:07:07.001Z</time></trkpt><trkpt lat="43.33348273213024" lon="-0.4463555234035386"><ele>152.85714285714286</ele><time>2026-04-22T14:07:08.001Z</time></trkpt><trkpt lat="43.33347106880678" lon="-0.4464520563566916"><ele>152.71428571428572</ele><time>2026-04-22T14:07:09.001Z</time></trkpt><trkpt lat="43.33346142714639" lon="-0.446550723899953"><ele>152.57142857142856</ele><time>2026-04-22T14:07:10.001Z</time></trkpt><trkpt lat="43.33345367944" lon="-0.44665197867868234"><ele>152.42857142857144</ele><time>2026-04-22T14:07:11.001Z</time></trkpt><trkpt lat="43.333444997461896" lon="-0.4467521177328982"><ele>152.2857142857143</ele><time>2026-04-22T14:07:12.001Z</time></trkpt><trkpt lat="43.333441447036954" lon="-0.44685121656145643"><ele>152.14285714285714</ele><time>2026-04-22T14:07:13.001Z</time></trkpt><trkpt lat="43.33344180329684" lon="-0.44695046604063116"><ele>152.0</ele><time>2026-04-22T14:07:14.001Z</time></trkpt><trkpt lat="43.33343761993109" lon="-0.44705057975106455"><ele>151.66666666666666</ele><time>2026-04-22T14:07:15.001Z</time></trkpt><trkpt lat="43.3334316751209" lon="-0.4471518616860569"><ele>151.33333333333331</ele><time>2026-04-22T14:07:16.001Z</time></trkpt><trkpt lat="43.333427316518495" lon="-0.44725975878668545"><ele>151.0</ele><time>2026-04-22T14:07:17.001Z</time></trkpt><trkpt lat="43.33342225691233" lon="-0.44735786485994516"><ele>150.66666666666666</ele><time>2026-04-22T14:07:18.001Z</time></trkpt><trkpt lat="43.333422642284205" lon="-0.4474616515350785"><ele>150.33333333333334</ele><time>2026-04-22T14:07:19.001Z</time></trkpt><trkpt lat="43.33342308111202" lon="-0.44756673447291057"><ele>150.0</ele><time>2026-04-22T14:07:20.001Z</time></trkpt><trkpt lat="43.33342030703227" lon="-0.44766941163463"><ele>149.99999999999997</ele><time>2026-04-22T14:07:21.001Z</time></trkpt><trkpt lat="43.33341795948507" lon="-0.44777712383932033"><ele>150.0</ele><time>2026-04-22T14:07:22.001Z</time></trkpt><trkpt lat="43.33341615365102" lon="-0.44787541213172427"><ele>150.0</ele><time>2026-04-22T14:07:23.001Z</time></trkpt><trkpt lat="43.33341689265941" lon="-0.4479796827654421"><ele>150.0</ele><time>2026-04-22T14:07:24.001Z</time></trkpt><trkpt lat="43.33341468101238" lon="-0.4480765964374679"><ele>150.0</ele><time>2026-04-22T14:07:25.001Z</time></trkpt><trkpt lat="43.333413500534974" lon="-0.4481754626481573"><ele>149.99999999999997</ele><time>2026-04-22T14:07:26.001Z</time></trkpt><trkpt lat="43.333413313558374" lon="-0.4482729745236969"><ele>150.0</ele><time>2026-04-22T14:07:27.001Z</time></trkpt><trkpt lat="43.33341439453503" lon="-0.4483639647207141"><ele>150.16666666666666</ele><time>2026-04-22T14:07:28.001Z</time></trkpt><trkpt lat="43.33341129537487" lon="-0.4484562655551088"><ele>150.33333333333334</ele><time>2026-04-22T14:07:29.001Z</time></trkpt><trkpt lat="43.333408214739514" lon="-0.4486296988071594"><ele>150.5</ele><time>2026-04-22T14:07:31.001Z</time></trkpt><trkpt lat="43.33343066452585" lon="-0.4487261220323963"><ele>150.66666666666669</ele><time>2026-04-22T14:07:32.001Z</time></trkpt><trkpt lat="43.33342949368766" lon="-0.44881606669490387"><ele>150.83333333333334</ele><time>2026-04-22T14:07:33.001Z</time></trkpt><trkpt lat="43.333421124050076" lon="-0.4489688746327513"><ele>151.0</ele><time>2026-04-22T14:07:35.002Z</time></trkpt><trkpt lat="43.333423728990496" lon="-0.44906476684575397"><ele>151.14285714285717</ele><time>2026-04-22T14:07:36.002Z</time></trkpt><trkpt lat="43.333429542826835" lon="-0.449159328230271"><ele>151.28571428571428</ele><time>2026-04-22T14:07:37.002Z</time></trkpt><trkpt lat="43.33343730802608" lon="-0.4492490588785059"><ele>151.42857142857144</ele><time>2026-04-22T14:07:38.002Z</time></trkpt><trkpt lat="43.33344585977187" lon="-0.4493428032554826"><ele>151.57142857142858</ele><time>2026-04-22T14:07:39.002Z</time></trkpt><trkpt lat="43.33344855164523" lon="-0.449438862332208"><ele>151.71428571428572</ele><time>2026-04-22T14:07:40.002Z</time></trkpt><trkpt lat="43.333450102001024" lon="-0.44953846568362793"><ele>151.85714285714286</ele><time>2026-04-22T14:07:41.002Z</time></trkpt><trkpt lat="43.33345151416139" lon="-0.4496359152166024"><ele>152.0</ele><time>2026-04-22T14:07:42.002Z</time></trkpt><trkpt lat="43.3334541354762" lon="-0.44973647178122145"><ele>152.0</ele><time>2026-04-22T14:07:43.002Z</time></trkpt><trkpt lat="43.33345224864855" lon="-0.4498426298746869"><ele>152.0</ele><time>2026-04-22T14:07:44.002Z</time></trkpt><trkpt lat="43.333459426883586" lon="-0.45002461850782627"><ele>152.0</ele><time>2026-04-22T14:07:46Z</time></trkpt><trkpt lat="43.33345878749845" lon="-0.4501188272169672"><ele>152.0</ele><time>2026-04-22T14:07:47Z</time></trkpt><trkpt lat="43.33345653237625" lon="-0.45021527094321545"><ele>152.0</ele><time>2026-04-22T14:07:48Z</time></trkpt><trkpt lat="43.333450155201724" lon="-0.4503910990358938"><ele>152.14285714285714</ele><time>2026-04-22T14:07:50Z</time></trkpt><trkpt lat="43.33344823427948" lon="-0.4504796848849257"><ele>152.2857142857143</ele><time>2026-04-22T14:07:51Z</time></trkpt><trkpt lat="43.333449136995796" lon="-0.4505736713726115"><ele>152.42857142857144</ele><time>2026-04-22T14:07:52Z</time></trkpt><trkpt lat="43.33344963601286" lon="-0.45066195918548274"><ele>152.57142857142856</ele><time>2026-04-22T14:07:53Z</time></trkpt><trkpt lat="43.333446607157" lon="-0.45075452102938424"><ele>152.71428571428572</ele><time>2026-04-22T14:07:54Z</time></trkpt><trkpt lat="43.333443101767514" lon="-0.4508436638756336"><ele>152.85714285714286</ele><time>2026-04-22T14:07:55Z</time></trkpt><trkpt lat="43.333440025633024" lon="-0.450931182908815"><ele>153.0</ele><time>2026-04-22T14:07:56Z</time></trkpt><trkpt lat="43.333437522219576" lon="-0.4510215092089769"><ele>153.0</ele><time>2026-04-22T14:07:57Z</time></trkpt><trkpt lat="43.33344591947075" lon="-0.4511937891353717"><ele>153.0</ele><time>2026-04-22T14:07:59Z</time></trkpt><trkpt lat="43.33343596884605" lon="-0.4512911406053169"><ele>153.0</ele><time>2026-04-22T14:08:00Z</time></trkpt><trkpt lat="43.33343821727547" lon="-0.4513816924832432"><ele>153.0</ele><time>2026-04-22T14:08:01Z</time></trkpt><trkpt lat="43.33343328445106" lon="-0.4514701327697583"><ele>153.0</ele><time>2026-04-22T14:08:02Z</time></trkpt><trkpt lat="43.33342296214539" lon="-0.4515653688255799"><ele>153.0</ele><time>2026-04-22T14:08:03Z</time></trkpt><trkpt lat="43.33341589245552" lon="-0.45165411517855064"><ele>153.8</ele><time>2026-04-22T14:08:04Z</time></trkpt><trkpt lat="43.33337767555822" lon="-0.4518211768108002"><ele>154.60000000000002</ele><time>2026-04-22T14:08:06Z</time></trkpt><trkpt lat="43.33337242093917" lon="-0.45191105253721203"><ele>155.39999999999998</ele><time>2026-04-22T14:08:07Z</time></trkpt><trkpt lat="43.33334598571518" lon="-0.45207868761521613"><ele>156.2</ele><time>2026-04-22T14:08:09Z</time></trkpt><trkpt lat="43.33332047827516" lon="-0.4522454438815154"><ele>157.0</ele><time>2026-04-22T14:08:11Z</time></trkpt><trkpt lat="43.33329649984153" lon="-0.4523971039709344"><ele>156.4</ele><time>2026-04-22T14:08:13Z</time></trkpt><trkpt lat="43.33327064709095" lon="-0.45255964440726487"><ele>155.79999999999998</ele><time>2026-04-22T14:08:15Z</time></trkpt><trkpt lat="43.333261941585846" lon="-0.45264617964990556"><ele>155.2</ele><time>2026-04-22T14:08:16Z</time></trkpt><trkpt lat="43.33323550781921" lon="-0.45281156895044056"><ele>154.6</ele><time>2026-04-22T14:08:18Z</time></trkpt><trkpt lat="43.33321233458751" lon="-0.4529805777639806"><ele>154.0</ele><time>2026-04-22T14:08:20Z</time></trkpt><trkpt lat="43.33319672674435" lon="-0.4531502638422464"><ele>154.0</ele><time>2026-04-22T14:08:22Z</time></trkpt><trkpt lat="43.33318159377142" lon="-0.453235128045436"><ele>154.0</ele><time>2026-04-22T14:08:23Z</time></trkpt><trkpt lat="43.33326560146229" lon="-0.453392307603"><ele>154.0</ele><time>2026-04-22T14:08:25Z</time></trkpt><trkpt lat="43.33331001144075" lon="-0.45346123780091047"><ele>154.0</ele><time>2026-04-22T14:08:26Z</time></trkpt><trkpt lat="43.333352455800046" lon="-0.45352606403239176"><ele>154.0</ele><time>2026-04-22T14:08:27.001Z</time></trkpt><trkpt lat="43.333392810522355" lon="-0.4535933268668082"><ele>154.0</ele><time>2026-04-22T14:08:28.001Z</time></trkpt><trkpt lat="43.33342948827773" lon="-0.45367009699906974"><ele>154.0</ele><time>2026-04-22T14:08:29.001Z</time></trkpt><trkpt lat="43.33347316988963" lon="-0.4537512686795"><ele>154.0</ele><time>2026-04-22T14:08:30.001Z</time></trkpt><trkpt lat="43.33351385021123" lon="-0.45382284373963716"><ele>154.0</ele><time>2026-04-22T14:08:31.001Z</time></trkpt><trkpt lat="43.33355519341456" lon="-0.4539025723802214"><ele>154.0</ele><time>2026-04-22T14:08:32.001Z</time></trkpt><trkpt lat="43.3335960214765" lon="-0.45397860809807167"><ele>154.0</ele><time>2026-04-22T14:08:33.001Z</time></trkpt><trkpt lat="43.33363941801106" lon="-0.45405208288649124"><ele>154.0</ele><time>2026-04-22T14:08:34.001Z</time></trkpt><trkpt lat="43.33368467464395" lon="-0.45412885981899764"><ele>154.0</ele><time>2026-04-22T14:08:35.001Z</time></trkpt><trkpt lat="43.333729107872315" lon="-0.45420442385795756"><ele>153.57142857142858</ele><time>2026-04-22T14:08:36.001Z</time></trkpt><trkpt lat="43.33377724159645" lon="-0.45428139811126195"><ele>153.14285714285714</ele><time>2026-04-22T14:08:37.001Z</time></trkpt><trkpt lat="43.33382423369006" lon="-0.45436093352702256"><ele>152.71428571428572</ele><time>2026-04-22T14:08:38.001Z</time></trkpt><trkpt lat="43.33386847458004" lon="-0.4544435026871244"><ele>152.28571428571428</ele><time>2026-04-22T14:08:39.001Z</time></trkpt><trkpt lat="43.33390969905573" lon="-0.454527439531972"><ele>151.85714285714286</ele><time>2026-04-22T14:08:40.001Z</time></trkpt><trkpt lat="43.33395159906252" lon="-0.4546089296969328"><ele>151.42857142857144</ele><time>2026-04-22T14:08:41.001Z</time></trkpt><trkpt lat="43.333992899653936" lon="-0.4546879908250442"><ele>151.0</ele><time>2026-04-22T14:08:42.001Z</time></trkpt><trkpt lat="43.334037087886976" lon="-0.4547682958680795"><ele>150.57142857142858</ele><time>2026-04-22T14:08:43.001Z</time></trkpt><trkpt lat="43.334081405938065" lon="-0.45484511861999605"><ele>150.14285714285714</ele><time>2026-04-22T14:08:44.001Z</time></trkpt><trkpt lat="43.334125261593236" lon="-0.4549271492550938"><ele>149.71428571428572</ele><time>2026-04-22T14:08:45.001Z</time></trkpt><trkpt lat="43.33416636012646" lon="-0.45500984605274464"><ele>149.28571428571428</ele><time>2026-04-22T14:08:46.001Z</time></trkpt><trkpt lat="43.33420862556074" lon="-0.4550927166022508"><ele>148.85714285714286</ele><time>2026-04-22T14:08:47.001Z</time></trkpt><trkpt lat="43.33425123693649" lon="-0.4551734381788263"><ele>148.42857142857144</ele><time>2026-04-22T14:08:48.001Z</time></trkpt><trkpt lat="43.33429339968085" lon="-0.4552508137269495"><ele>148.0</ele><time>2026-04-22T14:08:49.001Z</time></trkpt><trkpt lat="43.334334845862884" lon="-0.45533090300527834"><ele>148.0</ele><time>2026-04-22T14:08:50.001Z</time></trkpt><trkpt lat="43.334378770717755" lon="-0.45540556245023645"><ele>148.0</ele><time>2026-04-22T14:08:51.001Z</time></trkpt><trkpt lat="43.33442178144756" lon="-0.45547817970887156"><ele>148.0</ele><time>2026-04-22T14:08:52.001Z</time></trkpt><trkpt lat="43.33446199032112" lon="-0.4555569203779373"><ele>148.0</ele><time>2026-04-22T14:08:53.001Z</time></trkpt><trkpt lat="43.33449533412318" lon="-0.45563488400469215"><ele>148.0</ele><time>2026-04-22T14:08:54.001Z</time></trkpt><trkpt lat="43.33453449541055" lon="-0.4557143549277583"><ele>148.0</ele><time>2026-04-22T14:08:55.001Z</time></trkpt><trkpt lat="43.33457468910698" lon="-0.4557951317990897"><ele>148.0</ele><time>2026-04-22T14:08:56.001Z</time></trkpt><trkpt lat="43.33461815934178" lon="-0.4558691398297195"><ele>148.0</ele><time>2026-04-22T14:08:57.001Z</time></trkpt><trkpt lat="43.33465866807524" lon="-0.4559490022264696"><ele>148.0</ele><time>2026-04-22T14:08:58.001Z</time></trkpt><trkpt lat="43.33469831174879" lon="-0.45602618953563806"><ele>148.0</ele><time>2026-04-22T14:08:59.001Z</time></trkpt><trkpt lat="43.334740019402844" lon="-0.4561030311582569"><ele>148.0</ele><time>2026-04-22T14:09:00.001Z</time></trkpt><trkpt lat="43.33477977533387" lon="-0.45617916447424345"><ele>148.0</ele><time>2026-04-22T14:09:01.001Z</time></trkpt><trkpt lat="43.33481932157359" lon="-0.456256866992787"><ele>148.0</ele><time>2026-04-22T14:09:02.001Z</time></trkpt><trkpt lat="43.334858209242064" lon="-0.45633576471413767"><ele>148.0</ele><time>2026-04-22T14:09:03.001Z</time></trkpt><trkpt lat="43.33490343409005" lon="-0.4564112790831168"><ele>148.14285714285714</ele><time>2026-04-22T14:09:04.001Z</time></trkpt><trkpt lat="43.33494507208296" lon="-0.4564892610257526"><ele>148.28571428571428</ele><time>2026-04-22T14:09:05.001Z</time></trkpt><trkpt lat="43.334985290633696" lon="-0.45657071192781995"><ele>148.42857142857142</ele><time>2026-04-22T14:09:06.001Z</time></trkpt><trkpt lat="43.335026419401295" lon="-0.45665070547787895"><ele>148.57142857142856</ele><time>2026-04-22T14:09:07.001Z</time></trkpt><trkpt lat="43.335071474039175" lon="-0.45672303395482344"><ele>148.7142857142857</ele><time>2026-04-22T14:09:08.001Z</time></trkpt><trkpt lat="43.335114630763925" lon="-0.45679989375490543"><ele>148.85714285714286</ele><time>2026-04-22T14:09:09.001Z</time></trkpt><trkpt lat="43.33515687500778" lon="-0.4568783998881283"><ele>149.0</ele><time>2026-04-22T14:09:10.001Z</time></trkpt><trkpt lat="43.33520205131804" lon="-0.4569561392153867"><ele>149.0</ele><time>2026-04-22T14:09:11.001Z</time></trkpt><trkpt lat="43.33524329927281" lon="-0.45703424330541426"><ele>149.0</ele><time>2026-04-22T14:09:12.001Z</time></trkpt><trkpt lat="43.335285040910456" lon="-0.45711376570116846"><ele>149.0</ele><time>2026-04-22T14:09:13.001Z</time></trkpt><trkpt lat="43.33532705869083" lon="-0.45719123414305096"><ele>149.0</ele><time>2026-04-22T14:09:14.001Z</time></trkpt><trkpt lat="43.33537094932198" lon="-0.45726765212473097"><ele>149.0</ele><time>2026-04-22T14:09:15.001Z</time></trkpt><trkpt lat="43.33541582280865" lon="-0.45734802425408333"><ele>149.0</ele><time>2026-04-22T14:09:16.001Z</time></trkpt><trkpt lat="43.33545624083305" lon="-0.4574252338737994"><ele>149.0</ele><time>2026-04-22T14:09:17.001Z</time></trkpt><trkpt lat="43.33549759755128" lon="-0.457503450944341"><ele>149.0</ele><time>2026-04-22T14:09:18.001Z</time></trkpt><trkpt lat="43.33554282842628" lon="-0.45757801359510464"><ele>149.0</ele><time>2026-04-22T14:09:19.001Z</time></trkpt><trkpt lat="43.33558346071454" lon="-0.4576567676667814"><ele>149.0</ele><time>2026-04-22T14:09:20.002Z</time></trkpt><trkpt lat="43.33562718475634" lon="-0.4577353925090201"><ele>149.0</ele><time>2026-04-22T14:09:21.002Z</time></trkpt><trkpt lat="43.33566650843015" lon="-0.4578148213414614"><ele>149.0</ele><time>2026-04-22T14:09:22.002Z</time></trkpt><trkpt lat="43.335710887035695" lon="-0.4578944721374175"><ele>149.0</ele><time>2026-04-22T14:09:23.002Z</time></trkpt><trkpt lat="43.335754916009435" lon="-0.45797654386997355"><ele>149.0</ele><time>2026-04-22T14:09:24.002Z</time></trkpt><trkpt lat="43.33580321092735" lon="-0.45805099416867595"><ele>148.28571428571428</ele><time>2026-04-22T14:09:25.002Z</time></trkpt><trkpt lat="43.33584429628561" lon="-0.45813631759709494"><ele>147.57142857142856</ele><time>2026-04-22T14:09:26.002Z</time></trkpt><trkpt lat="43.335889224514005" lon="-0.4582161438010398"><ele>146.85714285714286</ele><time>2026-04-22T14:09:27.002Z</time></trkpt><trkpt lat="43.33593307457703" lon="-0.4582972913590291"><ele>146.14285714285714</ele><time>2026-04-22T14:09:28.002Z</time></trkpt><trkpt lat="43.33597644266107" lon="-0.4583812574368546"><ele>145.42857142857144</ele><time>2026-04-22T14:09:29.002Z</time></trkpt><trkpt lat="43.33602118503156" lon="-0.4584656009045162"><ele>144.71428571428572</ele><time>2026-04-22T14:09:30.002Z</time></trkpt><trkpt lat="43.33606681505402" lon="-0.4585449587509481"><ele>144.0</ele><time>2026-04-22T14:09:31.002Z</time></trkpt><trkpt lat="43.3361105504287" lon="-0.4586262896681804"><ele>144.00000000000003</ele><time>2026-04-22T14:09:32.002Z</time></trkpt><trkpt lat="43.33615026668274" lon="-0.4587245148340371"><ele>144.0</ele><time>2026-04-22T14:09:33.002Z</time></trkpt><trkpt lat="43.33619421395092" lon="-0.45879229923585346"><ele>144.0</ele><time>2026-04-22T14:09:34.002Z</time></trkpt><trkpt lat="43.336235322353794" lon="-0.4588707130591238"><ele>144.0</ele><time>2026-04-22T14:09:35.002Z</time></trkpt><trkpt lat="43.33627320350649" lon="-0.45895366299662316"><ele>144.0</ele><time>2026-04-22T14:09:36.002Z</time></trkpt><trkpt lat="43.33629563709038" lon="-0.4590428942107708"><ele>144.00000000000003</ele><time>2026-04-22T14:09:37.002Z</time></trkpt><trkpt lat="43.336330815142105" lon="-0.45912975097699305"><ele>144.0</ele><time>2026-04-22T14:09:38.002Z</time></trkpt><trkpt lat="43.33635964750009" lon="-0.4592163802539212"><ele>144.14285714285717</ele><time>2026-04-22T14:09:39.002Z</time></trkpt><trkpt lat="43.33638814851421" lon="-0.4593037703570021"><ele>144.28571428571428</ele><time>2026-04-22T14:09:40.002Z</time></trkpt><trkpt lat="43.33641552683343" lon="-0.45938571723283206"><ele>144.42857142857144</ele><time>2026-04-22T14:09:41.002Z</time></trkpt><trkpt lat="43.33644481768634" lon="-0.4594740310485155"><ele>144.57142857142858</ele><time>2026-04-22T14:09:42.002Z</time></trkpt><trkpt lat="43.33646998467118" lon="-0.4595603277305378"><ele>144.71428571428572</ele><time>2026-04-22T14:09:43.002Z</time></trkpt><trkpt lat="43.33650014162578" lon="-0.4596448416572838"><ele>144.85714285714286</ele><time>2026-04-22T14:09:44.002Z</time></trkpt><trkpt lat="43.336513256148756" lon="-0.4597340052379928"><ele>145.0</ele><time>2026-04-22T14:09:45.002Z</time></trkpt><trkpt lat="43.33655750105343" lon="-0.4598827636586279"><ele>145.0</ele><time>2026-04-22T14:09:47.002Z</time></trkpt><trkpt lat="43.33666578607104" lon="-0.4599539702420843"><ele>145.0</ele><time>2026-04-22T14:09:51.001Z</time></trkpt><trkpt lat="43.336726638925356" lon="-0.46001060721385456"><ele>145.0</ele><time>2026-04-22T14:09:53.001Z</time></trkpt><trkpt lat="43.33680596616454" lon="-0.4600716410971001"><ele>145.0</ele><time>2026-04-22T14:09:55.001Z</time></trkpt><trkpt lat="43.33690132417409" lon="-0.46011855612606123"><ele>145.0</ele><time>2026-04-22T14:09:57.001Z</time></trkpt><trkpt lat="43.336995518750676" lon="-0.460214733936694"><ele>145.0</ele><time>2026-04-22T14:09:59.001Z</time></trkpt><trkpt lat="43.337051598483036" lon="-0.4603661057907638"><ele>145.0</ele><time>2026-04-22T14:10:01.001Z</time></trkpt><trkpt lat="43.337067674512575" lon="-0.4604520144844628"><ele>145.0</ele><time>2026-04-22T14:10:02.001Z</time></trkpt><trkpt lat="43.337077023989636" lon="-0.46054070312715417"><ele>145.0</ele><time>2026-04-22T14:10:03.001Z</time></trkpt><trkpt lat="43.337061206334305" lon="-0.4606262901976182"><ele>145.0</ele><time>2026-04-22T14:10:04.001Z</time></trkpt><trkpt lat="43.33702312499795" lon="-0.46070701642019607"><ele>145.0</ele><time>2026-04-22T14:10:05.001Z</time></trkpt><trkpt lat="43.33697733871554" lon="-0.4607769858822144"><ele>145.0</ele><time>2026-04-22T14:10:06Z</time></trkpt><trkpt lat="43.3369174332265" lon="-0.46082739031423886"><ele>145.0</ele><time>2026-04-22T14:10:07Z</time></trkpt><trkpt lat="43.33678551122202" lon="-0.4608824330894346"><ele>145.0</ele><time>2026-04-22T14:10:09Z</time></trkpt><trkpt lat="43.336712592382206" lon="-0.46087796398003084"><ele>145.0</ele><time>2026-04-22T14:10:10.001Z</time></trkpt><trkpt lat="43.336641248144765" lon="-0.46085815107867345"><ele>145.0</ele><time>2026-04-22T14:10:11.001Z</time></trkpt><trkpt lat="43.33657247724248" lon="-0.46084041741174764"><ele>145.0</ele><time>2026-04-22T14:10:12.001Z</time></trkpt><trkpt lat="43.33650512046906" lon="-0.46081943683161547"><ele>145.0</ele><time>2026-04-22T14:10:13.001Z</time></trkpt><trkpt lat="43.33643003169448" lon="-0.46082456185831155"><ele>145.0</ele><time>2026-04-22T14:10:14.001Z</time></trkpt><trkpt lat="43.33635448429996" lon="-0.46084563535465645"><ele>145.0</ele><time>2026-04-22T14:10:15.001Z</time></trkpt><trkpt lat="43.33628429315209" lon="-0.46088557074921965"><ele>145.0</ele><time>2026-04-22T14:10:16.001Z</time></trkpt><trkpt lat="43.33621602208504" lon="-0.4609315963509366"><ele>145.0</ele><time>2026-04-22T14:10:17.001Z</time></trkpt><trkpt lat="43.336151401412366" lon="-0.46097455182141506"><ele>145.0</ele><time>2026-04-22T14:10:18.001Z</time></trkpt><trkpt lat="43.33608577175649" lon="-0.4610178490383475"><ele>145.0</ele><time>2026-04-22T14:10:19.001Z</time></trkpt><trkpt lat="43.33601830625331" lon="-0.46105761507596515"><ele>145.14285714285714</ele><time>2026-04-22T14:10:20.001Z</time></trkpt><trkpt lat="43.335950692047916" lon="-0.4610988349558328"><ele>145.2857142857143</ele><time>2026-04-22T14:10:21.001Z</time></trkpt><trkpt lat="43.33588204234582" lon="-0.4611333458261581"><ele>145.42857142857144</ele><time>2026-04-22T14:10:22.001Z</time></trkpt><trkpt lat="43.33581259455391" lon="-0.46116702726867403"><ele>145.57142857142858</ele><time>2026-04-22T14:10:23.001Z</time></trkpt><trkpt lat="43.33574588032696" lon="-0.46120421136197415"><ele>145.71428571428572</ele><time>2026-04-22T14:10:24.001Z</time></trkpt><trkpt lat="43.33568228417892" lon="-0.4612406459455408"><ele>145.85714285714286</ele><time>2026-04-22T14:10:25.001Z</time></trkpt><trkpt lat="43.33562052599764" lon="-0.46128139909350635"><ele>146.0</ele><time>2026-04-22T14:10:26.001Z</time></trkpt><trkpt lat="43.3355541664378" lon="-0.46132494419248476"><ele>146.0</ele><time>2026-04-22T14:10:27.001Z</time></trkpt><trkpt lat="43.33549394834183" lon="-0.4613692224295691"><ele>146.0</ele><time>2026-04-22T14:10:28.001Z</time></trkpt><trkpt lat="43.33543483057947" lon="-0.4614200981824522"><ele>146.0</ele><time>2026-04-22T14:10:29.001Z</time></trkpt><trkpt lat="43.33537195386966" lon="-0.4614639808001044"><ele>146.0</ele><time>2026-04-22T14:10:30.001Z</time></trkpt><trkpt lat="43.335311663070755" lon="-0.4615120376058086"><ele>146.0</ele><time>2026-04-22T14:10:31.001Z</time></trkpt><trkpt lat="43.33520211181293" lon="-0.4616177336425837"><ele>146.0</ele><time>2026-04-22T14:10:33.001Z</time></trkpt><trkpt lat="43.335145939171234" lon="-0.4616758326819358"><ele>146.0</ele><time>2026-04-22T14:10:34.001Z</time></trkpt><trkpt lat="43.33508738272997" lon="-0.46172482900268896"><ele>146.0</ele><time>2026-04-22T14:10:35.001Z</time></trkpt><trkpt lat="43.335032504969035" lon="-0.4617775356247038"><ele>146.0</ele><time>2026-04-22T14:10:36.001Z</time></trkpt><trkpt lat="43.334972377761545" lon="-0.46182962872340894"><ele>146.0</ele><time>2026-04-22T14:10:37.001Z</time></trkpt><trkpt lat="43.33491693310375" lon="-0.4618788711048545"><ele>146.0</ele><time>2026-04-22T14:10:38.001Z</time></trkpt><trkpt lat="43.334861965487924" lon="-0.46193826632897955"><ele>146.0</ele><time>2026-04-22T14:10:39.001Z</time></trkpt><trkpt lat="43.33481246385799" lon="-0.46199784825271123"><ele>146.0</ele><time>2026-04-22T14:10:40.001Z</time></trkpt><trkpt lat="43.33476000825962" lon="-0.46205343607238286"><ele>146.14285714285714</ele><time>2026-04-22T14:10:41.001Z</time></trkpt><trkpt lat="43.334700443151426" lon="-0.462099381477317"><ele>146.28571428571428</ele><time>2026-04-22T14:10:42.001Z</time></trkpt><trkpt lat="43.33465034906032" lon="-0.462155789624545"><ele>146.42857142857144</ele><time>2026-04-22T14:10:43.001Z</time></trkpt><trkpt lat="43.334599713198045" lon="-0.46220981095026703"><ele>146.57142857142856</ele><time>2026-04-22T14:10:44.001Z</time></trkpt><trkpt lat="43.33454648870282" lon="-0.4622646264070773"><ele>146.71428571428572</ele><time>2026-04-22T14:10:45.001Z</time></trkpt><trkpt lat="43.334496725358036" lon="-0.462320598471995"><ele>146.85714285714286</ele><time>2026-04-22T14:10:46.001Z</time></trkpt><trkpt lat="43.33444675078475" lon="-0.4623795272893991"><ele>147.0</ele><time>2026-04-22T14:10:47.001Z</time></trkpt><trkpt lat="43.33439653914195" lon="-0.46243382188021726"><ele>147.0</ele><time>2026-04-22T14:10:48.001Z</time></trkpt><trkpt lat="43.33434512327279" lon="-0.4624941965715447"><ele>147.0</ele><time>2026-04-22T14:10:49.001Z</time></trkpt><trkpt lat="43.334295660786744" lon="-0.4625489534079336"><ele>147.0</ele><time>2026-04-22T14:10:50.001Z</time></trkpt><trkpt lat="43.33424447077544" lon="-0.4626008004436324"><ele>147.0</ele><time>2026-04-22T14:10:51.001Z</time></trkpt><trkpt lat="43.334150457020144" lon="-0.46271236519562386"><ele>147.0</ele><time>2026-04-22T14:10:53.001Z</time></trkpt><trkpt lat="43.334059102413605" lon="-0.46282725368741384"><ele>147.0</ele><time>2026-04-22T14:10:55.001Z</time></trkpt><trkpt lat="43.33396475916309" lon="-0.46293810748327696"><ele>147.5</ele><time>2026-04-22T14:10:57.001Z</time></trkpt><trkpt lat="43.33387397524056" lon="-0.46304646652915255"><ele>148.0</ele><time>2026-04-22T14:10:59.001Z</time></trkpt><trkpt lat="43.33378434248041" lon="-0.46314783750337707"><ele>148.5</ele><time>2026-04-22T14:11:01.001Z</time></trkpt><trkpt lat="43.33369287497883" lon="-0.46325506185908844"><ele>149.0</ele><time>2026-04-22T14:11:03.001Z</time></trkpt><trkpt lat="43.33359935539839" lon="-0.4633635081835697"><ele>149.0</ele><time>2026-04-22T14:11:05.001Z</time></trkpt><trkpt lat="43.33350753956422" lon="-0.4634772905751446"><ele>149.0</ele><time>2026-04-22T14:11:07.001Z</time></trkpt><trkpt lat="43.333412954630866" lon="-0.46358667730798886"><ele>149.0</ele><time>2026-04-22T14:11:09.001Z</time></trkpt><trkpt lat="43.33332124463107" lon="-0.4636995873998195"><ele>149.0</ele><time>2026-04-22T14:11:11.001Z</time></trkpt><trkpt lat="43.33322964869811" lon="-0.46381048593343405"><ele>149.0</ele><time>2026-04-22T14:11:13.001Z</time></trkpt><trkpt lat="43.33313885516752" lon="-0.46391914375895515"><ele>149.0</ele><time>2026-04-22T14:11:15.001Z</time></trkpt><trkpt lat="43.33308920527029" lon="-0.4639740280689614"><ele>149.0</ele><time>2026-04-22T14:11:16.001Z</time></trkpt><trkpt lat="43.332990363192465" lon="-0.4640793048128588"><ele>149.0</ele><time>2026-04-22T14:11:18.001Z</time></trkpt><trkpt lat="43.33294323449486" lon="-0.4641374921558627"><ele>149.0</ele><time>2026-04-22T14:11:19.001Z</time></trkpt><trkpt lat="43.332847484659794" lon="-0.46424055114538165"><ele>148.85714285714286</ele><time>2026-04-22T14:11:21.001Z</time></trkpt><trkpt lat="43.33274682361657" lon="-0.46434317481349374"><ele>148.7142857142857</ele><time>2026-04-22T14:11:23.002Z</time></trkpt><trkpt lat="43.33269386656322" lon="-0.4643948740011423"><ele>148.57142857142856</ele><time>2026-04-22T14:11:24.002Z</time></trkpt><trkpt lat="43.33264096559321" lon="-0.4644420113577179"><ele>148.42857142857142</ele><time>2026-04-22T14:11:25.002Z</time></trkpt><trkpt lat="43.332586330768116" lon="-0.4644882111660697"><ele>148.28571428571428</ele><time>2026-04-22T14:11:26.002Z</time></trkpt><trkpt lat="43.33253153040469" lon="-0.46453175892900284"><ele>148.14285714285714</ele><time>2026-04-22T14:11:27.002Z</time></trkpt><trkpt lat="43.33247662662842" lon="-0.4645745233637154"><ele>148.0</ele><time>2026-04-22T14:11:28.002Z</time></trkpt><trkpt lat="43.332420608916415" lon="-0.4646192143919823"><ele>148.0</ele><time>2026-04-22T14:11:29.002Z</time></trkpt><trkpt lat="43.33231265252632" lon="-0.4647034512597197"><ele>148.0</ele><time>2026-04-22T14:11:31.002Z</time></trkpt><trkpt lat="43.33220109160321" lon="-0.46478252897583916"><ele>148.0</ele><time>2026-04-22T14:11:33.002Z</time></trkpt><trkpt lat="43.3320931225423" lon="-0.46486623837289465"><ele>148.0</ele><time>2026-04-22T14:11:35.002Z</time></trkpt><trkpt lat="43.331980611324674" lon="-0.46493978709072553"><ele>147.66666666666669</ele><time>2026-04-22T14:11:37.002Z</time></trkpt><trkpt lat="43.33192414252903" lon="-0.4649868880657667"><ele>147.33333333333334</ele><time>2026-04-22T14:11:38.002Z</time></trkpt><trkpt lat="43.33181093505424" lon="-0.4650751755033512"><ele>147.0</ele><time>2026-04-22T14:11:40.002Z</time></trkpt><trkpt lat="43.331755225797906" lon="-0.46511781236457733"><ele>146.66666666666666</ele><time>2026-04-22T14:11:41.002Z</time></trkpt><trkpt lat="43.33169555571396" lon="-0.4651589097768107"><ele>146.33333333333331</ele><time>2026-04-22T14:11:42.002Z</time></trkpt><trkpt lat="43.331639074222096" lon="-0.46520317564251984"><ele>146.0</ele><time>2026-04-22T14:11:43.002Z</time></trkpt><trkpt lat="43.331580083977514" lon="-0.4652483671023746"><ele>146.0</ele><time>2026-04-22T14:11:44.002Z</time></trkpt><trkpt lat="43.331520198787125" lon="-0.46529139111506973"><ele>146.0</ele><time>2026-04-22T14:11:45.002Z</time></trkpt><trkpt lat="43.33146097627846" lon="-0.4653381317043289"><ele>146.0</ele><time>2026-04-22T14:11:46.002Z</time></trkpt><trkpt lat="43.33139970525356" lon="-0.4653829938126143"><ele>146.0</ele><time>2026-04-22T14:11:47.002Z</time></trkpt><trkpt lat="43.33133894756416" lon="-0.46542999018352643"><ele>146.0</ele><time>2026-04-22T14:11:48.002Z</time></trkpt><trkpt lat="43.331278244739366" lon="-0.4654768286826378"><ele>146.0</ele><time>2026-04-22T14:11:49.002Z</time></trkpt><trkpt lat="43.33121611256153" lon="-0.4655254006302328"><ele>146.0</ele><time>2026-04-22T14:11:50.002Z</time></trkpt><trkpt lat="43.33115024799585" lon="-0.4655710753289159"><ele>146.28571428571428</ele><time>2026-04-22T14:11:51.002Z</time></trkpt><trkpt lat="43.33108711647577" lon="-0.46561458693168617"><ele>146.57142857142858</ele><time>2026-04-22T14:11:52.002Z</time></trkpt><trkpt lat="43.33102415500869" lon="-0.46566294536658276"><ele>146.85714285714286</ele><time>2026-04-22T14:11:53.002Z</time></trkpt><trkpt lat="43.33096303624737" lon="-0.46571220431946464"><ele>147.14285714285714</ele><time>2026-04-22T14:11:54.002Z</time></trkpt><trkpt lat="43.33089931466882" lon="-0.4657627255087494"><ele>147.42857142857142</ele><time>2026-04-22T14:11:55.002Z</time></trkpt><trkpt lat="43.33083498730685" lon="-0.4658076776618394"><ele>147.71428571428572</ele><time>2026-04-22T14:11:56.002Z</time></trkpt><trkpt lat="43.330769812053305" lon="-0.46585201917279084"><ele>148.0</ele><time>2026-04-22T14:11:57Z</time></trkpt><trkpt lat="43.330703310472224" lon="-0.46589974419918345"><ele>148.0</ele><time>2026-04-22T14:11:58Z</time></trkpt><trkpt lat="43.330639143392666" lon="-0.46594845106676785"><ele>148.0</ele><time>2026-04-22T14:11:59Z</time></trkpt><trkpt lat="43.330574394903785" lon="-0.4660005434580544"><ele>148.0</ele><time>2026-04-22T14:12:00Z</time></trkpt><trkpt lat="43.33050988765458" lon="-0.4660544609687559"><ele>148.0</ele><time>2026-04-22T14:12:01Z</time></trkpt><trkpt lat="43.33044371360558" lon="-0.4661065964844181"><ele>148.0</ele><time>2026-04-22T14:12:02Z</time></trkpt><trkpt lat="43.330378771194844" lon="-0.4661587372660304"><ele>148.0</ele><time>2026-04-22T14:12:03Z</time></trkpt><trkpt lat="43.330315303100974" lon="-0.46621736488719434"><ele>148.16666666666669</ele><time>2026-04-22T14:12:04Z</time></trkpt><trkpt lat="43.33025410605659" lon="-0.466278020790788"><ele>148.33333333333334</ele><time>2026-04-22T14:12:05Z</time></trkpt><trkpt lat="43.33019505494977" lon="-0.46634031863277786"><ele>148.5</ele><time>2026-04-22T14:12:06Z</time></trkpt><trkpt lat="43.33013483208926" lon="-0.4664002119080019"><ele>148.66666666666666</ele><time>2026-04-22T14:12:07Z</time></trkpt><trkpt lat="43.33007400535991" lon="-0.46646285405844645"><ele>148.83333333333331</ele><time>2026-04-22T14:12:08Z</time></trkpt><trkpt lat="43.3300158022947" lon="-0.4665279428959582"><ele>149.0</ele><time>2026-04-22T14:12:09Z</time></trkpt><trkpt lat="43.329953954928726" lon="-0.4665935060717279"><ele>149.0</ele><time>2026-04-22T14:12:10Z</time></trkpt><trkpt lat="43.32989149537787" lon="-0.4666525941783212"><ele>149.0</ele><time>2026-04-22T14:12:11Z</time></trkpt><trkpt lat="43.32982822647489" lon="-0.46671915892397087"><ele>149.0</ele><time>2026-04-22T14:12:12Z</time></trkpt><trkpt lat="43.329769238019054" lon="-0.46678778404243587"><ele>149.0</ele><time>2026-04-22T14:12:13Z</time></trkpt><trkpt lat="43.32971192122204" lon="-0.46685616134672697"><ele>149.0</ele><time>2026-04-22T14:12:14Z</time></trkpt><trkpt lat="43.32965570062657" lon="-0.46692181415529993"><ele>149.0</ele><time>2026-04-22T14:12:15Z</time></trkpt><trkpt lat="43.329590038260314" lon="-0.46698700521669106"><ele>149.28571428571428</ele><time>2026-04-22T14:12:16Z</time></trkpt><trkpt lat="43.329532369607904" lon="-0.4670478925973448"><ele>149.57142857142856</ele><time>2026-04-22T14:12:17Z</time></trkpt><trkpt lat="43.32947116186643" lon="-0.4671137847261986"><ele>149.85714285714286</ele><time>2026-04-22T14:12:18Z</time></trkpt><trkpt lat="43.32940931909546" lon="-0.4671760492779213"><ele>150.14285714285714</ele><time>2026-04-22T14:12:19Z</time></trkpt><trkpt lat="43.32935571899324" lon="-0.4672391815673007"><ele>150.42857142857144</ele><time>2026-04-22T14:12:20Z</time></trkpt><trkpt lat="43.32929934539119" lon="-0.4673006720580897"><ele>150.71428571428572</ele><time>2026-04-22T14:12:21Z</time></trkpt><trkpt lat="43.32923995966426" lon="-0.4673669223929839"><ele>151.0</ele><time>2026-04-22T14:12:22Z</time></trkpt><trkpt lat="43.329183444993035" lon="-0.4674365590394284"><ele>151.0</ele><time>2026-04-22T14:12:23Z</time></trkpt><trkpt lat="43.329124478046324" lon="-0.4674995958231486"><ele>151.0</ele><time>2026-04-22T14:12:24Z</time></trkpt><trkpt lat="43.329060736101546" lon="-0.4675612197386802"><ele>151.0</ele><time>2026-04-22T14:12:25Z</time></trkpt><trkpt lat="43.32900328841439" lon="-0.4676235741792267"><ele>151.0</ele><time>2026-04-22T14:12:26Z</time></trkpt><trkpt lat="43.32894474722845" lon="-0.46768928105940777"><ele>151.0</ele><time>2026-04-22T14:12:27Z</time></trkpt><trkpt lat="43.3288850767621" lon="-0.4677533085935302"><ele>151.0</ele><time>2026-04-22T14:12:28Z</time></trkpt><trkpt lat="43.32882545503497" lon="-0.4678197263500509"><ele>150.85714285714286</ele><time>2026-04-22T14:12:29Z</time></trkpt><trkpt lat="43.32876754285038" lon="-0.4678828728155553"><ele>150.71428571428572</ele><time>2026-04-22T14:12:30Z</time></trkpt><trkpt lat="43.328704960414036" lon="-0.46794172997698696"><ele>150.57142857142856</ele><time>2026-04-22T14:12:31.001Z</time></trkpt><trkpt lat="43.328651893409855" lon="-0.46800892300521263"><ele>150.42857142857144</ele><time>2026-04-22T14:12:32.001Z</time></trkpt><trkpt lat="43.32859486515184" lon="-0.46808455975558927"><ele>150.28571428571428</ele><time>2026-04-22T14:12:33.001Z</time></trkpt><trkpt lat="43.32853138883367" lon="-0.4681424133768541"><ele>150.14285714285714</ele><time>2026-04-22T14:12:34.001Z</time></trkpt><trkpt lat="43.328478546085115" lon="-0.468194321758842"><ele>150.0</ele><time>2026-04-22T14:12:35.001Z</time></trkpt><trkpt lat="43.32842492185887" lon="-0.4682534558995347"><ele>149.99999999999997</ele><time>2026-04-22T14:12:36.001Z</time></trkpt><trkpt lat="43.328364926085214" lon="-0.46831799832009274"><ele>150.0</ele><time>2026-04-22T14:12:37.001Z</time></trkpt><trkpt lat="43.328308771959314" lon="-0.46837814277870904"><ele>150.0</ele><time>2026-04-22T14:12:38.001Z</time></trkpt><trkpt lat="43.328244957636336" lon="-0.4684170782906931"><ele>150.0</ele><time>2026-04-22T14:12:39.001Z</time></trkpt><trkpt lat="43.32819907468405" lon="-0.468486374319086"><ele>150.0</ele><time>2026-04-22T14:12:40.001Z</time></trkpt><trkpt lat="43.328147525584136" lon="-0.46854815501603997"><ele>149.99999999999997</ele><time>2026-04-22T14:12:41.001Z</time></trkpt><trkpt lat="43.3280859251239" lon="-0.46861100506086106"><ele>150.0</ele><time>2026-04-22T14:12:42.001Z</time></trkpt><trkpt lat="43.32802770022824" lon="-0.46866355785567276"><ele>150.14285714285714</ele><time>2026-04-22T14:12:43.001Z</time></trkpt><trkpt lat="43.32796589879522" lon="-0.4687102809160097"><ele>150.28571428571428</ele><time>2026-04-22T14:12:44.001Z</time></trkpt><trkpt lat="43.32790538046556" lon="-0.46876173882016614"><ele>150.42857142857144</ele><time>2026-04-22T14:12:45.001Z</time></trkpt><trkpt lat="43.327844771422654" lon="-0.4688053007517332"><ele>150.57142857142856</ele><time>2026-04-22T14:12:46.001Z</time></trkpt><trkpt lat="43.3277987170445" lon="-0.46886668917414587"><ele>150.71428571428572</ele><time>2026-04-22T14:12:47.001Z</time></trkpt><trkpt lat="43.32772635622768" lon="-0.4689053599236341"><ele>150.85714285714286</ele><time>2026-04-22T14:12:48.001Z</time></trkpt><trkpt lat="43.32765758526947" lon="-0.4689490195795348"><ele>151.0</ele><time>2026-04-22T14:12:49.001Z</time></trkpt><trkpt lat="43.32758893902992" lon="-0.46898522653661706"><ele>151.00000000000003</ele><time>2026-04-22T14:12:50.001Z</time></trkpt><trkpt lat="43.3275248120901" lon="-0.46902753964169636"><ele>151.0</ele><time>2026-04-22T14:12:51.001Z</time></trkpt><trkpt lat="43.327457238365554" lon="-0.4690642946428166"><ele>151.0</ele><time>2026-04-22T14:12:52.001Z</time></trkpt><trkpt lat="43.327396330050554" lon="-0.4690991562358361"><ele>151.0</ele><time>2026-04-22T14:12:53.001Z</time></trkpt><trkpt lat="43.32733112195277" lon="-0.469145282163385"><ele>151.0</ele><time>2026-04-22T14:12:54.001Z</time></trkpt><trkpt lat="43.32726712137823" lon="-0.46918895125310633"><ele>151.00000000000003</ele><time>2026-04-22T14:12:55.001Z</time></trkpt><trkpt lat="43.32720212681951" lon="-0.4692293123593951"><ele>151.0</ele><time>2026-04-22T14:12:56.001Z</time></trkpt><trkpt lat="43.3271394026973" lon="-0.46927257532698263"><ele>151.00000000000003</ele><time>2026-04-22T14:12:57.001Z</time></trkpt><trkpt lat="43.32708081103074" lon="-0.46931611651149246"><ele>151.0</ele><time>2026-04-22T14:12:58.001Z</time></trkpt><trkpt lat="43.32702136499958" lon="-0.4693629777743592"><ele>151.0</ele><time>2026-04-22T14:12:59.001Z</time></trkpt><trkpt lat="43.32696423405635" lon="-0.4694096537624338"><ele>151.0</ele><time>2026-04-22T14:13:00.001Z</time></trkpt><trkpt lat="43.32690193996044" lon="-0.46945261942151706"><ele>151.0</ele><time>2026-04-22T14:13:01.001Z</time></trkpt><trkpt lat="43.3268400058852" lon="-0.4694908157671274"><ele>151.00000000000003</ele><time>2026-04-22T14:13:02.001Z</time></trkpt><trkpt lat="43.32677993796257" lon="-0.46954158222625836"><ele>151.0</ele><time>2026-04-22T14:13:03.001Z</time></trkpt><trkpt lat="43.32672245977078" lon="-0.46958804696731843"><ele>150.5</ele><time>2026-04-22T14:13:04.001Z</time></trkpt><trkpt lat="43.32666493753906" lon="-0.46963627913246625"><ele>150.0</ele><time>2026-04-22T14:13:05.001Z</time></trkpt><trkpt lat="43.32661249347188" lon="-0.46968738956568157"><ele>149.5</ele><time>2026-04-22T14:13:06.001Z</time></trkpt><trkpt lat="43.32655898052006" lon="-0.46973880785529726"><ele>149.0</ele><time>2026-04-22T14:13:07.001Z</time></trkpt><trkpt lat="43.32647298300795" lon="-0.46983921842680987"><ele>148.5</ele><time>2026-04-22T14:13:09.001Z</time></trkpt><trkpt lat="43.3263967954248" lon="-0.46993657773112807"><ele>148.0</ele><time>2026-04-22T14:13:11.001Z</time></trkpt><trkpt lat="43.32634377917517" lon="-0.4700135853154993"><ele>148.0</ele><time>2026-04-22T14:13:13.001Z</time></trkpt><trkpt lat="43.3263250181539" lon="-0.47014673499451165"><ele>148.0</ele><time>2026-04-22T14:13:15.001Z</time></trkpt><trkpt lat="43.32634932607924" lon="-0.47027466472411633"><ele>148.0</ele><time>2026-04-22T14:13:17.001Z</time></trkpt><trkpt lat="43.32634174610867" lon="-0.47041952772490003"><ele>148.0</ele><time>2026-04-22T14:13:19.001Z</time></trkpt><trkpt lat="43.32629095726304" lon="-0.4705597003774157"><ele>148.0</ele><time>2026-04-22T14:13:21.001Z</time></trkpt><trkpt lat="43.326247627538514" lon="-0.47069849241404776"><ele>148.0</ele><time>2026-04-22T14:13:23.001Z</time></trkpt><trkpt lat="43.32626414734634" lon="-0.47079010500473845"><ele>148.0</ele><time>2026-04-22T14:13:24.001Z</time></trkpt><trkpt lat="43.326290171999666" lon="-0.4708737766325549"><ele>148.0</ele><time>2026-04-22T14:13:25.001Z</time></trkpt><trkpt lat="43.32632406668492" lon="-0.470948426954402"><ele>148.0</ele><time>2026-04-22T14:13:26.001Z</time></trkpt><trkpt lat="43.3263608164943" lon="-0.47102620769076375"><ele>148.0</ele><time>2026-04-22T14:13:27.001Z</time></trkpt><trkpt lat="43.326423821167204" lon="-0.4711919532670188"><ele>148.0</ele><time>2026-04-22T14:13:29.001Z</time></trkpt><trkpt lat="43.32645153564429" lon="-0.47128484402351084"><ele>147.83333333333334</ele><time>2026-04-22T14:13:30.001Z</time></trkpt><trkpt lat="43.32648945660898" lon="-0.4713770861962053"><ele>147.66666666666669</ele><time>2026-04-22T14:13:31.001Z</time></trkpt><trkpt lat="43.32651982326985" lon="-0.47145350770893013"><ele>147.5</ele><time>2026-04-22T14:13:32.001Z</time></trkpt><trkpt lat="43.326560317837185" lon="-0.47156819439359704"><ele>147.33333333333334</ele><time>2026-04-22T14:13:33.001Z</time></trkpt><trkpt lat="43.326601169864055" lon="-0.47165858989859294"><ele>147.16666666666666</ele><time>2026-04-22T14:13:34.001Z</time></trkpt><trkpt lat="43.326643811684185" lon="-0.4717569439204286"><ele>147.0</ele><time>2026-04-22T14:13:35.001Z</time></trkpt><trkpt lat="43.32668991422046" lon="-0.4718454434147317"><ele>147.0</ele><time>2026-04-22T14:13:36.002Z</time></trkpt><trkpt lat="43.3267348176071" lon="-0.47193524211937343"><ele>147.0</ele><time>2026-04-22T14:13:37.002Z</time></trkpt><trkpt lat="43.32677576850996" lon="-0.47202083272946416"><ele>147.0</ele><time>2026-04-22T14:13:38.002Z</time></trkpt><trkpt lat="43.326817287900205" lon="-0.47210445801131157"><ele>147.0</ele><time>2026-04-22T14:13:39.002Z</time></trkpt><trkpt lat="43.32685772683258" lon="-0.4721897198810292"><ele>147.0</ele><time>2026-04-22T14:13:40.002Z</time></trkpt><trkpt lat="43.32689701266467" lon="-0.4722764376734471"><ele>147.0</ele><time>2026-04-22T14:13:41.002Z</time></trkpt><trkpt lat="43.32693525990786" lon="-0.4723631793457291"><ele>146.71428571428572</ele><time>2026-04-22T14:13:42.002Z</time></trkpt><trkpt lat="43.32697521298693" lon="-0.4724455395855203"><ele>146.42857142857144</ele><time>2026-04-22T14:13:43.002Z</time></trkpt><trkpt lat="43.3270097538162" lon="-0.47252876068592803"><ele>146.14285714285714</ele><time>2026-04-22T14:13:44.002Z</time></trkpt><trkpt lat="43.3270410337954" lon="-0.4726138015707613"><ele>145.85714285714286</ele><time>2026-04-22T14:13:45.002Z</time></trkpt><trkpt lat="43.32707324585944" lon="-0.4727013097574091"><ele>145.57142857142858</ele><time>2026-04-22T14:13:46.002Z</time></trkpt><trkpt lat="43.327108568590106" lon="-0.47279035576744705"><ele>145.28571428571428</ele><time>2026-04-22T14:13:47.002Z</time></trkpt><trkpt lat="43.327145902826274" lon="-0.4728728519736343"><ele>145.0</ele><time>2026-04-22T14:13:48.002Z</time></trkpt><trkpt lat="43.32717761237001" lon="-0.47296334953066854"><ele>144.85714285714286</ele><time>2026-04-22T14:13:49.002Z</time></trkpt><trkpt lat="43.32720536609638" lon="-0.47305420374692464"><ele>144.71428571428572</ele><time>2026-04-22T14:13:50.002Z</time></trkpt><trkpt lat="43.32723645846677" lon="-0.47314320565734147"><ele>144.57142857142858</ele><time>2026-04-22T14:13:51.002Z</time></trkpt><trkpt lat="43.32726674730352" lon="-0.47323215753357983"><ele>144.42857142857144</ele><time>2026-04-22T14:13:52.002Z</time></trkpt><trkpt lat="43.3273030377129" lon="-0.473313121632747"><ele>144.28571428571428</ele><time>2026-04-22T14:13:53.002Z</time></trkpt><trkpt lat="43.32733346745198" lon="-0.47340481224756675"><ele>144.14285714285717</ele><time>2026-04-22T14:13:54.002Z</time></trkpt><trkpt lat="43.32736431703187" lon="-0.4734920168870352"><ele>144.0</ele><time>2026-04-22T14:13:55.002Z</time></trkpt><trkpt lat="43.32739399276606" lon="-0.4735814898586785"><ele>144.33333333333334</ele><time>2026-04-22T14:13:56.002Z</time></trkpt><trkpt lat="43.32742276340086" lon="-0.47367094703781243"><ele>144.66666666666666</ele><time>2026-04-22T14:13:57.002Z</time></trkpt><trkpt lat="43.327452439869724" lon="-0.4737653596915201"><ele>145.0</ele><time>2026-04-22T14:13:58.002Z</time></trkpt><trkpt lat="43.32750740284348" lon="-0.473925722040267"><ele>145.33333333333331</ele><time>2026-04-22T14:14:00.002Z</time></trkpt><trkpt lat="43.32754009914459" lon="-0.4740095403009545"><ele>145.66666666666666</ele><time>2026-04-22T14:14:01.002Z</time></trkpt><trkpt lat="43.32757101690733" lon="-0.4740967577277267"><ele>146.0</ele><time>2026-04-22T14:14:02.002Z</time></trkpt><trkpt lat="43.32763156409306" lon="-0.47426037327433324"><ele>146.0</ele><time>2026-04-22T14:14:04Z</time></trkpt><trkpt lat="43.32766020729113" lon="-0.4743440195839612"><ele>146.0</ele><time>2026-04-22T14:14:05Z</time></trkpt><trkpt lat="43.32769107361779" lon="-0.47443172127238487"><ele>146.0</ele><time>2026-04-22T14:14:06Z</time></trkpt><trkpt lat="43.32772308651745" lon="-0.47451466006425297"><ele>146.0</ele><time>2026-04-22T14:14:07Z</time></trkpt><trkpt lat="43.32775009408663" lon="-0.4746045650714668"><ele>146.0</ele><time>2026-04-22T14:14:08Z</time></trkpt><trkpt lat="43.32778029459703" lon="-0.4746929557195699"><ele>146.0</ele><time>2026-04-22T14:14:09Z</time></trkpt><trkpt lat="43.32781222467005" lon="-0.4747795173069627"><ele>146.0</ele><time>2026-04-22T14:14:10Z</time></trkpt><trkpt lat="43.327843729523984" lon="-0.47486796721296726"><ele>146.0</ele><time>2026-04-22T14:14:11Z</time></trkpt><trkpt lat="43.32787497543876" lon="-0.47495663745699984"><ele>146.0</ele><time>2026-04-22T14:14:12Z</time></trkpt><trkpt lat="43.32790609764223" lon="-0.4750462648521634"><ele>146.0</ele><time>2026-04-22T14:14:13Z</time></trkpt><trkpt lat="43.32793580745646" lon="-0.47513647693129574"><ele>146.0</ele><time>2026-04-22T14:14:14Z</time></trkpt><trkpt lat="43.32796676051304" lon="-0.475232735840902"><ele>146.0</ele><time>2026-04-22T14:14:15Z</time></trkpt><trkpt lat="43.328003425803146" lon="-0.47531967701966743"><ele>146.0</ele><time>2026-04-22T14:14:16Z</time></trkpt><trkpt lat="43.328039847843634" lon="-0.4754113847357013"><ele>146.0</ele><time>2026-04-22T14:14:17Z</time></trkpt><trkpt lat="43.328072212189674" lon="-0.47550508966023824"><ele>146.0</ele><time>2026-04-22T14:14:18Z</time></trkpt><trkpt lat="43.32809908156876" lon="-0.4756038647867623"><ele>146.0</ele><time>2026-04-22T14:14:19Z</time></trkpt><trkpt lat="43.32813277386718" lon="-0.4756986003075332"><ele>146.0</ele><time>2026-04-22T14:14:20Z</time></trkpt><trkpt lat="43.32817057875672" lon="-0.47578866164310285"><ele>146.0</ele><time>2026-04-22T14:14:21Z</time></trkpt><trkpt lat="43.328205299190586" lon="-0.4758788219575186"><ele>146.0</ele><time>2026-04-22T14:14:22Z</time></trkpt><trkpt lat="43.3282368059722" lon="-0.4759716413595562"><ele>146.0</ele><time>2026-04-22T14:14:23Z</time></trkpt><trkpt lat="43.328267055314946" lon="-0.47606482667717903"><ele>146.0</ele><time>2026-04-22T14:14:24Z</time></trkpt><trkpt lat="43.328299332968854" lon="-0.4761596489181044"><ele>146.0</ele><time>2026-04-22T14:14:25Z</time></trkpt><trkpt lat="43.32833446711502" lon="-0.47624900387567376"><ele>146.0</ele><time>2026-04-22T14:14:26Z</time></trkpt><trkpt lat="43.328365653464296" lon="-0.476340222207262"><ele>146.0</ele><time>2026-04-22T14:14:27Z</time></trkpt><trkpt lat="43.328395740072004" lon="-0.47643002457348865"><ele>146.0</ele><time>2026-04-22T14:14:28Z</time></trkpt><trkpt lat="43.328427344938476" lon="-0.4765214629667408"><ele>146.0</ele><time>2026-04-22T14:14:29Z</time></trkpt><trkpt lat="43.32845676602299" lon="-0.47661277823998816"><ele>146.0</ele><time>2026-04-22T14:14:30Z</time></trkpt><trkpt lat="43.32848965151844" lon="-0.47670021254171463"><ele>146.0</ele><time>2026-04-22T14:14:31Z</time></trkpt><trkpt lat="43.32852450503136" lon="-0.47678491560820013"><ele>146.0</ele><time>2026-04-22T14:14:32Z</time></trkpt><trkpt lat="43.32855831407471" lon="-0.4768751128879539"><ele>146.0</ele><time>2026-04-22T14:14:33Z</time></trkpt><trkpt lat="43.32858975439609" lon="-0.47696918758139034"><ele>146.0</ele><time>2026-04-22T14:14:34Z</time></trkpt><trkpt lat="43.32862245414761" lon="-0.4770630267841662"><ele>146.0</ele><time>2026-04-22T14:14:35Z</time></trkpt><trkpt lat="43.32865361639855" lon="-0.4771551559240205"><ele>146.0</ele><time>2026-04-22T14:14:36Z</time></trkpt><trkpt lat="43.32868311402732" lon="-0.4772412798402241"><ele>146.0</ele><time>2026-04-22T14:14:37Z</time></trkpt><trkpt lat="43.328713969412235" lon="-0.4773372646069195"><ele>146.0</ele><time>2026-04-22T14:14:38Z</time></trkpt><trkpt lat="43.328725544653956" lon="-0.4774453388790803"><ele>146.0</ele><time>2026-04-22T14:14:39Z</time></trkpt><trkpt lat="43.32876645814984" lon="-0.47752360287247986"><ele>146.0</ele><time>2026-04-22T14:14:40Z</time></trkpt><trkpt lat="43.32879153525109" lon="-0.47761546136100846"><ele>146.0</ele><time>2026-04-22T14:14:41Z</time></trkpt><trkpt lat="43.328827105472" lon="-0.47769941458865817"><ele>146.0</ele><time>2026-04-22T14:14:42.001Z</time></trkpt><trkpt lat="43.32886284660403" lon="-0.47777783543621477"><ele>146.0</ele><time>2026-04-22T14:14:43.001Z</time></trkpt><trkpt lat="43.328892895528085" lon="-0.4778607059617796"><ele>146.0</ele><time>2026-04-22T14:14:44.001Z</time></trkpt><trkpt lat="43.32894909880673" lon="-0.4780226537259672"><ele>146.0</ele><time>2026-04-22T14:14:46.001Z</time></trkpt><trkpt lat="43.328979558258325" lon="-0.4781035432944412"><ele>146.0</ele><time>2026-04-22T14:14:47.001Z</time></trkpt><trkpt lat="43.32900895387048" lon="-0.47819638473231096"><ele>146.0</ele><time>2026-04-22T14:14:48.001Z</time></trkpt><trkpt lat="43.32904176888475" lon="-0.47827709223832543"><ele>146.0</ele><time>2026-04-22T14:14:49.001Z</time></trkpt><trkpt lat="43.329098604830044" lon="-0.47843349621643555"><ele>146.0</ele><time>2026-04-22T14:14:51.001Z</time></trkpt><trkpt lat="43.32912963481906" lon="-0.47851758240201714"><ele>146.0</ele><time>2026-04-22T14:14:52.001Z</time></trkpt><trkpt lat="43.32915530696325" lon="-0.478598047699337"><ele>146.0</ele><time>2026-04-22T14:14:53.001Z</time></trkpt><trkpt lat="43.32920583891978" lon="-0.4787562013941337"><ele>146.0</ele><time>2026-04-22T14:14:55.001Z</time></trkpt><trkpt lat="43.329233710664724" lon="-0.4788348306047645"><ele>146.0</ele><time>2026-04-22T14:14:56.001Z</time></trkpt><trkpt lat="43.32929021974252" lon="-0.47898771292519876"><ele>146.0</ele><time>2026-04-22T14:14:58.001Z</time></trkpt><trkpt lat="43.329348202906644" lon="-0.47913749636168296"><ele>146.0</ele><time>2026-04-22T14:15:00.001Z</time></trkpt><trkpt lat="43.3293738980285" lon="-0.47921880593787586"><ele>145.8</ele><time>2026-04-22T14:15:01.001Z</time></trkpt><trkpt lat="43.32942916595307" lon="-0.4793776475682267"><ele>145.6</ele><time>2026-04-22T14:15:03.001Z</time></trkpt><trkpt lat="43.3294880743751" lon="-0.4795306794654027"><ele>145.4</ele><time>2026-04-22T14:15:05.001Z</time></trkpt><trkpt lat="43.32951467223481" lon="-0.47961272722571646"><ele>145.2</ele><time>2026-04-22T14:15:06.001Z</time></trkpt><trkpt lat="43.329566797462256" lon="-0.4797665531495254"><ele>145.0</ele><time>2026-04-22T14:15:08.001Z</time></trkpt><trkpt lat="43.32962061596339" lon="-0.47991587354700344"><ele>145.0</ele><time>2026-04-22T14:15:10.001Z</time></trkpt><trkpt lat="43.32967291314832" lon="-0.4800622683195301"><ele>145.0</ele><time>2026-04-22T14:15:12.001Z</time></trkpt><trkpt lat="43.329722740643554" lon="-0.480208919136249"><ele>145.0</ele><time>2026-04-22T14:15:14.001Z</time></trkpt><trkpt lat="43.32977317863165" lon="-0.4803565927839051"><ele>145.0</ele><time>2026-04-22T14:15:16.001Z</time></trkpt><trkpt lat="43.32982000154666" lon="-0.48050193672002467"><ele>144.5</ele><time>2026-04-22T14:15:18.001Z</time></trkpt><trkpt lat="43.3298618216973" lon="-0.4806491975103202"><ele>144.0</ele><time>2026-04-22T14:15:20.001Z</time></trkpt><trkpt lat="43.32990916913393" lon="-0.4807994277105711"><ele>143.5</ele><time>2026-04-22T14:15:22.001Z</time></trkpt><trkpt lat="43.329954500446284" lon="-0.48095335445683357"><ele>143.0</ele><time>2026-04-22T14:15:24.001Z</time></trkpt><trkpt lat="43.32999986873039" lon="-0.48111312167454795"><ele>142.99999999999997</ele><time>2026-04-22T14:15:26.001Z</time></trkpt><trkpt lat="43.33002243506726" lon="-0.48119413810401707"><ele>143.0</ele><time>2026-04-22T14:15:27.001Z</time></trkpt><trkpt lat="43.33004435785607" lon="-0.48127717836625794"><ele>143.0</ele><time>2026-04-22T14:15:28.001Z</time></trkpt><trkpt lat="43.330066509558506" lon="-0.48136292691188803"><ele>143.0</ele><time>2026-04-22T14:15:29.001Z</time></trkpt><trkpt lat="43.33008632466274" lon="-0.4814506079932495"><ele>143.0</ele><time>2026-04-22T14:15:30.001Z</time></trkpt><trkpt lat="43.33011011505042" lon="-0.48153514921938556"><ele>142.99999999999997</ele><time>2026-04-22T14:15:31.001Z</time></trkpt><trkpt lat="43.330136764887875" lon="-0.4816186875197548"><ele>143.0</ele><time>2026-04-22T14:15:32.001Z</time></trkpt><trkpt lat="43.330160719023326" lon="-0.48170534484116356"><ele>142.99999999999997</ele><time>2026-04-22T14:15:33.001Z</time></trkpt><trkpt lat="43.330181852054984" lon="-0.48179160477568544"><ele>143.0</ele><time>2026-04-22T14:15:34.001Z</time></trkpt><trkpt lat="43.33020259083159" lon="-0.4818818641823595"><ele>143.0</ele><time>2026-04-22T14:15:35.001Z</time></trkpt><trkpt lat="43.3302269185134" lon="-0.48196994937237303"><ele>143.0</ele><time>2026-04-22T14:15:36.001Z</time></trkpt><trkpt lat="43.33025229100245" lon="-0.48205623265014447"><ele>143.0</ele><time>2026-04-22T14:15:37.001Z</time></trkpt><trkpt lat="43.330275539489676" lon="-0.4821436405625086"><ele>142.99999999999997</ele><time>2026-04-22T14:15:38.001Z</time></trkpt><trkpt lat="43.330301837303224" lon="-0.4822293804449471"><ele>143.0</ele><time>2026-04-22T14:15:39.001Z</time></trkpt><trkpt lat="43.33032736748769" lon="-0.48232280399287214"><ele>142.99999999999997</ele><time>2026-04-22T14:15:40.001Z</time></trkpt><trkpt lat="43.33034834283435" lon="-0.4824114626962705"><ele>143.0</ele><time>2026-04-22T14:15:41.001Z</time></trkpt><trkpt lat="43.330369828965416" lon="-0.48249617532090355"><ele>143.0</ele><time>2026-04-22T14:15:42.001Z</time></trkpt><trkpt lat="43.33039403617219" lon="-0.4825832382175652"><ele>143.0</ele><time>2026-04-22T14:15:43.001Z</time></trkpt><trkpt lat="43.33041761868346" lon="-0.48267444817846245"><ele>143.0</ele><time>2026-04-22T14:15:44.001Z</time></trkpt><trkpt lat="43.330437161106694" lon="-0.4827657037771144"><ele>142.99999999999997</ele><time>2026-04-22T14:15:45.001Z</time></trkpt><trkpt lat="43.33045819509273" lon="-0.4828573196388623"><ele>143.0</ele><time>2026-04-22T14:15:46.001Z</time></trkpt><trkpt lat="43.3304793051584" lon="-0.4829455029370494"><ele>142.99999999999997</ele><time>2026-04-22T14:15:47.001Z</time></trkpt><trkpt lat="43.33050166215705" lon="-0.4830308523655757"><ele>143.0</ele><time>2026-04-22T14:15:48.002Z</time></trkpt><trkpt lat="43.33052547000255" lon="-0.48311825403567543"><ele>143.0</ele><time>2026-04-22T14:15:49.002Z</time></trkpt><trkpt lat="43.33054844486402" lon="-0.4832061976025229"><ele>143.0</ele><time>2026-04-22T14:15:50.002Z</time></trkpt><trkpt lat="43.33057405791442" lon="-0.4832938529636351"><ele>143.0</ele><time>2026-04-22T14:15:51.002Z</time></trkpt><trkpt lat="43.33059502463037" lon="-0.48339192208573256"><ele>142.99999999999997</ele><time>2026-04-22T14:15:52.002Z</time></trkpt><trkpt lat="43.33062029719144" lon="-0.48347947020406723"><ele>143.0</ele><time>2026-04-22T14:15:53.002Z</time></trkpt><trkpt lat="43.33064348511201" lon="-0.48356538383754644"><ele>143.0</ele><time>2026-04-22T14:15:54.002Z</time></trkpt><trkpt lat="43.33066803449333" lon="-0.4836607176967409"><ele>143.0</ele><time>2026-04-22T14:15:55.002Z</time></trkpt><trkpt lat="43.33068970516583" lon="-0.48375967164646216"><ele>143.0</ele><time>2026-04-22T14:15:56.002Z</time></trkpt><trkpt lat="43.3307134222684" lon="-0.4838480668971924"><ele>143.0</ele><time>2026-04-22T14:15:57.002Z</time></trkpt><trkpt lat="43.33075492032659" lon="-0.4840284162302959"><ele>143.0</ele><time>2026-04-22T14:15:59.002Z</time></trkpt><trkpt lat="43.33078307219359" lon="-0.484121763538764"><ele>143.0</ele><time>2026-04-22T14:16:00.002Z</time></trkpt><trkpt lat="43.33080596396788" lon="-0.4842195068953461"><ele>142.99999999999997</ele><time>2026-04-22T14:16:01.002Z</time></trkpt><trkpt lat="43.33083279324796" lon="-0.48431265748527336"><ele>143.0</ele><time>2026-04-22T14:16:02.002Z</time></trkpt><trkpt lat="43.33085427797781" lon="-0.4844038006603537"><ele>143.0</ele><time>2026-04-22T14:16:03.002Z</time></trkpt><trkpt lat="43.33086611301033" lon="-0.4844935459824178"><ele>143.0</ele><time>2026-04-22T14:16:04.002Z</time></trkpt><trkpt lat="43.33089224529962" lon="-0.48458235737895194"><ele>143.0</ele><time>2026-04-22T14:16:05.002Z</time></trkpt><trkpt lat="43.330918218781775" lon="-0.48467623575804547"><ele>142.99999999999997</ele><time>2026-04-22T14:16:06.002Z</time></trkpt><trkpt lat="43.330939886176715" lon="-0.48476474824535465"><ele>143.0</ele><time>2026-04-22T14:16:07.002Z</time></trkpt><trkpt lat="43.3309650306175" lon="-0.48485440617026365"><ele>143.16666666666666</ele><time>2026-04-22T14:16:08.002Z</time></trkpt><trkpt lat="43.33098662095078" lon="-0.48494899472228475"><ele>143.33333333333331</ele><time>2026-04-22T14:16:09Z</time></trkpt><trkpt lat="43.33103691263718" lon="-0.4851115661810539"><ele>143.5</ele><time>2026-04-22T14:16:11Z</time></trkpt><trkpt lat="43.33105869759865" lon="-0.485205155088958"><ele>143.66666666666666</ele><time>2026-04-22T14:16:12Z</time></trkpt><trkpt lat="43.33109101896926" lon="-0.485280659687285"><ele>143.83333333333334</ele><time>2026-04-22T14:16:13Z</time></trkpt><trkpt lat="43.33110640745652" lon="-0.4853790512144268"><ele>144.0</ele><time>2026-04-22T14:16:14Z</time></trkpt><trkpt lat="43.331130011802976" lon="-0.4854733366058968"><ele>144.00000000000003</ele><time>2026-04-22T14:16:15Z</time></trkpt><trkpt lat="43.33115342004278" lon="-0.4855749032372482"><ele>144.0</ele><time>2026-04-22T14:16:16Z</time></trkpt><trkpt lat="43.33117624560534" lon="-0.4856565075282309"><ele>144.0</ele><time>2026-04-22T14:16:17Z</time></trkpt><trkpt lat="43.33119584457202" lon="-0.4857576134792214"><ele>144.0</ele><time>2026-04-22T14:16:18Z</time></trkpt><trkpt lat="43.33122236774683" lon="-0.48585340158552714"><ele>144.0</ele><time>2026-04-22T14:16:19Z</time></trkpt><trkpt lat="43.33124858738937" lon="-0.48594624881372694"><ele>144.00000000000003</ele><time>2026-04-22T14:16:20Z</time></trkpt><trkpt lat="43.33127077092554" lon="-0.48603790100516636"><ele>144.0</ele><time>2026-04-22T14:16:21Z</time></trkpt><trkpt lat="43.33129202401807" lon="-0.4861329093483037"><ele>144.00000000000003</ele><time>2026-04-22T14:16:22Z</time></trkpt><trkpt lat="43.33131466482839" lon="-0.4862219986396188"><ele>144.0</ele><time>2026-04-22T14:16:23Z</time></trkpt><trkpt lat="43.33133458155472" lon="-0.486316674811673"><ele>144.0</ele><time>2026-04-22T14:16:24Z</time></trkpt><trkpt lat="43.33136779549808" lon="-0.4863967072466799"><ele>144.0</ele><time>2026-04-22T14:16:25Z</time></trkpt><trkpt lat="43.33139082243001" lon="-0.48650586833065296"><ele>144.0</ele><time>2026-04-22T14:16:26Z</time></trkpt><trkpt lat="43.331411078860405" lon="-0.4866000017830308"><ele>144.00000000000003</ele><time>2026-04-22T14:16:27Z</time></trkpt><trkpt lat="43.331433111281" lon="-0.48668210110939736"><ele>144.0</ele><time>2026-04-22T14:16:28Z</time></trkpt><trkpt lat="43.33145617526304" lon="-0.486769850042571"><ele>144.14285714285717</ele><time>2026-04-22T14:16:29Z</time></trkpt><trkpt lat="43.331480484319705" lon="-0.4868593949804829"><ele>144.28571428571428</ele><time>2026-04-22T14:16:30Z</time></trkpt><trkpt lat="43.33150350819804" lon="-0.48694931637468675"><ele>144.42857142857144</ele><time>2026-04-22T14:16:31Z</time></trkpt><trkpt lat="43.33152649971044" lon="-0.4870402007335029"><ele>144.57142857142858</ele><time>2026-04-22T14:16:32Z</time></trkpt><trkpt lat="43.33154987040245" lon="-0.4871319768419697"><ele>144.71428571428572</ele><time>2026-04-22T14:16:33Z</time></trkpt><trkpt lat="43.33157262228804" lon="-0.487223920884964"><ele>144.85714285714286</ele><time>2026-04-22T14:16:34Z</time></trkpt><trkpt lat="43.33159781981596" lon="-0.4873179691477116"><ele>145.0</ele><time>2026-04-22T14:16:35Z</time></trkpt><trkpt lat="43.33162295768575" lon="-0.4874118753935621"><ele>144.42857142857144</ele><time>2026-04-22T14:16:36Z</time></trkpt><trkpt lat="43.3316480926218" lon="-0.4875012568984435"><ele>143.85714285714286</ele><time>2026-04-22T14:16:37Z</time></trkpt><trkpt lat="43.331672226049406" lon="-0.48758973943488515"><ele>143.28571428571428</ele><time>2026-04-22T14:16:38Z</time></trkpt><trkpt lat="43.33169477739793" lon="-0.4876776959254286"><ele>142.71428571428572</ele><time>2026-04-22T14:16:39Z</time></trkpt><trkpt lat="43.33171451095026" lon="-0.4877655161586145"><ele>142.14285714285714</ele><time>2026-04-22T14:16:40Z</time></trkpt><trkpt lat="43.33173541716165" lon="-0.4878539287590025"><ele>141.57142857142858</ele><time>2026-04-22T14:16:41.001Z</time></trkpt><trkpt lat="43.33176070987911" lon="-0.48793955909937065"><ele>141.0</ele><time>2026-04-22T14:16:42.001Z</time></trkpt><trkpt lat="43.33178313838221" lon="-0.48802783064512134"><ele>140.71428571428572</ele><time>2026-04-22T14:16:43.001Z</time></trkpt><trkpt lat="43.33180590861052" lon="-0.4881171276784971"><ele>140.42857142857142</ele><time>2026-04-22T14:16:44.001Z</time></trkpt><trkpt lat="43.33182827056845" lon="-0.4882028359777046"><ele>140.14285714285714</ele><time>2026-04-22T14:16:45.001Z</time></trkpt><trkpt lat="43.33184919578714" lon="-0.4882905806960334"><ele>139.85714285714286</ele><time>2026-04-22T14:16:46.001Z</time></trkpt><trkpt lat="43.331869247122775" lon="-0.48837483518533914"><ele>139.57142857142858</ele><time>2026-04-22T14:16:47.001Z</time></trkpt><trkpt lat="43.33189266470507" lon="-0.4884603467791884"><ele>139.28571428571428</ele><time>2026-04-22T14:16:48.001Z</time></trkpt><trkpt lat="43.33191629561869" lon="-0.4885441851094383"><ele>139.0</ele><time>2026-04-22T14:16:49.001Z</time></trkpt><trkpt lat="43.33193716464668" lon="-0.4886280897349528"><ele>139.0</ele><time>2026-04-22T14:16:50.001Z</time></trkpt><trkpt lat="43.33195839890309" lon="-0.4887119712070771"><ele>139.0</ele><time>2026-04-22T14:16:51.001Z</time></trkpt><trkpt lat="43.331980908987944" lon="-0.48879549087598495"><ele>139.0</ele><time>2026-04-22T14:16:52.001Z</time></trkpt><trkpt lat="43.33200142442835" lon="-0.4888788790511393"><ele>139.0</ele><time>2026-04-22T14:16:53.001Z</time></trkpt><trkpt lat="43.33202255688926" lon="-0.48896218419655607"><ele>139.0</ele><time>2026-04-22T14:16:54.001Z</time></trkpt><trkpt lat="43.33204377131338" lon="-0.48904576628634416"><ele>139.0</ele><time>2026-04-22T14:16:55.001Z</time></trkpt><trkpt lat="43.33208821090637" lon="-0.4892082306814382"><ele>139.0</ele><time>2026-04-22T14:16:57.001Z</time></trkpt><trkpt lat="43.33212931645122" lon="-0.4893708991548506"><ele>139.0</ele><time>2026-04-22T14:16:59.001Z</time></trkpt><trkpt lat="43.332150609550915" lon="-0.489453099807607"><ele>139.0</ele><time>2026-04-22T14:17:00.001Z</time></trkpt><trkpt lat="43.33217212987222" lon="-0.48953623006306896"><ele>139.0</ele><time>2026-04-22T14:17:01.001Z</time></trkpt><trkpt lat="43.33219345281656" lon="-0.4896192701816005"><ele>139.0</ele><time>2026-04-22T14:17:02.001Z</time></trkpt><trkpt lat="43.33221530918112" lon="-0.48970250466580956"><ele>139.0</ele><time>2026-04-22T14:17:03.001Z</time></trkpt><trkpt lat="43.33223611647933" lon="-0.48978460481220626"><ele>139.0</ele><time>2026-04-22T14:17:04.001Z</time></trkpt><trkpt lat="43.33227987063638" lon="-0.48994318645921925"><ele>139.0</ele><time>2026-04-22T14:17:06.001Z</time></trkpt><trkpt lat="43.33231790043694" lon="-0.49010404224174897"><ele>139.0</ele><time>2026-04-22T14:17:08.001Z</time></trkpt><trkpt lat="43.33233850700508" lon="-0.4901858899712566"><ele>139.0</ele><time>2026-04-22T14:17:09.001Z</time></trkpt><trkpt lat="43.332373317666956" lon="-0.4903410822831074"><ele>139.0</ele><time>2026-04-22T14:17:11.001Z</time></trkpt><trkpt lat="43.33241862590457" lon="-0.4904964328924589"><ele>139.0</ele><time>2026-04-22T14:17:13.001Z</time></trkpt><trkpt lat="43.3324588956546" lon="-0.49065729034855177"><ele>139.0</ele><time>2026-04-22T14:17:15.001Z</time></trkpt><trkpt lat="43.332502522772266" lon="-0.4908198015651117"><ele>139.0</ele><time>2026-04-22T14:17:17.001Z</time></trkpt><trkpt lat="43.332551611293994" lon="-0.49097623108831157"><ele>139.0</ele><time>2026-04-22T14:17:19.001Z</time></trkpt><trkpt lat="43.33257480177205" lon="-0.4910570946133815"><ele>139.0</ele><time>2026-04-22T14:17:20.001Z</time></trkpt><trkpt lat="43.33260061695151" lon="-0.49113630289185994"><ele>139.0</ele><time>2026-04-22T14:17:21.001Z</time></trkpt><trkpt lat="43.332647749078156" lon="-0.4912925269663225"><ele>139.0</ele><time>2026-04-22T14:17:23.001Z</time></trkpt><trkpt lat="43.33267649894856" lon="-0.4913712638149094"><ele>139.0</ele><time>2026-04-22T14:17:24.001Z</time></trkpt><trkpt lat="43.332704665077564" lon="-0.49145175341847064"><ele>139.0</ele><time>2026-04-22T14:17:25.001Z</time></trkpt><trkpt lat="43.332730357558255" lon="-0.4915320284719242"><ele>139.0</ele><time>2026-04-22T14:17:26.001Z</time></trkpt><trkpt lat="43.33275764232574" lon="-0.4916118027872554"><ele>139.0</ele><time>2026-04-22T14:17:27.001Z</time></trkpt><trkpt lat="43.33278762355878" lon="-0.49168955218554544"><ele>139.0</ele><time>2026-04-22T14:17:28.001Z</time></trkpt><trkpt lat="43.33281571485007" lon="-0.4917705116811863"><ele>139.0</ele><time>2026-04-22T14:17:29.001Z</time></trkpt><trkpt lat="43.33284111464597" lon="-0.4918552859881839"><ele>139.0</ele><time>2026-04-22T14:17:30.001Z</time></trkpt><trkpt lat="43.33287224965956" lon="-0.49193458247769817"><ele>139.0</ele><time>2026-04-22T14:17:31.001Z</time></trkpt><trkpt lat="43.332906371817415" lon="-0.49201539502358727"><ele>139.16666666666669</ele><time>2026-04-22T14:17:32.001Z</time></trkpt><trkpt lat="43.33293417987448" lon="-0.4921072644346375"><ele>139.33333333333334</ele><time>2026-04-22T14:17:33.001Z</time></trkpt><trkpt lat="43.33300036190526" lon="-0.4922555342291583"><ele>139.5</ele><time>2026-04-22T14:17:35.001Z</time></trkpt><trkpt lat="43.33303298750904" lon="-0.49233229878037643"><ele>139.66666666666666</ele><time>2026-04-22T14:17:36.001Z</time></trkpt><trkpt lat="43.33306906812628" lon="-0.4924084653678613"><ele>139.83333333333331</ele><time>2026-04-22T14:17:37.001Z</time></trkpt><trkpt lat="43.33310566296029" lon="-0.49248284537822623"><ele>140.0</ele><time>2026-04-22T14:17:38.001Z</time></trkpt><trkpt lat="43.333172407652874" lon="-0.49262470415145093"><ele>139.4</ele><time>2026-04-22T14:17:40.001Z</time></trkpt><trkpt lat="43.3332461168417" lon="-0.49276454994031843"><ele>138.8</ele><time>2026-04-22T14:17:42.001Z</time></trkpt><trkpt lat="43.33328226914894" lon="-0.4928385534022053"><ele>138.2</ele><time>2026-04-22T14:17:43.001Z</time></trkpt><trkpt lat="43.333351070986616" lon="-0.4929774959495955"><ele>137.6</ele><time>2026-04-22T14:17:45.001Z</time></trkpt><trkpt lat="43.33339082787559" lon="-0.4930451347945845"><ele>137.0</ele><time>2026-04-22T14:17:46.001Z</time></trkpt><trkpt lat="43.33346258814576" lon="-0.4931794824540826"><ele>136.75</ele><time>2026-04-22T14:17:48.001Z</time></trkpt><trkpt lat="43.3335453529539" lon="-0.49330000390031015"><ele>136.5</ele><time>2026-04-22T14:17:50.001Z</time></trkpt><trkpt lat="43.333623621164" lon="-0.49342825605305696"><ele>136.25</ele><time>2026-04-22T14:17:52.001Z</time></trkpt><trkpt lat="43.33370429868563" lon="-0.49355368120068954"><ele>136.0</ele><time>2026-04-22T14:17:54.001Z</time></trkpt><trkpt lat="43.33378850173502" lon="-0.49367694516552496"><ele>136.0</ele><time>2026-04-22T14:17:56.002Z</time></trkpt><trkpt lat="43.33384058290076" lon="-0.49372702383196004"><ele>136.0</ele><time>2026-04-22T14:17:57.002Z</time></trkpt><trkpt lat="43.333922563205185" lon="-0.4938348960416263"><ele>136.0</ele><time>2026-04-22T14:17:59.002Z</time></trkpt><trkpt lat="43.3339649146562" lon="-0.4939024138180433"><ele>136.0</ele><time>2026-04-22T14:18:00.002Z</time></trkpt><trkpt lat="43.33404318090594" lon="-0.4940404050372844"><ele>136.0</ele><time>2026-04-22T14:18:02.002Z</time></trkpt><trkpt lat="43.334141477666684" lon="-0.4941494977519722"><ele>136.16666666666669</ele><time>2026-04-22T14:18:04.002Z</time></trkpt><trkpt lat="43.334184260232256" lon="-0.49421649137169565"><ele>136.33333333333334</ele><time>2026-04-22T14:18:05.002Z</time></trkpt><trkpt lat="43.33422831533196" lon="-0.4942787642269561"><ele>136.5</ele><time>2026-04-22T14:18:06.002Z</time></trkpt><trkpt lat="43.33427273647088" lon="-0.4943419384421449"><ele>136.66666666666666</ele><time>2026-04-22T14:18:07.002Z</time></trkpt><trkpt lat="43.33436217301907" lon="-0.4944656391694018"><ele>136.83333333333331</ele><time>2026-04-22T14:18:09.002Z</time></trkpt><trkpt lat="43.334453528228515" lon="-0.49457911029097673"><ele>137.0</ele><time>2026-04-22T14:18:11.002Z</time></trkpt><trkpt lat="43.33453810756759" lon="-0.4947019597045979"><ele>137.0</ele><time>2026-04-22T14:18:13.002Z</time></trkpt><trkpt lat="43.334585184442766" lon="-0.4947598278119399"><ele>137.0</ele><time>2026-04-22T14:18:14.002Z</time></trkpt><trkpt lat="43.33467661058643" lon="-0.4948748761457773"><ele>137.0</ele><time>2026-04-22T14:18:16Z</time></trkpt><trkpt lat="43.33476703641113" lon="-0.49499383017943227"><ele>137.0</ele><time>2026-04-22T14:18:18Z</time></trkpt><trkpt lat="43.334856989663464" lon="-0.49510975171886323"><ele>137.0</ele><time>2026-04-22T14:18:20Z</time></trkpt><trkpt lat="43.334942477930454" lon="-0.49522819153946795"><ele>137.16666666666666</ele><time>2026-04-22T14:18:22Z</time></trkpt><trkpt lat="43.33502950631745" lon="-0.49534651616686637"><ele>137.33333333333331</ele><time>2026-04-22T14:18:24Z</time></trkpt><trkpt lat="43.335119004498125" lon="-0.4954664492725308"><ele>137.5</ele><time>2026-04-22T14:18:26Z</time></trkpt><trkpt lat="43.335168393704144" lon="-0.49552532520105314"><ele>137.66666666666666</ele><time>2026-04-22T14:18:27Z</time></trkpt><trkpt lat="43.33521669060373" lon="-0.49558766868742005"><ele>137.83333333333334</ele><time>2026-04-22T14:18:28Z</time></trkpt><trkpt lat="43.33526530173147" lon="-0.4956520575601446"><ele>138.0</ele><time>2026-04-22T14:18:29Z</time></trkpt><trkpt lat="43.33531015239266" lon="-0.4957203988913922"><ele>138.0</ele><time>2026-04-22T14:18:30Z</time></trkpt><trkpt lat="43.33535712515386" lon="-0.4957836272748796"><ele>138.0</ele><time>2026-04-22T14:18:31Z</time></trkpt><trkpt lat="43.33540362847079" lon="-0.49584406378919466"><ele>138.0</ele><time>2026-04-22T14:18:32Z</time></trkpt><trkpt lat="43.335452548838106" lon="-0.4959040876534883"><ele>138.0</ele><time>2026-04-22T14:18:33Z</time></trkpt><trkpt lat="43.33549882723464" lon="-0.4959642540050419"><ele>138.0</ele><time>2026-04-22T14:18:34Z</time></trkpt><trkpt lat="43.3355451265048" lon="-0.4960236919244596"><ele>138.0</ele><time>2026-04-22T14:18:35Z</time></trkpt><trkpt lat="43.3356360689392" lon="-0.49614285485276294"><ele>138.0</ele><time>2026-04-22T14:18:37Z</time></trkpt><trkpt lat="43.335723412756806" lon="-0.4962610804664999"><ele>138.0</ele><time>2026-04-22T14:18:39Z</time></trkpt><trkpt lat="43.33581540665072" lon="-0.49637521778281907"><ele>138.0</ele><time>2026-04-22T14:18:41Z</time></trkpt><trkpt lat="43.33590111768534" lon="-0.4964903764034426"><ele>138.0</ele><time>2026-04-22T14:18:43Z</time></trkpt><trkpt lat="43.33598581495327" lon="-0.49661218976907867"><ele>138.0</ele><time>2026-04-22T14:18:45Z</time></trkpt><trkpt lat="43.33607502978586" lon="-0.4967250125691071"><ele>138.0</ele><time>2026-04-22T14:18:47Z</time></trkpt><trkpt lat="43.33612251387033" lon="-0.49678220374862414"><ele>138.0</ele><time>2026-04-22T14:18:48Z</time></trkpt><trkpt lat="43.33620818859879" lon="-0.4969012400821364"><ele>138.0</ele><time>2026-04-22T14:18:50Z</time></trkpt><trkpt lat="43.33629034480177" lon="-0.4970263071199412"><ele>138.0</ele><time>2026-04-22T14:18:52Z</time></trkpt><trkpt lat="43.33637235042866" lon="-0.4971406068850577"><ele>138.0</ele><time>2026-04-22T14:18:54.001Z</time></trkpt><trkpt lat="43.33644872475023" lon="-0.49726663698755397"><ele>137.6</ele><time>2026-04-22T14:18:56.001Z</time></trkpt><trkpt lat="43.336523914937146" lon="-0.4973880757776564"><ele>137.20000000000002</ele><time>2026-04-22T14:18:58.001Z</time></trkpt><trkpt lat="43.33659306461596" lon="-0.49751941619416556"><ele>136.8</ele><time>2026-04-22T14:19:00.001Z</time></trkpt><trkpt lat="43.3366544410289" lon="-0.4976336687952692"><ele>136.4</ele><time>2026-04-22T14:19:02.001Z</time></trkpt><trkpt lat="43.33671809614965" lon="-0.49775568247098134"><ele>136.0</ele><time>2026-04-22T14:19:04.001Z</time></trkpt><trkpt lat="43.336776957224664" lon="-0.49787941205997066"><ele>135.75</ele><time>2026-04-22T14:19:06.001Z</time></trkpt><trkpt lat="43.336837538082754" lon="-0.49800432561364455"><ele>135.5</ele><time>2026-04-22T14:19:08.001Z</time></trkpt><trkpt lat="43.33689593681691" lon="-0.49813565500978524"><ele>135.25</ele><time>2026-04-22T14:19:10.001Z</time></trkpt><trkpt lat="43.33696276368245" lon="-0.4982680886781518"><ele>135.0</ele><time>2026-04-22T14:19:12.001Z</time></trkpt><trkpt lat="43.33702548126157" lon="-0.49841616838021524"><ele>135.0</ele><time>2026-04-22T14:19:14.001Z</time></trkpt><trkpt lat="43.337053795986805" lon="-0.4984944060605586"><ele>135.0</ele><time>2026-04-22T14:19:15.001Z</time></trkpt><trkpt lat="43.33708658457048" lon="-0.4985693070223821"><ele>135.0</ele><time>2026-04-22T14:19:16.001Z</time></trkpt><trkpt lat="43.33713971578652" lon="-0.4987171341214102"><ele>135.0</ele><time>2026-04-22T14:19:18.001Z</time></trkpt><trkpt lat="43.33719498222836" lon="-0.49886465210477576"><ele>135.0</ele><time>2026-04-22T14:19:20.001Z</time></trkpt><trkpt lat="43.33724497210795" lon="-0.49901216029008655"><ele>135.25</ele><time>2026-04-22T14:19:22.001Z</time></trkpt><trkpt lat="43.33728639318573" lon="-0.499157704414905"><ele>135.5</ele><time>2026-04-22T14:19:24.001Z</time></trkpt><trkpt lat="43.33733306145362" lon="-0.4992996623746155"><ele>135.75</ele><time>2026-04-22T14:19:26.001Z</time></trkpt><trkpt lat="43.33737454000808" lon="-0.4994426932969022"><ele>136.0</ele><time>2026-04-22T14:19:28.001Z</time></trkpt><trkpt lat="43.3374104243056" lon="-0.4995878916025949"><ele>136.0</ele><time>2026-04-22T14:19:30.001Z</time></trkpt><trkpt lat="43.337446782614016" lon="-0.49972922301165257"><ele>136.0</ele><time>2026-04-22T14:19:32.001Z</time></trkpt><trkpt lat="43.337470055645305" lon="-0.49987577087704443"><ele>136.0</ele><time>2026-04-22T14:19:34.001Z</time></trkpt><trkpt lat="43.337504616480736" lon="-0.5000160657073811"><ele>136.0</ele><time>2026-04-22T14:19:36.001Z</time></trkpt><trkpt lat="43.337534562296085" lon="-0.5001575766053215"><ele>136.0</ele><time>2026-04-22T14:19:38.001Z</time></trkpt><trkpt lat="43.337562097811144" lon="-0.5003035569781143"><ele>136.25</ele><time>2026-04-22T14:19:40.001Z</time></trkpt><trkpt lat="43.33758432455086" lon="-0.5004535830510721"><ele>136.5</ele><time>2026-04-22T14:19:42.001Z</time></trkpt><trkpt lat="43.33760777798912" lon="-0.5006057963306284"><ele>136.75</ele><time>2026-04-22T14:19:44.001Z</time></trkpt><trkpt lat="43.33762651327183" lon="-0.5007579689649887"><ele>137.0</ele><time>2026-04-22T14:19:46.001Z</time></trkpt><trkpt lat="43.33764514277447" lon="-0.500911845163759"><ele>137.0</ele><time>2026-04-22T14:19:48.001Z</time></trkpt><trkpt lat="43.33766416949658" lon="-0.5010664829790105"><ele>137.0</ele><time>2026-04-22T14:19:50.001Z</time></trkpt><trkpt lat="43.337680874906745" lon="-0.5012264254034522"><ele>137.0</ele><time>2026-04-22T14:19:52.001Z</time></trkpt><trkpt lat="43.337688652696826" lon="-0.5013927595702187"><ele>137.0</ele><time>2026-04-22T14:19:54.001Z</time></trkpt><trkpt lat="43.33770478620621" lon="-0.5015624358055548"><ele>137.25</ele><time>2026-04-22T14:19:56.001Z</time></trkpt><trkpt lat="43.337719106556015" lon="-0.5017316621850304"><ele>137.5</ele><time>2026-04-22T14:19:58.001Z</time></trkpt><trkpt lat="43.33773411363741" lon="-0.501898362094976"><ele>137.75</ele><time>2026-04-22T14:20:00.001Z</time></trkpt><trkpt lat="43.33774692254097" lon="-0.502067518270721"><ele>138.0</ele><time>2026-04-22T14:20:02.001Z</time></trkpt><trkpt lat="43.33776240673259" lon="-0.5022331126448317"><ele>137.5</ele><time>2026-04-22T14:20:04.001Z</time></trkpt><trkpt lat="43.33777365619563" lon="-0.5023991273748227"><ele>137.0</ele><time>2026-04-22T14:20:06.001Z</time></trkpt><trkpt lat="43.33778905863961" lon="-0.5025621275536196"><ele>136.5</ele><time>2026-04-22T14:20:08.001Z</time></trkpt><trkpt lat="43.33780221919699" lon="-0.5027238188488683"><ele>136.0</ele><time>2026-04-22T14:20:10.002Z</time></trkpt><trkpt lat="43.33782092807802" lon="-0.5028917901603845"><ele>136.0</ele><time>2026-04-22T14:20:12.002Z</time></trkpt><trkpt lat="43.33783179805325" lon="-0.5030460506306532"><ele>136.0</ele><time>2026-04-22T14:20:14.002Z</time></trkpt><trkpt lat="43.33784271808739" lon="-0.5032050345585614"><ele>136.0</ele><time>2026-04-22T14:20:16.002Z</time></trkpt><trkpt lat="43.337855865825354" lon="-0.5033657444150925"><ele>136.0</ele><time>2026-04-22T14:20:18.002Z</time></trkpt><trkpt lat="43.337867684492515" lon="-0.5035226502769656"><ele>136.0</ele><time>2026-04-22T14:20:20.002Z</time></trkpt><trkpt lat="43.33788216542801" lon="-0.5036824973868823"><ele>136.0</ele><time>2026-04-22T14:20:22Z</time></trkpt><trkpt lat="43.337893602307936" lon="-0.5038356830899946"><ele>136.0</ele><time>2026-04-22T14:20:24Z</time></trkpt><trkpt lat="43.337907488857525" lon="-0.5039942242455028"><ele>136.0</ele><time>2026-04-22T14:20:26Z</time></trkpt><trkpt lat="43.337920875597504" lon="-0.5041590002207165"><ele>135.75</ele><time>2026-04-22T14:20:28Z</time></trkpt><trkpt lat="43.33793153800022" lon="-0.5043252835848955"><ele>135.5</ele><time>2026-04-22T14:20:30Z</time></trkpt><trkpt lat="43.33794302744525" lon="-0.5044954184717616"><ele>135.25</ele><time>2026-04-22T14:20:32Z</time></trkpt><trkpt lat="43.33796027510288" lon="-0.5046579969695292"><ele>135.0</ele><time>2026-04-22T14:20:34Z</time></trkpt><trkpt lat="43.33797318347545" lon="-0.5048205655589928"><ele>135.0</ele><time>2026-04-22T14:20:36Z</time></trkpt><trkpt lat="43.33798369182881" lon="-0.504985331312698"><ele>135.0</ele><time>2026-04-22T14:20:38Z</time></trkpt><trkpt lat="43.33800048266854" lon="-0.5051569505397265"><ele>135.0</ele><time>2026-04-22T14:20:40Z</time></trkpt><trkpt lat="43.338014041939545" lon="-0.5053240243254137"><ele>135.0</ele><time>2026-04-22T14:20:42Z</time></trkpt><trkpt lat="43.338027955095164" lon="-0.5054896651078467"><ele>135.2</ele><time>2026-04-22T14:20:44Z</time></trkpt><trkpt lat="43.33804522139805" lon="-0.5056435976016597"><ele>135.4</ele><time>2026-04-22T14:20:46Z</time></trkpt><trkpt lat="43.33806436662274" lon="-0.505791715828313"><ele>135.6</ele><time>2026-04-22T14:20:48Z</time></trkpt><trkpt lat="43.33808485434072" lon="-0.5059410257666302"><ele>135.8</ele><time>2026-04-22T14:20:50Z</time></trkpt><trkpt lat="43.3381054671846" lon="-0.5060935681105456"><ele>136.0</ele><time>2026-04-22T14:20:52Z</time></trkpt><trkpt lat="43.33812921795823" lon="-0.5062479239109654"><ele>136.25</ele><time>2026-04-22T14:20:54Z</time></trkpt><trkpt lat="43.338157731841505" lon="-0.5064059242800011"><ele>136.5</ele><time>2026-04-22T14:20:56Z</time></trkpt><trkpt lat="43.33818918552425" lon="-0.5065612083506799"><ele>136.75</ele><time>2026-04-22T14:20:58Z</time></trkpt><trkpt lat="43.338222500246026" lon="-0.5067137235648674"><ele>137.0</ele><time>2026-04-22T14:21:00Z</time></trkpt><trkpt lat="43.33825836465657" lon="-0.5068676606009163"><ele>137.0</ele><time>2026-04-22T14:21:02Z</time></trkpt><trkpt lat="43.338301851945104" lon="-0.5070258742202579"><ele>137.0</ele><time>2026-04-22T14:21:04Z</time></trkpt><trkpt lat="43.33833998082394" lon="-0.5071774957576406"><ele>137.0</ele><time>2026-04-22T14:21:06Z</time></trkpt><trkpt lat="43.33838209097961" lon="-0.5073164256878879"><ele>137.0</ele><time>2026-04-22T14:21:08Z</time></trkpt><trkpt lat="43.33842522774186" lon="-0.5074568136584306"><ele>137.0</ele><time>2026-04-22T14:21:10.001Z</time></trkpt><trkpt lat="43.33846945773131" lon="-0.5076020630667288"><ele>137.0</ele><time>2026-04-22T14:21:12.001Z</time></trkpt><trkpt lat="43.33852084330268" lon="-0.5077425734844918"><ele>137.0</ele><time>2026-04-22T14:21:14.001Z</time></trkpt><trkpt lat="43.33857039603816" lon="-0.5078911384834406"><ele>137.0</ele><time>2026-04-22T14:21:16.001Z</time></trkpt><trkpt lat="43.33862499251289" lon="-0.5080425951470987"><ele>137.0</ele><time>2026-04-22T14:21:18.001Z</time></trkpt><trkpt lat="43.33868640269737" lon="-0.5081886768753251"><ele>137.0</ele><time>2026-04-22T14:21:20.001Z</time></trkpt><trkpt lat="43.33875074426686" lon="-0.5083270484565278"><ele>137.0</ele><time>2026-04-22T14:21:22.001Z</time></trkpt><trkpt lat="43.33881690287565" lon="-0.508464845939632"><ele>137.0</ele><time>2026-04-22T14:21:24.001Z</time></trkpt><trkpt lat="43.33888538512162" lon="-0.508600543097769"><ele>136.75</ele><time>2026-04-22T14:21:26.001Z</time></trkpt><trkpt lat="43.338950049352256" lon="-0.5087391538616691"><ele>136.5</ele><time>2026-04-22T14:21:28.001Z</time></trkpt><trkpt lat="43.33902153526556" lon="-0.508873002434821"><ele>136.25</ele><time>2026-04-22T14:21:30.001Z</time></trkpt><trkpt lat="43.33909388213013" lon="-0.5089945985348405"><ele>136.0</ele><time>2026-04-22T14:21:32.001Z</time></trkpt><trkpt lat="43.339164240504715" lon="-0.5091281619359344"><ele>136.0</ele><time>2026-04-22T14:21:34.001Z</time></trkpt><trkpt lat="43.339235454096766" lon="-0.5092535092802699"><ele>136.0</ele><time>2026-04-22T14:21:36.001Z</time></trkpt><trkpt lat="43.33931650837894" lon="-0.5093722035718314"><ele>136.0</ele><time>2026-04-22T14:21:38.001Z</time></trkpt><trkpt lat="43.339392112038894" lon="-0.5094913961102124"><ele>136.0</ele><time>2026-04-22T14:21:40.001Z</time></trkpt><trkpt lat="43.339473463491196" lon="-0.5096089122461723"><ele>135.4</ele><time>2026-04-22T14:21:42.001Z</time></trkpt><trkpt lat="43.339514169760626" lon="-0.5096800780074607"><ele>134.8</ele><time>2026-04-22T14:21:43.001Z</time></trkpt><trkpt lat="43.339605058451646" lon="-0.509775246510703"><ele>134.20000000000002</ele><time>2026-04-22T14:21:45.001Z</time></trkpt><trkpt lat="43.33968421754144" lon="-0.509888517668893"><ele>133.6</ele><time>2026-04-22T14:21:47.001Z</time></trkpt><trkpt lat="43.33976667372627" lon="-0.5100030037422528"><ele>133.0</ele><time>2026-04-22T14:21:49.001Z</time></trkpt><trkpt lat="43.33985270608751" lon="-0.5101185033503824"><ele>133.0</ele><time>2026-04-22T14:21:51.001Z</time></trkpt><trkpt lat="43.33993887961155" lon="-0.5102279116952657"><ele>133.0</ele><time>2026-04-22T14:21:53.001Z</time></trkpt><trkpt lat="43.34002277848489" lon="-0.5103485407676531"><ele>133.0</ele><time>2026-04-22T14:21:55.001Z</time></trkpt><trkpt lat="43.34010754670027" lon="-0.5104535904285104"><ele>133.0</ele><time>2026-04-22T14:21:57.001Z</time></trkpt><trkpt lat="43.34019645708647" lon="-0.5105619341883911"><ele>132.75</ele><time>2026-04-22T14:21:59.001Z</time></trkpt><trkpt lat="43.34027987239472" lon="-0.5106784065065222"><ele>132.5</ele><time>2026-04-22T14:22:01.001Z</time></trkpt><trkpt lat="43.34036671924705" lon="-0.5107911866527839"><ele>132.25</ele><time>2026-04-22T14:22:03.001Z</time></trkpt><trkpt lat="43.340450514926076" lon="-0.5109088540783561"><ele>132.0</ele><time>2026-04-22T14:22:05.001Z</time></trkpt><trkpt lat="43.34053763279075" lon="-0.5110209741765624"><ele>132.0</ele><time>2026-04-22T14:22:07.001Z</time></trkpt><trkpt lat="43.34058475156657" lon="-0.5110783844820913"><ele>132.0</ele><time>2026-04-22T14:22:08.001Z</time></trkpt><trkpt lat="43.34063425721176" lon="-0.5111381846716901"><ele>132.0</ele><time>2026-04-22T14:22:09.001Z</time></trkpt><trkpt lat="43.340722783451085" lon="-0.5112533593558458"><ele>132.0</ele><time>2026-04-22T14:22:11.001Z</time></trkpt><trkpt lat="43.34080705749038" lon="-0.5113705955550584"><ele>132.0</ele><time>2026-04-22T14:22:13.001Z</time></trkpt><trkpt lat="43.34085416634519" lon="-0.5114329094184903"><ele>132.0</ele><time>2026-04-22T14:22:14.001Z</time></trkpt><trkpt lat="43.34094062024433" lon="-0.5115470483484298"><ele>132.0</ele><time>2026-04-22T14:22:16.001Z</time></trkpt><trkpt lat="43.34102726328579" lon="-0.5116622135474144"><ele>132.0</ele><time>2026-04-22T14:22:18.001Z</time></trkpt><trkpt lat="43.34111492072892" lon="-0.5117657485604415"><ele>132.0</ele><time>2026-04-22T14:22:20.001Z</time></trkpt><trkpt lat="43.341194832309796" lon="-0.5118744166976894"><ele>132.0</ele><time>2026-04-22T14:22:22.001Z</time></trkpt><trkpt lat="43.34127549576946" lon="-0.5119724048534221"><ele>132.2</ele><time>2026-04-22T14:22:24.001Z</time></trkpt><trkpt lat="43.34135960557998" lon="-0.5120735291697557"><ele>132.39999999999998</ele><time>2026-04-22T14:22:26.002Z</time></trkpt><trkpt lat="43.34142647567384" lon="-0.5121062804833296"><ele>132.60000000000002</ele><time>2026-04-22T14:22:28Z</time></trkpt><trkpt lat="43.34147733275817" lon="-0.512216476805489"><ele>132.8</ele><time>2026-04-22T14:22:29Z</time></trkpt><trkpt lat="43.34156006524076" lon="-0.5123240332646329"><ele>133.0</ele><time>2026-04-22T14:22:31Z</time></trkpt><trkpt lat="43.34164005055094" lon="-0.5124328236071996"><ele>133.0</ele><time>2026-04-22T14:22:33Z</time></trkpt><trkpt lat="43.341722890170026" lon="-0.51253966313285"><ele>133.0</ele><time>2026-04-22T14:22:35Z</time></trkpt><trkpt lat="43.34180245774944" lon="-0.5126411953120522"><ele>133.0</ele><time>2026-04-22T14:22:37Z</time></trkpt><trkpt lat="43.34187262785712" lon="-0.512739088199604"><ele>133.0</ele><time>2026-04-22T14:22:39Z</time></trkpt><trkpt lat="43.3419559645526" lon="-0.5128443960122511"><ele>133.0</ele><time>2026-04-22T14:22:41Z</time></trkpt><trkpt lat="43.34202396862983" lon="-0.5129608434700997"><ele>133.20000000000002</ele><time>2026-04-22T14:22:43Z</time></trkpt><trkpt lat="43.342107135183696" lon="-0.5130662220578799"><ele>133.4</ele><time>2026-04-22T14:22:45Z</time></trkpt><trkpt lat="43.34219368679619" lon="-0.5131708804483731"><ele>133.60000000000002</ele><time>2026-04-22T14:22:47Z</time></trkpt><trkpt lat="43.34226812218584" lon="-0.5132746390511782"><ele>133.8</ele><time>2026-04-22T14:22:49Z</time></trkpt><trkpt lat="43.34234705107259" lon="-0.5133748363727403"><ele>134.0</ele><time>2026-04-22T14:22:51Z</time></trkpt><trkpt lat="43.34242428469427" lon="-0.5134830044577423"><ele>134.0</ele><time>2026-04-22T14:22:53Z</time></trkpt><trkpt lat="43.34249930002048" lon="-0.5135803041467578"><ele>134.0</ele><time>2026-04-22T14:22:55Z</time></trkpt><trkpt lat="43.34257837456747" lon="-0.5136781152397392"><ele>134.0</ele><time>2026-04-22T14:22:57Z</time></trkpt><trkpt lat="43.342654550852664" lon="-0.5137809971935525"><ele>134.0</ele><time>2026-04-22T14:22:59Z</time></trkpt><trkpt lat="43.342734215712724" lon="-0.5138862573034345"><ele>134.0</ele><time>2026-04-22T14:23:01Z</time></trkpt><trkpt lat="43.342810751174675" lon="-0.5139949104803624"><ele>133.6</ele><time>2026-04-22T14:23:03Z</time></trkpt><trkpt lat="43.342890650702444" lon="-0.5141003458583463"><ele>133.2</ele><time>2026-04-22T14:23:05Z</time></trkpt><trkpt lat="43.34297033285949" lon="-0.514207930337544"><ele>132.79999999999998</ele><time>2026-04-22T14:23:07Z</time></trkpt><trkpt lat="43.34305326771223" lon="-0.514315483003718"><ele>132.4</ele><time>2026-04-22T14:23:09Z</time></trkpt><trkpt lat="43.34313379479964" lon="-0.514421934944533"><ele>132.0</ele><time>2026-04-22T14:23:11Z</time></trkpt><trkpt lat="43.34321839984584" lon="-0.514532515419297"><ele>132.2</ele><time>2026-04-22T14:23:13Z</time></trkpt><trkpt lat="43.34330720158397" lon="-0.5146406502008374"><ele>132.39999999999998</ele><time>2026-04-22T14:23:15Z</time></trkpt><trkpt lat="43.34339149178501" lon="-0.5147451342628062"><ele>132.60000000000002</ele><time>2026-04-22T14:23:17.001Z</time></trkpt><trkpt lat="43.34343379388386" lon="-0.5148106315757576"><ele>132.8</ele><time>2026-04-22T14:23:18.001Z</time></trkpt><trkpt lat="43.34352083129822" lon="-0.514916554176572"><ele>133.0</ele><time>2026-04-22T14:23:20.001Z</time></trkpt><trkpt lat="43.34360840877311" lon="-0.5150346068834893"><ele>133.0</ele><time>2026-04-22T14:23:22.001Z</time></trkpt><trkpt lat="43.34370169878985" lon="-0.5151537649415817"><ele>133.0</ele><time>2026-04-22T14:23:24.001Z</time></trkpt><trkpt lat="43.34379229185427" lon="-0.5152697509231152"><ele>133.0</ele><time>2026-04-22T14:23:26.001Z</time></trkpt><trkpt lat="43.34388198500957" lon="-0.5153897576273233"><ele>133.0</ele><time>2026-04-22T14:23:28.001Z</time></trkpt><trkpt lat="43.34392838031889" lon="-0.5154513073884761"><ele>133.0</ele><time>2026-04-22T14:23:29.001Z</time></trkpt><trkpt lat="43.34397552995072" lon="-0.515509781959006"><ele>132.71428571428572</ele><time>2026-04-22T14:23:30.001Z</time></trkpt><trkpt lat="43.344022152385655" lon="-0.5155721581327686"><ele>132.42857142857144</ele><time>2026-04-22T14:23:31.001Z</time></trkpt><trkpt lat="43.3440695961299" lon="-0.5156340705252638"><ele>132.14285714285714</ele><time>2026-04-22T14:23:32.001Z</time></trkpt><trkpt lat="43.34411540432536" lon="-0.5156972334458387"><ele>131.85714285714286</ele><time>2026-04-22T14:23:33.001Z</time></trkpt><trkpt lat="43.3441630928898" lon="-0.5157609180590672"><ele>131.57142857142858</ele><time>2026-04-22T14:23:34.001Z</time></trkpt><trkpt lat="43.34421109357221" lon="-0.5158223521235753"><ele>131.28571428571428</ele><time>2026-04-22T14:23:35.001Z</time></trkpt><trkpt lat="43.34425971308468" lon="-0.5158793527716605"><ele>131.0</ele><time>2026-04-22T14:23:36.001Z</time></trkpt><trkpt lat="43.34430854652748" lon="-0.515946073115328"><ele>131.0</ele><time>2026-04-22T14:23:37.001Z</time></trkpt><trkpt lat="43.34435850405869" lon="-0.5160127062673927"><ele>131.0</ele><time>2026-04-22T14:23:38.001Z</time></trkpt><trkpt lat="43.344405899283394" lon="-0.5160777172049968"><ele>131.0</ele><time>2026-04-22T14:23:39.001Z</time></trkpt><trkpt lat="43.34445343990428" lon="-0.516144046855072"><ele>131.0</ele><time>2026-04-22T14:23:40.001Z</time></trkpt><trkpt lat="43.34450538564607" lon="-0.5162086831454886"><ele>131.0</ele><time>2026-04-22T14:23:41.001Z</time></trkpt><trkpt lat="43.344554857877036" lon="-0.5162724586949609"><ele>131.0</ele><time>2026-04-22T14:23:42.001Z</time></trkpt><trkpt lat="43.344603127179276" lon="-0.5163401864371276"><ele>131.0</ele><time>2026-04-22T14:23:43.001Z</time></trkpt><trkpt lat="43.34465336047052" lon="-0.5164048277417336"><ele>131.16666666666666</ele><time>2026-04-22T14:23:44.001Z</time></trkpt><trkpt lat="43.344705104461795" lon="-0.5164683109401866"><ele>131.33333333333331</ele><time>2026-04-22T14:23:45.001Z</time></trkpt><trkpt lat="43.34475568808366" lon="-0.5165332132061593"><ele>131.5</ele><time>2026-04-22T14:23:46.001Z</time></trkpt><trkpt lat="43.3448060547575" lon="-0.5165989099179187"><ele>131.66666666666666</ele><time>2026-04-22T14:23:47.001Z</time></trkpt><trkpt lat="43.34485722693409" lon="-0.5166623667069454"><ele>131.83333333333334</ele><time>2026-04-22T14:23:48.001Z</time></trkpt><trkpt lat="43.344956490230224" lon="-0.516786021120531"><ele>132.0</ele><time>2026-04-22T14:23:50.001Z</time></trkpt><trkpt lat="43.345001552740634" lon="-0.5168542194467656"><ele>132.0</ele><time>2026-04-22T14:23:51.001Z</time></trkpt><trkpt lat="43.34505101522826" lon="-0.5169177113408198"><ele>132.0</ele><time>2026-04-22T14:23:52.001Z</time></trkpt><trkpt lat="43.345102906393656" lon="-0.5169763954399943"><ele>132.0</ele><time>2026-04-22T14:23:53.001Z</time></trkpt><trkpt lat="43.345156188655686" lon="-0.5170346444810635"><ele>132.0</ele><time>2026-04-22T14:23:54.001Z</time></trkpt><trkpt lat="43.34524243853373" lon="-0.5171618331284404"><ele>132.0</ele><time>2026-04-22T14:23:56.001Z</time></trkpt><trkpt lat="43.34533574994812" lon="-0.5172737508534477"><ele>132.0</ele><time>2026-04-22T14:23:58.001Z</time></trkpt><trkpt lat="43.34538276135131" lon="-0.5173368145592504"><ele>132.0</ele><time>2026-04-22T14:23:59.001Z</time></trkpt><trkpt lat="43.34547029197711" lon="-0.517457325575832"><ele>132.0</ele><time>2026-04-22T14:24:01.001Z</time></trkpt><trkpt lat="43.34556357382424" lon="-0.5175733284149695"><ele>132.0</ele><time>2026-04-22T14:24:03.001Z</time></trkpt><trkpt lat="43.34565400191712" lon="-0.5176923422458404"><ele>132.0</ele><time>2026-04-22T14:24:05.001Z</time></trkpt><trkpt lat="43.34574108194681" lon="-0.5178164046083686"><ele>132.25</ele><time>2026-04-22T14:24:07.001Z</time></trkpt><trkpt lat="43.345827817541505" lon="-0.5179355928503402"><ele>132.5</ele><time>2026-04-22T14:24:09.001Z</time></trkpt><trkpt lat="43.345915482815656" lon="-0.5180511728453859"><ele>132.75</ele><time>2026-04-22T14:24:11.001Z</time></trkpt><trkpt lat="43.34600514616314" lon="-0.5181608088961769"><ele>133.0</ele><time>2026-04-22T14:24:13.001Z</time></trkpt><trkpt lat="43.34609223031376" lon="-0.5182736073590465"><ele>133.0</ele><time>2026-04-22T14:24:15.001Z</time></trkpt><trkpt lat="43.346173169399236" lon="-0.5183837797496487"><ele>133.0</ele><time>2026-04-22T14:24:17.001Z</time></trkpt><trkpt lat="43.346257371384084" lon="-0.5184861438324556"><ele>133.0</ele><time>2026-04-22T14:24:19.001Z</time></trkpt><trkpt lat="43.346338343672755" lon="-0.5185924392013228"><ele>133.0</ele><time>2026-04-22T14:24:21.001Z</time></trkpt><trkpt lat="43.34641286440792" lon="-0.5186928297594298"><ele>133.0</ele><time>2026-04-22T14:24:23.001Z</time></trkpt><trkpt lat="43.34649103334681" lon="-0.5187982065790124"><ele>132.8</ele><time>2026-04-22T14:24:25.001Z</time></trkpt><trkpt lat="43.34656849290781" lon="-0.5189011282746362"><ele>132.60000000000002</ele><time>2026-04-22T14:24:27.001Z</time></trkpt><trkpt lat="43.34664456598083" lon="-0.5190064855249008"><ele>132.39999999999998</ele><time>2026-04-22T14:24:29.001Z</time></trkpt><trkpt lat="43.34672399618409" lon="-0.5191101470935658"><ele>132.2</ele><time>2026-04-22T14:24:31.002Z</time></trkpt><trkpt lat="43.3468068283637" lon="-0.5192138104550899"><ele>132.0</ele><time>2026-04-22T14:24:33Z</time></trkpt><trkpt lat="43.34689439387686" lon="-0.519322514809317"><ele>132.0</ele><time>2026-04-22T14:24:35Z</time></trkpt><trkpt lat="43.34697415828717" lon="-0.5194308554007394"><ele>132.0</ele><time>2026-04-22T14:24:37Z</time></trkpt><trkpt lat="43.347057905571624" lon="-0.5195406770568836"><ele>132.0</ele><time>2026-04-22T14:24:39Z</time></trkpt><trkpt lat="43.34713756881496" lon="-0.5196507552023024"><ele>132.0</ele><time>2026-04-22T14:24:41Z</time></trkpt><trkpt lat="43.34722159089104" lon="-0.5197605073499781"><ele>132.0</ele><time>2026-04-22T14:24:43Z</time></trkpt><trkpt lat="43.34730752867637" lon="-0.5198707017341826"><ele>132.0</ele><time>2026-04-22T14:24:45Z</time></trkpt><trkpt lat="43.34739779494214" lon="-0.5199903893546535"><ele>132.0</ele><time>2026-04-22T14:24:47Z</time></trkpt><trkpt lat="43.347489959479475" lon="-0.520108629610592"><ele>132.0</ele><time>2026-04-22T14:24:49Z</time></trkpt><trkpt lat="43.34753534205186" lon="-0.5201689452845589"><ele>132.0</ele><time>2026-04-22T14:24:50Z</time></trkpt><trkpt lat="43.34757595141319" lon="-0.5202475973670078"><ele>132.0</ele><time>2026-04-22T14:24:51Z</time></trkpt><trkpt lat="43.3476680099584" lon="-0.520360486232471"><ele>132.0</ele><time>2026-04-22T14:24:53Z</time></trkpt><trkpt lat="43.34771680026967" lon="-0.5204192051828472"><ele>132.0</ele><time>2026-04-22T14:24:54Z</time></trkpt><trkpt lat="43.34776256772474" lon="-0.5204812828324814"><ele>132.0</ele><time>2026-04-22T14:24:55Z</time></trkpt><trkpt lat="43.34780827948271" lon="-0.5205470481737453"><ele>132.0</ele><time>2026-04-22T14:24:56Z</time></trkpt><trkpt lat="43.34785435486378" lon="-0.5206127013655518"><ele>132.0</ele><time>2026-04-22T14:24:57Z</time></trkpt><trkpt lat="43.3479093009373" lon="-0.5206713840946021"><ele>131.85714285714286</ele><time>2026-04-22T14:24:58Z</time></trkpt><trkpt lat="43.347958180641605" lon="-0.5207343861815936"><ele>131.71428571428572</ele><time>2026-04-22T14:24:59Z</time></trkpt><trkpt lat="43.348007197838776" lon="-0.5207993871615212"><ele>131.57142857142858</ele><time>2026-04-22T14:25:00Z</time></trkpt><trkpt lat="43.34805722595941" lon="-0.5208629180442779"><ele>131.42857142857144</ele><time>2026-04-22T14:25:01Z</time></trkpt><trkpt lat="43.34810493976117" lon="-0.5209278352531117"><ele>131.2857142857143</ele><time>2026-04-22T14:25:02Z</time></trkpt><trkpt lat="43.3481507823175" lon="-0.5209921139336204"><ele>131.14285714285714</ele><time>2026-04-22T14:25:03Z</time></trkpt><trkpt lat="43.34819726613693" lon="-0.5210583305737368"><ele>131.0</ele><time>2026-04-22T14:25:04Z</time></trkpt><trkpt lat="43.34824733612239" lon="-0.5211169402054197"><ele>131.0</ele><time>2026-04-22T14:25:05Z</time></trkpt><trkpt lat="43.34829741382505" lon="-0.521178601456297"><ele>131.0</ele><time>2026-04-22T14:25:06Z</time></trkpt><trkpt lat="43.348344572211126" lon="-0.5212490733527868"><ele>131.0</ele><time>2026-04-22T14:25:07Z</time></trkpt><trkpt lat="43.34843974362015" lon="-0.5213618627446067"><ele>131.0</ele><time>2026-04-22T14:25:09.001Z</time></trkpt><trkpt lat="43.3484851665011" lon="-0.5214233539849078"><ele>131.0</ele><time>2026-04-22T14:25:10.001Z</time></trkpt><trkpt lat="43.34853385966591" lon="-0.5214819066815778"><ele>131.0</ele><time>2026-04-22T14:25:11.001Z</time></trkpt><trkpt lat="43.348581760108296" lon="-0.5215467050451033"><ele>131.0</ele><time>2026-04-22T14:25:12.001Z</time></trkpt><trkpt lat="43.34867469472756" lon="-0.521664644346292"><ele>131.0</ele><time>2026-04-22T14:25:14.001Z</time></trkpt><trkpt lat="43.34876513820901" lon="-0.5217828672899725"><ele>131.0</ele><time>2026-04-22T14:25:16.001Z</time></trkpt><trkpt lat="43.348855958926514" lon="-0.521892576687896"><ele>131.0</ele><time>2026-04-22T14:25:18.001Z</time></trkpt><trkpt lat="43.34894280787952" lon="-0.5220075463395244"><ele>130.8</ele><time>2026-04-22T14:25:20.001Z</time></trkpt><trkpt lat="43.34902436159585" lon="-0.5221235447516017"><ele>130.6</ele><time>2026-04-22T14:25:22.001Z</time></trkpt><trkpt lat="43.349070904910576" lon="-0.5221932554686501"><ele>130.4</ele><time>2026-04-22T14:25:23.001Z</time></trkpt><trkpt lat="43.349157250207746" lon="-0.5222852849791031"><ele>130.2</ele><time>2026-04-22T14:25:25.001Z</time></trkpt><trkpt lat="43.34923590440429" lon="-0.522388388312243"><ele>130.0</ele><time>2026-04-22T14:25:27.001Z</time></trkpt><trkpt lat="43.3493196644594" lon="-0.5224850768982323"><ele>130.0</ele><time>2026-04-22T14:25:29.001Z</time></trkpt><trkpt lat="43.34940597662395" lon="-0.5225904781850562"><ele>130.0</ele><time>2026-04-22T14:25:31.001Z</time></trkpt><trkpt lat="43.349487072733034" lon="-0.5226998207181056"><ele>130.0</ele><time>2026-04-22T14:25:33.001Z</time></trkpt><trkpt lat="43.3495713214848" lon="-0.5228012695811276"><ele>130.0</ele><time>2026-04-22T14:25:35.001Z</time></trkpt><trkpt lat="43.34965799834287" lon="-0.5229038174614028"><ele>130.0</ele><time>2026-04-22T14:25:37.001Z</time></trkpt><trkpt lat="43.349741616830535" lon="-0.5230169546126783"><ele>130.0</ele><time>2026-04-22T14:25:39.001Z</time></trkpt><trkpt lat="43.34982494967484" lon="-0.5231336735556451"><ele>130.0</ele><time>2026-04-22T14:25:41.001Z</time></trkpt><trkpt lat="43.34990469889645" lon="-0.5232459889403507"><ele>130.0</ele><time>2026-04-22T14:25:43.001Z</time></trkpt><trkpt lat="43.349998164718414" lon="-0.523360064774659"><ele>130.0</ele><time>2026-04-22T14:25:45.001Z</time></trkpt><trkpt lat="43.350072470501324" lon="-0.5234621670509951"><ele>130.0</ele><time>2026-04-22T14:25:47.001Z</time></trkpt><trkpt lat="43.350154110903624" lon="-0.5235722934414395"><ele>130.0</ele><time>2026-04-22T14:25:49.001Z</time></trkpt><trkpt lat="43.350240351173824" lon="-0.5236881470325686"><ele>130.0</ele><time>2026-04-22T14:25:51.001Z</time></trkpt><trkpt lat="43.35032649634249" lon="-0.52380155838464"><ele>130.0</ele><time>2026-04-22T14:25:53.001Z</time></trkpt><trkpt lat="43.35040928794784" lon="-0.5239222846984312"><ele>130.0</ele><time>2026-04-22T14:25:55.001Z</time></trkpt><trkpt lat="43.35049991490842" lon="-0.524034997953255"><ele>130.0</ele><time>2026-04-22T14:25:57.001Z</time></trkpt><trkpt lat="43.35058394182854" lon="-0.524153254175678"><ele>130.0</ele><time>2026-04-22T14:25:59.001Z</time></trkpt><trkpt lat="43.35066775796473" lon="-0.5242651507778847"><ele>130.0</ele><time>2026-04-22T14:26:01.001Z</time></trkpt><trkpt lat="43.35074212867736" lon="-0.5243751337357961"><ele>130.0</ele><time>2026-04-22T14:26:03.001Z</time></trkpt><trkpt lat="43.35081562129773" lon="-0.5244884041948396"><ele>130.0</ele><time>2026-04-22T14:26:05.001Z</time></trkpt><trkpt lat="43.35088688451235" lon="-0.5246015401639181"><ele>130.0</ele><time>2026-04-22T14:26:07.001Z</time></trkpt><trkpt lat="43.35095729945961" lon="-0.5247121524338867"><ele>130.0</ele><time>2026-04-22T14:26:09.001Z</time></trkpt><trkpt lat="43.351021989004806" lon="-0.5248338822715243"><ele>130.0</ele><time>2026-04-22T14:26:11.001Z</time></trkpt><trkpt lat="43.351085662380086" lon="-0.5249572782531219"><ele>130.0</ele><time>2026-04-22T14:26:13.001Z</time></trkpt><trkpt lat="43.35114774867065" lon="-0.5250884380005965"><ele>130.0</ele><time>2026-04-22T14:26:15.001Z</time></trkpt><trkpt lat="43.351209003420585" lon="-0.5252127131064209"><ele>130.0</ele><time>2026-04-22T14:26:17.001Z</time></trkpt><trkpt lat="43.35126213517724" lon="-0.5253455805752455"><ele>130.0</ele><time>2026-04-22T14:26:19.001Z</time></trkpt><trkpt lat="43.351321287555784" lon="-0.5254719292963237"><ele>129.8</ele><time>2026-04-22T14:26:21.001Z</time></trkpt><trkpt lat="43.35138928835155" lon="-0.5255940364551901"><ele>129.6</ele><time>2026-04-22T14:26:23.001Z</time></trkpt><trkpt lat="43.3514799731438" lon="-0.525680340600938"><ele>129.4</ele><time>2026-04-22T14:26:25.001Z</time></trkpt><trkpt lat="43.35158357156169" lon="-0.5257300675453012"><ele>129.2</ele><time>2026-04-22T14:26:27.001Z</time></trkpt><trkpt lat="43.35166632061452" lon="-0.5258207101048674"><ele>129.0</ele><time>2026-04-22T14:26:29.001Z</time></trkpt><trkpt lat="43.35170185976573" lon="-0.5259656336474386"><ele>129.0</ele><time>2026-04-22T14:26:31.001Z</time></trkpt><trkpt lat="43.351695614837304" lon="-0.5261134739004275"><ele>129.0</ele><time>2026-04-22T14:26:33.001Z</time></trkpt><trkpt lat="43.35168357779236" lon="-0.5262588721799001"><ele>129.0</ele><time>2026-04-22T14:26:35.002Z</time></trkpt><trkpt lat="43.3517149173086" lon="-0.5264128336292966"><ele>129.0</ele><time>2026-04-22T14:26:37.002Z</time></trkpt><trkpt lat="43.351762381549264" lon="-0.5265621396702294"><ele>129.0</ele><time>2026-04-22T14:26:39Z</time></trkpt><trkpt lat="43.35182007389956" lon="-0.5267149060734692"><ele>129.0</ele><time>2026-04-22T14:26:41Z</time></trkpt><trkpt lat="43.351880065386105" lon="-0.5268643021724962"><ele>129.0</ele><time>2026-04-22T14:26:43Z</time></trkpt><trkpt lat="43.3519395571568" lon="-0.5270104741513549"><ele>129.0</ele><time>2026-04-22T14:26:45Z</time></trkpt><trkpt lat="43.35199385665694" lon="-0.5271537766532343"><ele>129.0</ele><time>2026-04-22T14:26:47Z</time></trkpt><trkpt lat="43.35204793641798" lon="-0.5272920690293514"><ele>129.0</ele><time>2026-04-22T14:26:49Z</time></trkpt><trkpt lat="43.35210066633981" lon="-0.5274294917957002"><ele>129.0</ele><time>2026-04-22T14:26:51Z</time></trkpt><trkpt lat="43.35215281024955" lon="-0.5275641968257951"><ele>129.0</ele><time>2026-04-22T14:26:53Z</time></trkpt><trkpt lat="43.352201795004106" lon="-0.5277062365292419"><ele>129.0</ele><time>2026-04-22T14:26:55Z</time></trkpt><trkpt lat="43.35225873942862" lon="-0.5278462149354923"><ele>129.0</ele><time>2026-04-22T14:26:57Z</time></trkpt><trkpt lat="43.3523103791521" lon="-0.5279936283905339"><ele>129.0</ele><time>2026-04-22T14:26:59Z</time></trkpt><trkpt lat="43.352367845581426" lon="-0.5281421853846833"><ele>129.0</ele><time>2026-04-22T14:27:01Z</time></trkpt><trkpt lat="43.35242911518221" lon="-0.52829180061965"><ele>129.0</ele><time>2026-04-22T14:27:03Z</time></trkpt><trkpt lat="43.352456725684945" lon="-0.5283697083160313"><ele>129.0</ele><time>2026-04-22T14:27:04Z</time></trkpt><trkpt lat="43.35250877333756" lon="-0.5285197427087578"><ele>129.0</ele><time>2026-04-22T14:27:06Z</time></trkpt><trkpt lat="43.35257603543593" lon="-0.5286622060272712"><ele>129.0</ele><time>2026-04-22T14:27:08Z</time></trkpt><trkpt lat="43.35263172822152" lon="-0.5288168105134537"><ele>129.0</ele><time>2026-04-22T14:27:10Z</time></trkpt><trkpt lat="43.352691551981316" lon="-0.5289571136468609"><ele>129.0</ele><time>2026-04-22T14:27:12Z</time></trkpt><trkpt lat="43.35274514618463" lon="-0.5291107889930917"><ele>128.75</ele><time>2026-04-22T14:27:14Z</time></trkpt><trkpt lat="43.352798251487584" lon="-0.5292626040289514"><ele>128.5</ele><time>2026-04-22T14:27:16Z</time></trkpt><trkpt lat="43.35284706406472" lon="-0.5294037596348413"><ele>128.25</ele><time>2026-04-22T14:27:18Z</time></trkpt><trkpt lat="43.352899711499774" lon="-0.5295407193687056"><ele>128.0</ele><time>2026-04-22T14:27:20Z</time></trkpt><trkpt lat="43.35295553009083" lon="-0.5296755346816807"><ele>127.80000000000001</ele><time>2026-04-22T14:27:22Z</time></trkpt><trkpt lat="43.35300172732102" lon="-0.5298064997593332"><ele>127.60000000000001</ele><time>2026-04-22T14:27:24Z</time></trkpt><trkpt lat="43.3530480939109" lon="-0.5299365356077768"><ele>127.39999999999999</ele><time>2026-04-22T14:27:26Z</time></trkpt><trkpt lat="43.35309747955704" lon="-0.530061883724818"><ele>127.19999999999999</ele><time>2026-04-22T14:27:28Z</time></trkpt><trkpt lat="43.35314362924592" lon="-0.5301907052874126"><ele>127.0</ele><time>2026-04-22T14:27:30Z</time></trkpt><trkpt lat="43.35319247592524" lon="-0.530319314392923"><ele>126.8</ele><time>2026-04-22T14:27:32Z</time></trkpt><trkpt lat="43.353242583019544" lon="-0.5304509524251819"><ele>126.6</ele><time>2026-04-22T14:27:34Z</time></trkpt><trkpt lat="43.353288498385346" lon="-0.5305791961403227"><ele>126.39999999999999</ele><time>2026-04-22T14:27:36Z</time></trkpt><trkpt lat="43.35333474368585" lon="-0.5307088145775877"><ele>126.19999999999999</ele><time>2026-04-22T14:27:38Z</time></trkpt><trkpt lat="43.35338567822229" lon="-0.5308354363402813"><ele>126.0</ele><time>2026-04-22T14:27:40Z</time></trkpt><trkpt lat="43.35343349136737" lon="-0.5309643619946232"><ele>126.0</ele><time>2026-04-22T14:27:42.001Z</time></trkpt><trkpt lat="43.35348291099032" lon="-0.5310886901663552"><ele>126.0</ele><time>2026-04-22T14:27:44.001Z</time></trkpt><trkpt lat="43.353526394186" lon="-0.5312149134601334"><ele>126.0</ele><time>2026-04-22T14:27:46.001Z</time></trkpt><trkpt lat="43.35356183804657" lon="-0.531349355937837"><ele>126.0</ele><time>2026-04-22T14:27:48.001Z</time></trkpt><trkpt lat="43.35362798995705" lon="-0.5314811457594858"><ele>126.0</ele><time>2026-04-22T14:27:50.001Z</time></trkpt><trkpt lat="43.353674309475096" lon="-0.5316135164383926"><ele>126.0</ele><time>2026-04-22T14:27:52.001Z</time></trkpt><trkpt lat="43.35372739824922" lon="-0.5317424166979429"><ele>126.0</ele><time>2026-04-22T14:27:54.001Z</time></trkpt><trkpt lat="43.35377706074602" lon="-0.531864108420255"><ele>126.0</ele><time>2026-04-22T14:27:56.001Z</time></trkpt><trkpt lat="43.35382668424106" lon="-0.5319904471515561"><ele>126.0</ele><time>2026-04-22T14:27:58.001Z</time></trkpt><trkpt lat="43.353871741511114" lon="-0.5321245563361654"><ele>126.0</ele><time>2026-04-22T14:28:00.001Z</time></trkpt><trkpt lat="43.35392279357875" lon="-0.5322554823462685"><ele>126.0</ele><time>2026-04-22T14:28:02.001Z</time></trkpt><trkpt lat="43.35396855148587" lon="-0.5323941616165431"><ele>126.0</ele><time>2026-04-22T14:28:04.001Z</time></trkpt><trkpt lat="43.35402419901607" lon="-0.5325280926512864"><ele>126.0</ele><time>2026-04-22T14:28:06.001Z</time></trkpt><trkpt lat="43.35407139961028" lon="-0.5326653748905923"><ele>126.0</ele><time>2026-04-22T14:28:08.001Z</time></trkpt><trkpt lat="43.35412539277471" lon="-0.5328010443934469"><ele>126.0</ele><time>2026-04-22T14:28:10.001Z</time></trkpt><trkpt lat="43.35417622982625" lon="-0.5329360117138656"><ele>126.0</ele><time>2026-04-22T14:28:12.001Z</time></trkpt><trkpt lat="43.3542511615911" lon="-0.5331420996954713"><ele>126.0</ele><time>2026-04-22T14:28:15.001Z</time></trkpt><trkpt lat="43.3543089865319" lon="-0.5332807207297979"><ele>126.0</ele><time>2026-04-22T14:28:17.001Z</time></trkpt><trkpt lat="43.354363121701525" lon="-0.5334233976668299"><ele>126.0</ele><time>2026-04-22T14:28:19.001Z</time></trkpt><trkpt lat="43.35441577842312" lon="-0.5335704333608068"><ele>126.0</ele><time>2026-04-22T14:28:21.001Z</time></trkpt><trkpt lat="43.35446763227988" lon="-0.5337133766094322"><ele>126.0</ele><time>2026-04-22T14:28:23.001Z</time></trkpt><trkpt lat="43.35452534673188" lon="-0.5338539469963506"><ele>126.0</ele><time>2026-04-22T14:28:25.001Z</time></trkpt><trkpt lat="43.354581460732895" lon="-0.5339954494965719"><ele>126.0</ele><time>2026-04-22T14:28:27.001Z</time></trkpt><trkpt lat="43.35463585142867" lon="-0.5341397615986048"><ele>126.0</ele><time>2026-04-22T14:28:29.001Z</time></trkpt><trkpt lat="43.354692350225555" lon="-0.5342899377059431"><ele>126.0</ele><time>2026-04-22T14:28:31.001Z</time></trkpt><trkpt lat="43.35474947002952" lon="-0.5344362312313118"><ele>126.0</ele><time>2026-04-22T14:28:33.001Z</time></trkpt><trkpt lat="43.35480787786272" lon="-0.5345888084903893"><ele>126.0</ele><time>2026-04-22T14:28:35.001Z</time></trkpt><trkpt lat="43.35486702231957" lon="-0.5347411945472008"><ele>126.0</ele><time>2026-04-22T14:28:37.001Z</time></trkpt><trkpt lat="43.35489620127956" lon="-0.5348189888609072"><ele>126.0</ele><time>2026-04-22T14:28:38.001Z</time></trkpt><trkpt lat="43.3549241412836" lon="-0.5348976448856576"><ele>126.0</ele><time>2026-04-22T14:28:39.001Z</time></trkpt><trkpt lat="43.354953876493575" lon="-0.5349768772470066"><ele>126.0</ele><time>2026-04-22T14:28:40.001Z</time></trkpt><trkpt lat="43.35498374689724" lon="-0.5350564447471738"><ele>126.0</ele><time>2026-04-22T14:28:41.001Z</time></trkpt><trkpt lat="43.35501367784923" lon="-0.5351370753730564"><ele>126.0</ele><time>2026-04-22T14:28:42.001Z</time></trkpt><trkpt lat="43.35504375451193" lon="-0.5352186109216945"><ele>126.0</ele><time>2026-04-22T14:28:43.001Z</time></trkpt><trkpt lat="43.35507556769098" lon="-0.535297191824432"><ele>126.0</ele><time>2026-04-22T14:28:44.001Z</time></trkpt><trkpt lat="43.35510915069371" lon="-0.535377654717378"><ele>126.0</ele><time>2026-04-22T14:28:45Z</time></trkpt><trkpt lat="43.35514046196822" lon="-0.5354574354608556"><ele>126.0</ele><time>2026-04-22T14:28:46Z</time></trkpt><trkpt lat="43.355170922462904" lon="-0.5355385916246354"><ele>126.0</ele><time>2026-04-22T14:28:47Z</time></trkpt><trkpt lat="43.35519978242406" lon="-0.5356203268798331"><ele>126.0</ele><time>2026-04-22T14:28:48Z</time></trkpt><trkpt lat="43.35522877348756" lon="-0.5357029906697336"><ele>126.0</ele><time>2026-04-22T14:28:49Z</time></trkpt><trkpt lat="43.35526117727294" lon="-0.5357817555395183"><ele>126.0</ele><time>2026-04-22T14:28:50Z</time></trkpt><trkpt lat="43.355294164319446" lon="-0.5358606146272206"><ele>126.28571428571428</ele><time>2026-04-22T14:28:51Z</time></trkpt><trkpt lat="43.35532349065558" lon="-0.535942086065163"><ele>126.57142857142857</ele><time>2026-04-22T14:28:52Z</time></trkpt><trkpt lat="43.35535220193075" lon="-0.5360247148892855"><ele>126.85714285714286</ele><time>2026-04-22T14:28:53Z</time></trkpt><trkpt lat="43.355382710762086" lon="-0.5361053158756479"><ele>127.14285714285714</ele><time>2026-04-22T14:28:54Z</time></trkpt><trkpt lat="43.355415121108074" lon="-0.5361845834598027"><ele>127.42857142857142</ele><time>2026-04-22T14:28:55Z</time></trkpt><trkpt lat="43.3554478882041" lon="-0.5362621453066544"><ele>127.71428571428571</ele><time>2026-04-22T14:28:56Z</time></trkpt><trkpt lat="43.35547809119814" lon="-0.536339264289165"><ele>128.0</ele><time>2026-04-22T14:28:57Z</time></trkpt><trkpt lat="43.35550789691277" lon="-0.5364159159363594"><ele>127.60000000000001</ele><time>2026-04-22T14:28:58Z</time></trkpt><trkpt lat="43.35553147731592" lon="-0.5365016679533486"><ele>127.20000000000002</ele><time>2026-04-22T14:28:59Z</time></trkpt><trkpt lat="43.35558589346334" lon="-0.536657771456926"><ele>126.8</ele><time>2026-04-22T14:29:01Z</time></trkpt><trkpt lat="43.355636590918905" lon="-0.5368100136405037"><ele>126.4</ele><time>2026-04-22T14:29:03Z</time></trkpt><trkpt lat="43.35568728182375" lon="-0.5369563562266688"><ele>126.0</ele><time>2026-04-22T14:29:05Z</time></trkpt><trkpt lat="43.355732939536765" lon="-0.537107841169266"><ele>125.75</ele><time>2026-04-22T14:29:07Z</time></trkpt><trkpt lat="43.35577657019496" lon="-0.5372528218820641"><ele>125.5</ele><time>2026-04-22T14:29:09Z</time></trkpt><trkpt lat="43.35581450666763" lon="-0.5374027379241735"><ele>125.25</ele><time>2026-04-22T14:29:11Z</time></trkpt><trkpt lat="43.35585727853244" lon="-0.5375412752768657"><ele>125.0</ele><time>2026-04-22T14:29:13Z</time></trkpt><trkpt lat="43.35590232266433" lon="-0.5376834495847245"><ele>125.0</ele><time>2026-04-22T14:29:15Z</time></trkpt><trkpt lat="43.355941635362676" lon="-0.5378243044666183"><ele>125.0</ele><time>2026-04-22T14:29:17Z</time></trkpt><trkpt lat="43.355985421998405" lon="-0.5379687194596717"><ele>125.0</ele><time>2026-04-22T14:29:19Z</time></trkpt><trkpt lat="43.35602253852365" lon="-0.5381183512618142"><ele>125.0</ele><time>2026-04-22T14:29:21Z</time></trkpt><trkpt lat="43.35607223848944" lon="-0.5382660567421353"><ele>125.75</ele><time>2026-04-22T14:29:23Z</time></trkpt><trkpt lat="43.35612295918031" lon="-0.5384184284704082"><ele>126.5</ele><time>2026-04-22T14:29:25Z</time></trkpt><trkpt lat="43.35616361332714" lon="-0.5385720605005161"><ele>127.25</ele><time>2026-04-22T14:29:27Z</time></trkpt><trkpt lat="43.35621030622103" lon="-0.538720454708444"><ele>128.0</ele><time>2026-04-22T14:29:29Z</time></trkpt><trkpt lat="43.356252938424305" lon="-0.5388756363215603"><ele>129.5</ele><time>2026-04-22T14:29:31Z</time></trkpt><trkpt lat="43.35630146326288" lon="-0.5390268911748435"><ele>131.0</ele><time>2026-04-22T14:29:33Z</time></trkpt><trkpt lat="43.35634434526071" lon="-0.5391773982744335"><ele>132.5</ele><time>2026-04-22T14:29:35Z</time></trkpt><trkpt lat="43.35639049279584" lon="-0.5393290034574265"><ele>134.0</ele><time>2026-04-22T14:29:37Z</time></trkpt><trkpt lat="43.356431145712236" lon="-0.5394786996089205"><ele>131.75</ele><time>2026-04-22T14:29:39Z</time></trkpt><trkpt lat="43.35647935387596" lon="-0.5396271824618833"><ele>129.5</ele><time>2026-04-22T14:29:41Z</time></trkpt><trkpt lat="43.356523939085946" lon="-0.5397794784828177"><ele>127.25</ele><time>2026-04-22T14:29:43Z</time></trkpt><trkpt lat="43.356571484618996" lon="-0.5399289394868714"><ele>125.0</ele><time>2026-04-22T14:29:45.001Z</time></trkpt><trkpt lat="43.35661272251587" lon="-0.540070664348568"><ele>125.0</ele><time>2026-04-22T14:29:47.001Z</time></trkpt><trkpt lat="43.3566559399583" lon="-0.5402155543453481"><ele>125.0</ele><time>2026-04-22T14:29:49.001Z</time></trkpt><trkpt lat="43.35669756969377" lon="-0.5403644863659538"><ele>125.0</ele><time>2026-04-22T14:29:51.001Z</time></trkpt><trkpt lat="43.35674105146217" lon="-0.5405186404758561"><ele>125.0</ele><time>2026-04-22T14:29:53.001Z</time></trkpt><trkpt lat="43.35678505386976" lon="-0.5406693405028301"><ele>125.25</ele><time>2026-04-22T14:29:55.001Z</time></trkpt><trkpt lat="43.35682893967361" lon="-0.5408285190819317"><ele>125.5</ele><time>2026-04-22T14:29:57.001Z</time></trkpt><trkpt lat="43.35687503846197" lon="-0.5409781550470425"><ele>125.75</ele><time>2026-04-22T14:29:59.001Z</time></trkpt><trkpt lat="43.35691610398549" lon="-0.5411207055192786"><ele>126.0</ele><time>2026-04-22T14:30:01.001Z</time></trkpt><trkpt lat="43.35695965691994" lon="-0.5412610079721208"><ele>126.0</ele><time>2026-04-22T14:30:03.001Z</time></trkpt><trkpt lat="43.357003163326446" lon="-0.5414091611074469"><ele>126.0</ele><time>2026-04-22T14:30:05.001Z</time></trkpt><trkpt lat="43.357046134917496" lon="-0.5415571634915233"><ele>126.0</ele><time>2026-04-22T14:30:07.001Z</time></trkpt><trkpt lat="43.35708603244731" lon="-0.5417032342941875"><ele>126.0</ele><time>2026-04-22T14:30:09.001Z</time></trkpt><trkpt lat="43.357127577541526" lon="-0.5418472448077992"><ele>126.0</ele><time>2026-04-22T14:30:11.001Z</time></trkpt><trkpt lat="43.35717088572439" lon="-0.5419934117080627"><ele>126.0</ele><time>2026-04-22T14:30:13.001Z</time></trkpt><trkpt lat="43.35721477325838" lon="-0.5421420227052701"><ele>126.0</ele><time>2026-04-22T14:30:15.001Z</time></trkpt><trkpt lat="43.357261428004634" lon="-0.5422979060027622"><ele>126.0</ele><time>2026-04-22T14:30:17.001Z</time></trkpt><trkpt lat="43.357303784237224" lon="-0.5424469752257575"><ele>125.6</ele><time>2026-04-22T14:30:19.001Z</time></trkpt><trkpt lat="43.35734674858388" lon="-0.5425916284329403"><ele>125.19999999999999</ele><time>2026-04-22T14:30:21.001Z</time></trkpt><trkpt lat="43.357386164573924" lon="-0.5427292297594737"><ele>124.80000000000001</ele><time>2026-04-22T14:30:23.001Z</time></trkpt><trkpt lat="43.35742588863142" lon="-0.5428644813681929"><ele>124.4</ele><time>2026-04-22T14:30:25.001Z</time></trkpt><trkpt lat="43.35746295289587" lon="-0.5429964288802742"><ele>124.0</ele><time>2026-04-22T14:30:27.001Z</time></trkpt><trkpt lat="43.357497195638594" lon="-0.5431405276110375"><ele>124.0</ele><time>2026-04-22T14:30:29.001Z</time></trkpt><trkpt lat="43.35753283345806" lon="-0.5432939147998938"><ele>124.0</ele><time>2026-04-22T14:30:31.001Z</time></trkpt><trkpt lat="43.35756768285494" lon="-0.5434543165356455"><ele>124.0</ele><time>2026-04-22T14:30:33.001Z</time></trkpt><trkpt lat="43.35760259001359" lon="-0.5436094236196702"><ele>124.0</ele><time>2026-04-22T14:30:35.001Z</time></trkpt><trkpt lat="43.35762895204148" lon="-0.5437677515080097"><ele>124.25</ele><time>2026-04-22T14:30:37.001Z</time></trkpt><trkpt lat="43.35766046054733" lon="-0.5439271394703487"><ele>124.5</ele><time>2026-04-22T14:30:39.001Z</time></trkpt><trkpt lat="43.35769262107836" lon="-0.544083614991668"><ele>124.75</ele><time>2026-04-22T14:30:41.001Z</time></trkpt><trkpt lat="43.357725566352634" lon="-0.5442415652848812"><ele>125.0</ele><time>2026-04-22T14:30:43.001Z</time></trkpt><trkpt lat="43.35775667741798" lon="-0.5443968804058654"><ele>125.0</ele><time>2026-04-22T14:30:45.001Z</time></trkpt><trkpt lat="43.35778328629672" lon="-0.5445540912834592"><ele>125.0</ele><time>2026-04-22T14:30:47.001Z</time></trkpt><trkpt lat="43.35781700671813" lon="-0.544708099189444"><ele>125.0</ele><time>2026-04-22T14:30:49.001Z</time></trkpt><trkpt lat="43.357845281134814" lon="-0.5448653859034158"><ele>125.0</ele><time>2026-04-22T14:30:51Z</time></trkpt><trkpt lat="43.35787806123041" lon="-0.5450219748928845"><ele>125.0</ele><time>2026-04-22T14:30:53Z</time></trkpt><trkpt lat="43.35790962310378" lon="-0.5451796494697789"><ele>125.0</ele><time>2026-04-22T14:30:55Z</time></trkpt><trkpt lat="43.35793847912469" lon="-0.5453345034792315"><ele>125.0</ele><time>2026-04-22T14:30:57Z</time></trkpt><trkpt lat="43.35796968918097" lon="-0.5454895712623073"><ele>125.0</ele><time>2026-04-22T14:30:59Z</time></trkpt><trkpt lat="43.35799870309228" lon="-0.545643601357721"><ele>125.25</ele><time>2026-04-22T14:31:01Z</time></trkpt><trkpt lat="43.3580284554942" lon="-0.5457963266399835"><ele>125.5</ele><time>2026-04-22T14:31:03Z</time></trkpt><trkpt lat="43.358056848285564" lon="-0.5459482548855173"><ele>125.75</ele><time>2026-04-22T14:31:05Z</time></trkpt><trkpt lat="43.358084811018195" lon="-0.5461008867377742"><ele>126.0</ele><time>2026-04-22T14:31:07Z</time></trkpt><trkpt lat="43.35811413864337" lon="-0.5462537731503766"><ele>125.4</ele><time>2026-04-22T14:31:09Z</time></trkpt><trkpt lat="43.35814395456051" lon="-0.5464033975367298"><ele>124.8</ele><time>2026-04-22T14:31:11Z</time></trkpt><trkpt lat="43.358175122985735" lon="-0.5465491021208632"><ele>124.20000000000002</ele><time>2026-04-22T14:31:13Z</time></trkpt><trkpt lat="43.35820073490031" lon="-0.5466909730805644"><ele>123.60000000000001</ele><time>2026-04-22T14:31:15Z</time></trkpt><trkpt lat="43.3582266194117" lon="-0.546832439704924"><ele>123.0</ele><time>2026-04-22T14:31:17Z</time></trkpt><trkpt lat="43.358255768090494" lon="-0.5469778017798214"><ele>123.4</ele><time>2026-04-22T14:31:19Z</time></trkpt><trkpt lat="43.35828631465878" lon="-0.5471215370195213"><ele>123.80000000000001</ele><time>2026-04-22T14:31:21Z</time></trkpt><trkpt lat="43.35831651382149" lon="-0.5472654308751942"><ele>124.2</ele><time>2026-04-22T14:31:23Z</time></trkpt><trkpt lat="43.358343182468005" lon="-0.5474089969599454"><ele>124.6</ele><time>2026-04-22T14:31:25Z</time></trkpt><trkpt lat="43.358378736068914" lon="-0.5475468747036006"><ele>125.0</ele><time>2026-04-22T14:31:27Z</time></trkpt><trkpt lat="43.358408982427676" lon="-0.5476836938888521"><ele>125.0</ele><time>2026-04-22T14:31:29Z</time></trkpt><trkpt lat="43.35844321544541" lon="-0.547820480885691"><ele>125.0</ele><time>2026-04-22T14:31:31Z</time></trkpt><trkpt lat="43.35847412392325" lon="-0.5479502490779818"><ele>125.0</ele><time>2026-04-22T14:31:33Z</time></trkpt><trkpt lat="43.35850449623268" lon="-0.5480879305045878"><ele>125.0</ele><time>2026-04-22T14:31:35Z</time></trkpt><trkpt lat="43.358534552968806" lon="-0.5482203173955474"><ele>125.0</ele><time>2026-04-22T14:31:37Z</time></trkpt><trkpt lat="43.35856652801408" lon="-0.5483576250389238"><ele>125.4</ele><time>2026-04-22T14:31:39Z</time></trkpt><trkpt lat="43.3586008379429" lon="-0.5484883141855458"><ele>125.8</ele><time>2026-04-22T14:31:41Z</time></trkpt><trkpt lat="43.35863132652329" lon="-0.548611925039085"><ele>126.19999999999999</ele><time>2026-04-22T14:31:43Z</time></trkpt><trkpt lat="43.358660211249806" lon="-0.5487336559299224"><ele>126.6</ele><time>2026-04-22T14:31:45.001Z</time></trkpt><trkpt lat="43.35868705041093" lon="-0.5488623310792191"><ele>127.0</ele><time>2026-04-22T14:31:47.001Z</time></trkpt><trkpt lat="43.358720689116566" lon="-0.5489970344381101"><ele>127.0</ele><time>2026-04-22T14:31:49.001Z</time></trkpt><trkpt lat="43.35875431359023" lon="-0.5491361136263415"><ele>126.99999999999999</ele><time>2026-04-22T14:31:51.001Z</time></trkpt><trkpt lat="43.35879660182517" lon="-0.5492775343804113"><ele>126.99999999999999</ele><time>2026-04-22T14:31:53.001Z</time></trkpt><trkpt lat="43.358826642562015" lon="-0.5494261710959931"><ele>127.0</ele><time>2026-04-22T14:31:55.001Z</time></trkpt><trkpt lat="43.35885611943446" lon="-0.5495691992546128"><ele>127.0</ele><time>2026-04-22T14:31:57.001Z</time></trkpt><trkpt lat="43.35888961121329" lon="-0.5497076508186249"><ele>126.39999999999999</ele><time>2026-04-22T14:31:59.001Z</time></trkpt><trkpt lat="43.35892138460685" lon="-0.5498444205308484"><ele>125.79999999999998</ele><time>2026-04-22T14:32:01.001Z</time></trkpt><trkpt lat="43.358953542371594" lon="-0.5499853641745901"><ele>125.2</ele><time>2026-04-22T14:32:03.001Z</time></trkpt><trkpt lat="43.358984021751425" lon="-0.550129749939209"><ele>124.6</ele><time>2026-04-22T14:32:05.001Z</time></trkpt><trkpt lat="43.35902146780617" lon="-0.5502743008764513"><ele>124.0</ele><time>2026-04-22T14:32:07.001Z</time></trkpt><trkpt lat="43.35905652049183" lon="-0.5504190924474683"><ele>124.0</ele><time>2026-04-22T14:32:09.001Z</time></trkpt><trkpt lat="43.35909174972597" lon="-0.5505585122479734"><ele>124.0</ele><time>2026-04-22T14:32:11.001Z</time></trkpt><trkpt lat="43.35912439449816" lon="-0.5506989100141194"><ele>124.0</ele><time>2026-04-22T14:32:13.001Z</time></trkpt><trkpt lat="43.35915745777668" lon="-0.55083870348103"><ele>124.0</ele><time>2026-04-22T14:32:15.001Z</time></trkpt><trkpt lat="43.35919566592852" lon="-0.550982569424797"><ele>124.0</ele><time>2026-04-22T14:32:17.001Z</time></trkpt><trkpt lat="43.35922816448209" lon="-0.5511322515983348"><ele>123.80000000000001</ele><time>2026-04-22T14:32:19.001Z</time></trkpt><trkpt lat="43.359261058642545" lon="-0.5512794369322093"><ele>123.60000000000001</ele><time>2026-04-22T14:32:21.001Z</time></trkpt><trkpt lat="43.35929550356019" lon="-0.5514281615219591"><ele>123.4</ele><time>2026-04-22T14:32:23.001Z</time></trkpt><trkpt lat="43.3593314158092" lon="-0.5515699236627123"><ele>123.2</ele><time>2026-04-22T14:32:25.001Z</time></trkpt><trkpt lat="43.359371696509086" lon="-0.5517089237661438"><ele>123.0</ele><time>2026-04-22T14:32:27.001Z</time></trkpt><trkpt lat="43.35940119162506" lon="-0.5518513124806071"><ele>123.0</ele><time>2026-04-22T14:32:29.001Z</time></trkpt><trkpt lat="43.359435756301735" lon="-0.5519949696874609"><ele>123.00000000000001</ele><time>2026-04-22T14:32:31.001Z</time></trkpt><trkpt lat="43.35945920449439" lon="-0.5521422518811889"><ele>123.00000000000001</ele><time>2026-04-22T14:32:33.001Z</time></trkpt><trkpt lat="43.35949612835657" lon="-0.5522830129471397"><ele>123.0</ele><time>2026-04-22T14:32:35.001Z</time></trkpt><trkpt lat="43.35953061425761" lon="-0.5524284951323061"><ele>123.0</ele><time>2026-04-22T14:32:37.001Z</time></trkpt><trkpt lat="43.359568760007605" lon="-0.5525729320503495"><ele>123.0</ele><time>2026-04-22T14:32:39.001Z</time></trkpt><trkpt lat="43.359611686854954" lon="-0.5527160458816829"><ele>123.0</ele><time>2026-04-22T14:32:41.001Z</time></trkpt><trkpt lat="43.35966370271925" lon="-0.5528555572195585"><ele>123.0</ele><time>2026-04-22T14:32:43.001Z</time></trkpt><trkpt lat="43.35974389323088" lon="-0.5529646202489794"><ele>123.0</ele><time>2026-04-22T14:32:45.001Z</time></trkpt><trkpt lat="43.359860611613534" lon="-0.5529862471665687"><ele>123.0</ele><time>2026-04-22T14:32:47.001Z</time></trkpt><trkpt lat="43.359967664422705" lon="-0.5529389848808028"><ele>123.00000000000001</ele><time>2026-04-22T14:32:49.001Z</time></trkpt><trkpt lat="43.36005107318257" lon="-0.5528234265697474"><ele>123.00000000000001</ele><time>2026-04-22T14:32:51.001Z</time></trkpt><trkpt lat="43.3600489491747" lon="-0.5526469819732942"><ele>123.0</ele><time>2026-04-22T14:32:53.001Z</time></trkpt><trkpt lat="43.360019254733324" lon="-0.5525643825315524"><ele>123.0</ele><time>2026-04-22T14:32:54.001Z</time></trkpt><trkpt lat="43.35998639486458" lon="-0.5524890745662581"><ele>123.14285714285717</ele><time>2026-04-22T14:32:55.001Z</time></trkpt><trkpt lat="43.35995391579752" lon="-0.5524116654568899"><ele>123.28571428571429</ele><time>2026-04-22T14:32:56.001Z</time></trkpt><trkpt lat="43.359922387866916" lon="-0.5523356576813719"><ele>123.42857142857144</ele><time>2026-04-22T14:32:57Z</time></trkpt><trkpt lat="43.35986866040544" lon="-0.55217958662168"><ele>123.57142857142858</ele><time>2026-04-22T14:32:59Z</time></trkpt><trkpt lat="43.3598515832956" lon="-0.55209389780706"><ele>123.71428571428572</ele><time>2026-04-22T14:33:00Z</time></trkpt><trkpt lat="43.35984013046921" lon="-0.5520058327916053"><ele>123.85714285714286</ele><time>2026-04-22T14:33:01Z</time></trkpt><trkpt lat="43.35983374348387" lon="-0.5519196925443052"><ele>124.0</ele><time>2026-04-22T14:33:02Z</time></trkpt><trkpt lat="43.35983245814072" lon="-0.5518271147408991"><ele>123.85714285714286</ele><time>2026-04-22T14:33:03Z</time></trkpt><trkpt lat="43.35983606934931" lon="-0.5517337154796419"><ele>123.71428571428572</ele><time>2026-04-22T14:33:04Z</time></trkpt><trkpt lat="43.35983910307162" lon="-0.5516415068614364"><ele>123.57142857142858</ele><time>2026-04-22T14:33:05Z</time></trkpt><trkpt lat="43.359841760356765" lon="-0.5515509353256532"><ele>123.42857142857144</ele><time>2026-04-22T14:33:06Z</time></trkpt><trkpt lat="43.35984406824031" lon="-0.5514600744364231"><ele>123.28571428571429</ele><time>2026-04-22T14:33:07Z</time></trkpt><trkpt lat="43.35984970442442" lon="-0.5513674436661297"><ele>123.14285714285717</ele><time>2026-04-22T14:33:08Z</time></trkpt><trkpt lat="43.35985574421879" lon="-0.5512730678911264"><ele>123.00000000000001</ele><time>2026-04-22T14:33:09Z</time></trkpt><trkpt lat="43.359858493937814" lon="-0.5511802144955159"><ele>123.00000000000001</ele><time>2026-04-22T14:33:10Z</time></trkpt><trkpt lat="43.35986049893708" lon="-0.5510870077849656"><ele>123.0</ele><time>2026-04-22T14:33:11Z</time></trkpt><trkpt lat="43.359867442099784" lon="-0.5509927635404458"><ele>123.00000000000001</ele><time>2026-04-22T14:33:12Z</time></trkpt><trkpt lat="43.359873823002566" lon="-0.5508991644394577"><ele>123.00000000000001</ele><time>2026-04-22T14:33:13Z</time></trkpt><trkpt lat="43.35987878052712" lon="-0.5508057744689185"><ele>123.0</ele><time>2026-04-22T14:33:14Z</time></trkpt><trkpt lat="43.35988237573654" lon="-0.5507125848012264"><ele>123.00000000000001</ele><time>2026-04-22T14:33:15Z</time></trkpt><trkpt lat="43.35988892388725" lon="-0.5506153619743328"><ele>123.00000000000001</ele><time>2026-04-22T14:33:16Z</time></trkpt><trkpt lat="43.359893822821476" lon="-0.5505187531428556"><ele>123.00000000000001</ele><time>2026-04-22T14:33:17Z</time></trkpt><trkpt lat="43.35990168650393" lon="-0.5504217952599194"><ele>123.0</ele><time>2026-04-22T14:33:18Z</time></trkpt><trkpt lat="43.35990709934072" lon="-0.5503280034066642"><ele>123.00000000000001</ele><time>2026-04-22T14:33:19Z</time></trkpt><trkpt lat="43.35991268023116" lon="-0.5502308328893932"><ele>123.00000000000001</ele><time>2026-04-22T14:33:20Z</time></trkpt><trkpt lat="43.359914109371886" lon="-0.5501393265119331"><ele>123.0</ele><time>2026-04-22T14:33:21Z</time></trkpt><trkpt lat="43.35991689863571" lon="-0.5500455781952795"><ele>123.00000000000001</ele><time>2026-04-22T14:33:22Z</time></trkpt><trkpt lat="43.35992313730461" lon="-0.5499502919435791"><ele>123.00000000000001</ele><time>2026-04-22T14:33:23Z</time></trkpt><trkpt lat="43.35992593536476" lon="-0.5498556854600585"><ele>123.00000000000001</ele><time>2026-04-22T14:33:24Z</time></trkpt><trkpt lat="43.35992745303086" lon="-0.5497677925613785"><ele>123.0</ele><time>2026-04-22T14:33:25Z</time></trkpt><trkpt lat="43.359931762984786" lon="-0.5496685151090435"><ele>123.00000000000001</ele><time>2026-04-22T14:33:26Z</time></trkpt><trkpt lat="43.35993621904911" lon="-0.5495736719959655"><ele>123.00000000000001</ele><time>2026-04-22T14:33:27Z</time></trkpt><trkpt lat="43.35993747826153" lon="-0.549478804801986"><ele>123.0</ele><time>2026-04-22T14:33:28Z</time></trkpt><trkpt lat="43.35994158095215" lon="-0.5493812286986367"><ele>123.00000000000001</ele><time>2026-04-22T14:33:29Z</time></trkpt><trkpt lat="43.35994513634725" lon="-0.5492837499705696"><ele>123.00000000000001</ele><time>2026-04-22T14:33:30Z</time></trkpt><trkpt lat="43.35995105735687" lon="-0.5491881171656269"><ele>123.00000000000001</ele><time>2026-04-22T14:33:31Z</time></trkpt><trkpt lat="43.35995732231552" lon="-0.5490913051959163"><ele>123.0</ele><time>2026-04-22T14:33:32Z</time></trkpt><trkpt lat="43.359960899468255" lon="-0.548994232726549"><ele>123.00000000000001</ele><time>2026-04-22T14:33:33Z</time></trkpt><trkpt lat="43.35995906642322" lon="-0.5489008277699077"><ele>123.00000000000001</ele><time>2026-04-22T14:33:34Z</time></trkpt><trkpt lat="43.359964016963204" lon="-0.5488030916642044"><ele>123.0</ele><time>2026-04-22T14:33:35Z</time></trkpt><trkpt lat="43.359967103539226" lon="-0.5487071199447365"><ele>123.00000000000001</ele><time>2026-04-22T14:33:36Z</time></trkpt><trkpt lat="43.35997122185073" lon="-0.5486107463941419"><ele>123.00000000000001</ele><time>2026-04-22T14:33:37Z</time></trkpt><trkpt lat="43.35997662320759" lon="-0.5485127058517077"><ele>123.14285714285717</ele><time>2026-04-22T14:33:38Z</time></trkpt><trkpt lat="43.35998000745692" lon="-0.5484170734049242"><ele>123.28571428571429</ele><time>2026-04-22T14:33:39Z</time></trkpt><trkpt lat="43.3599845215407" lon="-0.5483169467294604"><ele>123.42857142857144</ele><time>2026-04-22T14:33:40Z</time></trkpt><trkpt lat="43.359986877309154" lon="-0.5482207559875026"><ele>123.57142857142858</ele><time>2026-04-22T14:33:41Z</time></trkpt><trkpt lat="43.35998916705581" lon="-0.5481221114042559"><ele>123.71428571428572</ele><time>2026-04-22T14:33:42Z</time></trkpt><trkpt lat="43.359996127159015" lon="-0.5480215269999633"><ele>123.85714285714286</ele><time>2026-04-22T14:33:43Z</time></trkpt><trkpt lat="43.3599996347665" lon="-0.5479222223035033"><ele>124.0</ele><time>2026-04-22T14:33:44Z</time></trkpt><trkpt lat="43.36000298410088" lon="-0.5478217829221941"><ele>124.0</ele><time>2026-04-22T14:33:45Z</time></trkpt><trkpt lat="43.360009332044335" lon="-0.5477218529581204"><ele>124.00000000000001</ele><time>2026-04-22T14:33:46Z</time></trkpt><trkpt lat="43.36001262835416" lon="-0.5476224660762512"><ele>124.0</ele><time>2026-04-22T14:33:47.001Z</time></trkpt><trkpt lat="43.36001668571467" lon="-0.5475223144293038"><ele>124.0</ele><time>2026-04-22T14:33:48.001Z</time></trkpt><trkpt lat="43.36001994432333" lon="-0.5474233582806634"><ele>124.00000000000001</ele><time>2026-04-22T14:33:49.001Z</time></trkpt><trkpt lat="43.36002512794961" lon="-0.547322239074795"><ele>124.0</ele><time>2026-04-22T14:33:50.001Z</time></trkpt><trkpt lat="43.360029162715506" lon="-0.5472219437452812"><ele>124.0</ele><time>2026-04-22T14:33:51.001Z</time></trkpt><trkpt lat="43.360033815805245" lon="-0.5471224387397082"><ele>124.0</ele><time>2026-04-22T14:33:52.001Z</time></trkpt><trkpt lat="43.360038569522686" lon="-0.547024747372138"><ele>124.00000000000001</ele><time>2026-04-22T14:33:53.001Z</time></trkpt><trkpt lat="43.360041054227395" lon="-0.5469281019014484"><ele>124.0</ele><time>2026-04-22T14:33:54.001Z</time></trkpt><trkpt lat="43.36004665788112" lon="-0.5468285903103339"><ele>124.0</ele><time>2026-04-22T14:33:55.001Z</time></trkpt><trkpt lat="43.36005185488941" lon="-0.5467282913691943"><ele>124.00000000000001</ele><time>2026-04-22T14:33:56.001Z</time></trkpt><trkpt lat="43.36005417716129" lon="-0.5466323637531505"><ele>124.0</ele><time>2026-04-22T14:33:57.001Z</time></trkpt><trkpt lat="43.36005897120906" lon="-0.5465336992481219"><ele>124.0</ele><time>2026-04-22T14:33:58.001Z</time></trkpt><trkpt lat="43.360063268718314" lon="-0.5464394312668037"><ele>124.0</ele><time>2026-04-22T14:33:59.001Z</time></trkpt><trkpt lat="43.360067525161874" lon="-0.5463406885970447"><ele>124.00000000000001</ele><time>2026-04-22T14:34:00.001Z</time></trkpt><trkpt lat="43.36007138477362" lon="-0.5462455095606674"><ele>124.0</ele><time>2026-04-22T14:34:01.001Z</time></trkpt><trkpt lat="43.360076359714384" lon="-0.5461500836864517"><ele>124.0</ele><time>2026-04-22T14:34:02.001Z</time></trkpt><trkpt lat="43.3600791652558" lon="-0.5460533636483381"><ele>124.00000000000001</ele><time>2026-04-22T14:34:03.001Z</time></trkpt><trkpt lat="43.36008086155933" lon="-0.5459569283104826"><ele>124.0</ele><time>2026-04-22T14:34:04.001Z</time></trkpt><trkpt lat="43.3600832384551" lon="-0.5458588696935351"><ele>124.0</ele><time>2026-04-22T14:34:05.001Z</time></trkpt><trkpt lat="43.3600871577939" lon="-0.5457619351808402"><ele>123.83333333333334</ele><time>2026-04-22T14:34:06.001Z</time></trkpt><trkpt lat="43.36009179881559" lon="-0.5456677377440049"><ele>123.66666666666667</ele><time>2026-04-22T14:34:07.001Z</time></trkpt><trkpt lat="43.36009476788962" lon="-0.5455725577631899"><ele>123.5</ele><time>2026-04-22T14:34:08.001Z</time></trkpt><trkpt lat="43.36010010341451" lon="-0.5454811680004998"><ele>123.33333333333334</ele><time>2026-04-22T14:34:09.001Z</time></trkpt><trkpt lat="43.36010228617936" lon="-0.5453917470088456"><ele>123.16666666666667</ele><time>2026-04-22T14:34:10.001Z</time></trkpt><trkpt lat="43.36010937313226" lon="-0.5452120357592345"><ele>123.0</ele><time>2026-04-22T14:34:12.001Z</time></trkpt><trkpt lat="43.360116911370355" lon="-0.545123146248257"><ele>123.00000000000001</ele><time>2026-04-22T14:34:13.001Z</time></trkpt><trkpt lat="43.36013763163071" lon="-0.5450321754010494"><ele>123.0</ele><time>2026-04-22T14:34:14.001Z</time></trkpt><trkpt lat="43.36015051730315" lon="-0.5449432807533148"><ele>123.00000000000001</ele><time>2026-04-22T14:34:15.001Z</time></trkpt><trkpt lat="43.360152982595636" lon="-0.5448490970808186"><ele>123.00000000000001</ele><time>2026-04-22T14:34:16.001Z</time></trkpt><trkpt lat="43.360148062114" lon="-0.5447575973140014"><ele>123.0</ele><time>2026-04-22T14:34:17.001Z</time></trkpt><trkpt lat="43.36014371140259" lon="-0.5446628781106017"><ele>123.00000000000001</ele><time>2026-04-22T14:34:18.001Z</time></trkpt><trkpt lat="43.36014546832202" lon="-0.5445648193480165"><ele>123.00000000000001</ele><time>2026-04-22T14:34:19.001Z</time></trkpt><trkpt lat="43.36014773842406" lon="-0.5444649294420588"><ele>122.85714285714288</ele><time>2026-04-22T14:34:20.001Z</time></trkpt><trkpt lat="43.36015205881861" lon="-0.54436825648825"><ele>122.71428571428572</ele><time>2026-04-22T14:34:21.001Z</time></trkpt><trkpt lat="43.36015846396141" lon="-0.5442720381321765"><ele>122.57142857142857</ele><time>2026-04-22T14:34:22.001Z</time></trkpt><trkpt lat="43.36016446655777" lon="-0.5441738189628155"><ele>122.42857142857143</ele><time>2026-04-22T14:34:23.001Z</time></trkpt><trkpt lat="43.360170636748855" lon="-0.5440753467324889"><ele>122.28571428571428</ele><time>2026-04-22T14:34:24.001Z</time></trkpt><trkpt lat="43.36017500218243" lon="-0.5439782305654409"><ele>122.14285714285712</ele><time>2026-04-22T14:34:25.001Z</time></trkpt><trkpt lat="43.360179975274505" lon="-0.5438791298190975"><ele>121.99999999999999</ele><time>2026-04-22T14:34:26.001Z</time></trkpt><trkpt lat="43.360181304167135" lon="-0.5437804328877415"><ele>122.16666666666666</ele><time>2026-04-22T14:34:27.001Z</time></trkpt><trkpt lat="43.3601821696565" lon="-0.5436850624588292"><ele>122.33333333333333</ele><time>2026-04-22T14:34:28.001Z</time></trkpt><trkpt lat="43.36018573797881" lon="-0.5435880556813955"><ele>122.5</ele><time>2026-04-22T14:34:29.001Z</time></trkpt><trkpt lat="43.360189214138444" lon="-0.5434938606834565"><ele>122.66666666666666</ele><time>2026-04-22T14:34:30.001Z</time></trkpt><trkpt lat="43.360198886757296" lon="-0.5433173488375725"><ele>122.83333333333333</ele><time>2026-04-22T14:34:32.001Z</time></trkpt><trkpt lat="43.360198169022745" lon="-0.5432257510295085"><ele>123.0</ele><time>2026-04-22T14:34:33.001Z</time></trkpt><trkpt lat="43.36019990709379" lon="-0.5431378433989821"><ele>123.0</ele><time>2026-04-22T14:34:34.001Z</time></trkpt><trkpt lat="43.360205459051784" lon="-0.542975450891452"><ele>123.00000000000001</ele><time>2026-04-22T14:34:36.001Z</time></trkpt><trkpt lat="43.36022707523075" lon="-0.5428525337721004"><ele>123.00000000000001</ele><time>2026-04-22T14:34:38.001Z</time></trkpt><trkpt lat="43.360296782581884" lon="-0.5427732375808945"><ele>123.0</ele><time>2026-04-22T14:34:40.001Z</time></trkpt><trkpt lat="43.36037782154279" lon="-0.5427932852708769"><ele>123.0</ele><time>2026-04-22T14:34:42.001Z</time></trkpt><trkpt lat="43.36043573656074" lon="-0.5428998120230594"><ele>123.0</ele><time>2026-04-22T14:34:44.001Z</time></trkpt><trkpt lat="43.36050983887463" lon="-0.5429990794871059"><ele>123.0</ele><time>2026-04-22T14:34:46.001Z</time></trkpt><trkpt lat="43.360585214397965" lon="-0.5430661962843635"><ele>123.0</ele><time>2026-04-22T14:34:48.001Z</time></trkpt><trkpt lat="43.360619734405326" lon="-0.5431433633821686"><ele>123.0</ele><time>2026-04-22T14:34:49.001Z</time></trkpt><trkpt lat="43.36070148604929" lon="-0.5432605766717639"><ele>123.0</ele><time>2026-04-22T14:34:51.001Z</time></trkpt><trkpt lat="43.360749815336" lon="-0.543326179940769"><ele>123.0</ele><time>2026-04-22T14:34:52.001Z</time></trkpt><trkpt lat="43.360823569841635" lon="-0.5434637408123136"><ele>123.0</ele><time>2026-04-22T14:34:54.001Z</time></trkpt><trkpt lat="43.36086577614585" lon="-0.5435303387674403"><ele>123.0</ele><time>2026-04-22T14:34:55.001Z</time></trkpt><trkpt lat="43.36090881264769" lon="-0.5435970368074806"><ele>123.0</ele><time>2026-04-22T14:34:56.001Z</time></trkpt><trkpt lat="43.36095110698307" lon="-0.5436624221956539"><ele>123.0</ele><time>2026-04-22T14:34:57.001Z</time></trkpt><trkpt lat="43.360990025515456" lon="-0.543731803392361"><ele>123.0</ele><time>2026-04-22T14:34:58.001Z</time></trkpt><trkpt lat="43.361074884203" lon="-0.5438690431348595"><ele>123.0</ele><time>2026-04-22T14:35:00.001Z</time></trkpt><trkpt lat="43.361110961285256" lon="-0.5439406592385028"><ele>122.83333333333333</ele><time>2026-04-22T14:35:01.001Z</time></trkpt><trkpt lat="43.36115187309995" lon="-0.5440082352414037"><ele>122.66666666666666</ele><time>2026-04-22T14:35:02.001Z</time></trkpt><trkpt lat="43.361198337383215" lon="-0.5440869541120985"><ele>122.5</ele><time>2026-04-22T14:35:03Z</time></trkpt><trkpt lat="43.361236827128614" lon="-0.5441570851192776"><ele>122.33333333333333</ele><time>2026-04-22T14:35:04Z</time></trkpt><trkpt lat="43.36127829522667" lon="-0.5442253131784996"><ele>122.16666666666666</ele><time>2026-04-22T14:35:05Z</time></trkpt><trkpt lat="43.36131665835862" lon="-0.544295359957715"><ele>122.0</ele><time>2026-04-22T14:35:06Z</time></trkpt><trkpt lat="43.361394375721886" lon="-0.54443985985644"><ele>122.0</ele><time>2026-04-22T14:35:08Z</time></trkpt><trkpt lat="43.36147075986016" lon="-0.5445744091376647"><ele>122.0</ele><time>2026-04-22T14:35:10Z</time></trkpt><trkpt lat="43.36154981386546" lon="-0.5446871418374716"><ele>122.0</ele><time>2026-04-22T14:35:12Z</time></trkpt><trkpt lat="43.361640274567485" lon="-0.5447956812073164"><ele>122.0</ele><time>2026-04-22T14:35:14Z</time></trkpt><trkpt lat="43.36174808181953" lon="-0.544869505861103"><ele>122.0</ele><time>2026-04-22T14:35:16Z</time></trkpt><trkpt lat="43.36185672090912" lon="-0.544944390872452"><ele>122.0</ele><time>2026-04-22T14:35:18Z</time></trkpt><trkpt lat="43.36195643096386" lon="-0.5450394848210266"><ele>122.0</ele><time>2026-04-22T14:35:20Z</time></trkpt><trkpt lat="43.362009087320274" lon="-0.5451907488742028"><ele>122.0</ele><time>2026-04-22T14:35:22Z</time></trkpt><trkpt lat="43.362030535355814" lon="-0.5453423021223929"><ele>122.39999999999999</ele><time>2026-04-22T14:35:24Z</time></trkpt><trkpt lat="43.36204873473623" lon="-0.5454859452798753"><ele>122.79999999999998</ele><time>2026-04-22T14:35:26Z</time></trkpt><trkpt lat="43.362072174794655" lon="-0.5456100157092634"><ele>123.2</ele><time>2026-04-22T14:35:28Z</time></trkpt><trkpt lat="43.36212199312438" lon="-0.5457218917690133"><ele>123.6</ele><time>2026-04-22T14:35:30Z</time></trkpt><trkpt lat="43.36213298398298" lon="-0.5458672102177542"><ele>124.0</ele><time>2026-04-22T14:35:32Z</time></trkpt><trkpt lat="43.362144370653375" lon="-0.5460250352974612"><ele>124.0</ele><time>2026-04-22T14:35:34Z</time></trkpt><trkpt lat="43.36213608518115" lon="-0.5461130756532776"><ele>124.0</ele><time>2026-04-22T14:35:35Z</time></trkpt><trkpt lat="43.362142988360695" lon="-0.5462661240160173"><ele>124.0</ele><time>2026-04-22T14:35:37Z</time></trkpt><trkpt lat="43.36214668304305" lon="-0.5464459722041909"><ele>124.0</ele><time>2026-04-22T14:35:39Z</time></trkpt><trkpt lat="43.362152009024726" lon="-0.5465384903480947"><ele>124.0</ele><time>2026-04-22T14:35:40Z</time></trkpt><trkpt lat="43.36215937607624" lon="-0.5466975814836977"><ele>124.0</ele><time>2026-04-22T14:35:42Z</time></trkpt><trkpt lat="43.36215531528859" lon="-0.5468024454095302"><ele>124.0</ele><time>2026-04-22T14:35:43Z</time></trkpt><trkpt lat="43.36213444474399" lon="-0.5469103301098286"><ele>124.0</ele><time>2026-04-22T14:35:44Z</time></trkpt><trkpt lat="43.36211620280255" lon="-0.5470851326708498"><ele>124.0</ele><time>2026-04-22T14:35:46Z</time></trkpt><trkpt lat="43.36212965693801" lon="-0.5472425695522248"><ele>124.0</ele><time>2026-04-22T14:35:48.001Z</time></trkpt><trkpt lat="43.362153238177584" lon="-0.54733417473824"><ele>124.0</ele><time>2026-04-22T14:35:49.001Z</time></trkpt><trkpt lat="43.362187936461446" lon="-0.5474924617641722"><ele>124.0</ele><time>2026-04-22T14:35:51.001Z</time></trkpt><trkpt lat="43.36219805732714" lon="-0.5476428442192365"><ele>124.0</ele><time>2026-04-22T14:35:53.001Z</time></trkpt><trkpt lat="43.36222346806811" lon="-0.5477796202531937"><ele>124.0</ele><time>2026-04-22T14:35:55.001Z</time></trkpt><trkpt lat="43.36226741828305" lon="-0.5479037574150398"><ele>124.0</ele><time>2026-04-22T14:35:57.001Z</time></trkpt><trkpt lat="43.3623183222489" lon="-0.5480322824824326"><ele>123.16666666666667</ele><time>2026-04-22T14:35:59.001Z</time></trkpt><trkpt lat="43.36237859417738" lon="-0.548170733508222"><ele>122.33333333333334</ele><time>2026-04-22T14:36:01.001Z</time></trkpt><trkpt lat="43.36241275069943" lon="-0.5482588175484243"><ele>121.5</ele><time>2026-04-22T14:36:02.001Z</time></trkpt><trkpt lat="43.36244240482681" lon="-0.5483353541180442"><ele>120.66666666666666</ele><time>2026-04-22T14:36:03.001Z</time></trkpt><trkpt lat="43.362473439751625" lon="-0.5484171225100252"><ele>119.83333333333333</ele><time>2026-04-22T14:36:04.001Z</time></trkpt><trkpt lat="43.36251090305834" lon="-0.5484975568312395"><ele>119.0</ele><time>2026-04-22T14:36:05.001Z</time></trkpt><trkpt lat="43.362546207625755" lon="-0.5485804992246891"><ele>119.0</ele><time>2026-04-22T14:36:06.001Z</time></trkpt><trkpt lat="43.36258315978742" lon="-0.5486619339099867"><ele>119.0</ele><time>2026-04-22T14:36:07.001Z</time></trkpt><trkpt lat="43.36260390634529" lon="-0.5487469893281864"><ele>119.0</ele><time>2026-04-22T14:36:08.001Z</time></trkpt><trkpt lat="43.36261924843711" lon="-0.5488386419132358"><ele>119.0</ele><time>2026-04-22T14:36:09.001Z</time></trkpt><trkpt lat="43.36262732007484" lon="-0.5489293033545506"><ele>119.0</ele><time>2026-04-22T14:36:10.001Z</time></trkpt><trkpt lat="43.362632137746175" lon="-0.5490202544403772"><ele>119.0</ele><time>2026-04-22T14:36:11.001Z</time></trkpt><trkpt lat="43.36263748359417" lon="-0.5491143296756317"><ele>119.0</ele><time>2026-04-22T14:36:12.001Z</time></trkpt><trkpt lat="43.36264186180371" lon="-0.5492111156054084"><ele>119.2</ele><time>2026-04-22T14:36:13.001Z</time></trkpt><trkpt lat="43.36264230254743" lon="-0.5492998680073528"><ele>119.4</ele><time>2026-04-22T14:36:14.001Z</time></trkpt><trkpt lat="43.36262930749324" lon="-0.5494764628578387"><ele>119.6</ele><time>2026-04-22T14:36:16.001Z</time></trkpt><trkpt lat="43.36262040280403" lon="-0.5495671973957078"><ele>119.8</ele><time>2026-04-22T14:36:17.001Z</time></trkpt><trkpt lat="43.362608947138895" lon="-0.5496627068857868"><ele>120.0</ele><time>2026-04-22T14:36:18.001Z</time></trkpt><trkpt lat="43.36259338910986" lon="-0.5498301524110385"><ele>120.0</ele><time>2026-04-22T14:36:20.001Z</time></trkpt><trkpt lat="43.36257914444958" lon="-0.5499160356357227"><ele>120.0</ele><time>2026-04-22T14:36:21.001Z</time></trkpt><trkpt lat="43.36259906245477" lon="-0.5500905227824038"><ele>120.0</ele><time>2026-04-22T14:36:23.001Z</time></trkpt><trkpt lat="43.362611248760075" lon="-0.5501775738715567"><ele>120.0</ele><time>2026-04-22T14:36:24.001Z</time></trkpt><trkpt lat="43.362649749384985" lon="-0.5503380258363693"><ele>120.0</ele><time>2026-04-22T14:36:26.001Z</time></trkpt><trkpt lat="43.36269471216562" lon="-0.5504964570185029"><ele>119.75</ele><time>2026-04-22T14:36:28.001Z</time></trkpt><trkpt lat="43.36274751577307" lon="-0.5506371760794351"><ele>119.5</ele><time>2026-04-22T14:36:30.001Z</time></trkpt><trkpt lat="43.362815815346394" lon="-0.5507769448692266"><ele>119.25</ele><time>2026-04-22T14:36:32.001Z</time></trkpt><trkpt lat="43.36289097543909" lon="-0.5509103269947214"><ele>119.0</ele><time>2026-04-22T14:36:34.001Z</time></trkpt><trkpt lat="43.36298102778931" lon="-0.5510293728136771"><ele>119.0</ele><time>2026-04-22T14:36:36.001Z</time></trkpt><trkpt lat="43.36302011206518" lon="-0.5511047631171837"><ele>119.0</ele><time>2026-04-22T14:36:37.001Z</time></trkpt><trkpt lat="43.363096524332484" lon="-0.5512404351379738"><ele>119.0</ele><time>2026-04-22T14:36:39.001Z</time></trkpt><trkpt lat="43.36318775127913" lon="-0.5513417205305272"><ele>119.0</ele><time>2026-04-22T14:36:41.001Z</time></trkpt><trkpt lat="43.36326998082823" lon="-0.5514657668826227"><ele>119.0</ele><time>2026-04-22T14:36:43.001Z</time></trkpt><trkpt lat="43.36336433722754" lon="-0.5515506649319047"><ele>119.25</ele><time>2026-04-22T14:36:45.001Z</time></trkpt><trkpt lat="43.36345512829154" lon="-0.5516426403837984"><ele>119.5</ele><time>2026-04-22T14:36:47.001Z</time></trkpt><trkpt lat="43.3635531615294" lon="-0.5517287455441007"><ele>119.75</ele><time>2026-04-22T14:36:49.001Z</time></trkpt><trkpt lat="43.363636426695685" lon="-0.5518224634456047"><ele>120.0</ele><time>2026-04-22T14:36:51.001Z</time></trkpt><trkpt lat="43.36371976053495" lon="-0.5519285607387735"><ele>120.0</ele><time>2026-04-22T14:36:53.001Z</time></trkpt><trkpt lat="43.36380268285748" lon="-0.5520372898916859"><ele>120.0</ele><time>2026-04-22T14:36:55.001Z</time></trkpt><trkpt lat="43.363877318033026" lon="-0.5521453978811633"><ele>120.0</ele><time>2026-04-22T14:36:57.001Z</time></trkpt><trkpt lat="43.363955425794515" lon="-0.5522480291072427"><ele>120.0</ele><time>2026-04-22T14:36:59.001Z</time></trkpt><trkpt lat="43.3640420195426" lon="-0.5523488097088891"><ele>120.0</ele><time>2026-04-22T14:37:01.001Z</time></trkpt><trkpt lat="43.36412898220389" lon="-0.5524444442864662"><ele>120.0</ele><time>2026-04-22T14:37:03.001Z</time></trkpt><trkpt lat="43.36422093168711" lon="-0.5525389355067613"><ele>120.0</ele><time>2026-04-22T14:37:05.001Z</time></trkpt><trkpt lat="43.364354278215515" lon="-0.5526845971737506"><ele>120.0</ele><time>2026-04-22T14:37:08.001Z</time></trkpt><trkpt lat="43.36445554231217" lon="-0.5527669246216081"><ele>120.0</ele><time>2026-04-22T14:37:10Z</time></trkpt><trkpt lat="43.36450870738058" lon="-0.5528140464642163"><ele>119.5</ele><time>2026-04-22T14:37:11Z</time></trkpt><trkpt lat="43.364608467432426" lon="-0.5529057853963879"><ele>119.0</ele><time>2026-04-22T14:37:13Z</time></trkpt><trkpt lat="43.36470405364087" lon="-0.5530175037243754"><ele>118.5</ele><time>2026-04-22T14:37:15Z</time></trkpt><trkpt lat="43.36480113078522" lon="-0.5531309780928768"><ele>118.0</ele><time>2026-04-22T14:37:17Z</time></trkpt><trkpt lat="43.36489224354668" lon="-0.5532575942694754"><ele>118.00000000000001</ele><time>2026-04-22T14:37:19Z</time></trkpt><trkpt lat="43.36497766185716" lon="-0.5533808736371993"><ele>118.0</ele><time>2026-04-22T14:37:21Z</time></trkpt><trkpt lat="43.36502193035395" lon="-0.5534466332635164"><ele>118.0</ele><time>2026-04-22T14:37:22Z</time></trkpt><trkpt lat="43.365064686901434" lon="-0.5535167271387387"><ele>118.0</ele><time>2026-04-22T14:37:23Z</time></trkpt><trkpt lat="43.36509836293629" lon="-0.5535899562929769"><ele>118.00000000000001</ele><time>2026-04-22T14:37:24Z</time></trkpt><trkpt lat="43.36517116968457" lon="-0.5537299218653665"><ele>118.0</ele><time>2026-04-22T14:37:26Z</time></trkpt><trkpt lat="43.36523909654403" lon="-0.5538640552479305"><ele>118.75</ele><time>2026-04-22T14:37:28Z</time></trkpt><trkpt lat="43.36530750849871" lon="-0.5539925867550526"><ele>119.5</ele><time>2026-04-22T14:37:30Z</time></trkpt><trkpt lat="43.36537109567044" lon="-0.5541382212532526"><ele>120.25</ele><time>2026-04-22T14:37:32Z</time></trkpt><trkpt lat="43.36543733203179" lon="-0.5542635879930704"><ele>121.0</ele><time>2026-04-22T14:37:34Z</time></trkpt><trkpt lat="43.36549674253799" lon="-0.5543876076658808"><ele>121.19999999999999</ele><time>2026-04-22T14:37:36Z</time></trkpt><trkpt lat="43.365562305535704" lon="-0.55450937862706"><ele>121.39999999999999</ele><time>2026-04-22T14:37:38Z</time></trkpt><trkpt lat="43.36562865690475" lon="-0.5546334300105167"><ele>121.6</ele><time>2026-04-22T14:37:40Z</time></trkpt><trkpt lat="43.3656943501852" lon="-0.554751627353322"><ele>121.8</ele><time>2026-04-22T14:37:42Z</time></trkpt><trkpt lat="43.365755726928285" lon="-0.554879470462788"><ele>122.0</ele><time>2026-04-22T14:37:44Z</time></trkpt><trkpt lat="43.3658137107575" lon="-0.5550026621803733"><ele>122.0</ele><time>2026-04-22T14:37:46Z</time></trkpt><trkpt lat="43.36587957063405" lon="-0.5551292664270446"><ele>122.0</ele><time>2026-04-22T14:37:48Z</time></trkpt><trkpt lat="43.36594842618933" lon="-0.5552596856746852"><ele>122.0</ele><time>2026-04-22T14:37:50Z</time></trkpt><trkpt lat="43.36601291133774" lon="-0.5553914172103246"><ele>122.0</ele><time>2026-04-22T14:37:52Z</time></trkpt><trkpt lat="43.36607681806066" lon="-0.5555205033861439"><ele>122.0</ele><time>2026-04-22T14:37:54Z</time></trkpt><trkpt lat="43.36613866208651" lon="-0.5556512109935012"><ele>121.99999999999999</ele><time>2026-04-22T14:37:56Z</time></trkpt><trkpt lat="43.36619548059483" lon="-0.555786801951541"><ele>121.99999999999999</ele><time>2026-04-22T14:37:58.001Z</time></trkpt><trkpt lat="43.366256670602226" lon="-0.5559052236036918"><ele>122.0</ele><time>2026-04-22T14:38:00.001Z</time></trkpt><trkpt lat="43.36632392975712" lon="-0.5560237187717012"><ele>122.0</ele><time>2026-04-22T14:38:02.001Z</time></trkpt><trkpt lat="43.36638454268498" lon="-0.5561557673806549"><ele>121.5</ele><time>2026-04-22T14:38:04.001Z</time></trkpt><trkpt lat="43.36645345204226" lon="-0.5562771712382933"><ele>121.0</ele><time>2026-04-22T14:38:06.001Z</time></trkpt><trkpt lat="43.36652287049728" lon="-0.5564044869520829"><ele>120.5</ele><time>2026-04-22T14:38:08.001Z</time></trkpt><trkpt lat="43.36659605921652" lon="-0.5565254219887493"><ele>120.0</ele><time>2026-04-22T14:38:10.001Z</time></trkpt><trkpt lat="43.36667091395897" lon="-0.5566365325358231"><ele>120.0</ele><time>2026-04-22T14:38:12.001Z</time></trkpt><trkpt lat="43.3667442883811" lon="-0.5567537292621882"><ele>120.0</ele><time>2026-04-22T14:38:14.001Z</time></trkpt><trkpt lat="43.366812116635735" lon="-0.5568715471436714"><ele>120.0</ele><time>2026-04-22T14:38:16.001Z</time></trkpt><trkpt lat="43.36689441503689" lon="-0.556978019136352"><ele>120.0</ele><time>2026-04-22T14:38:18.001Z</time></trkpt><trkpt lat="43.366996827720975" lon="-0.5570649319209038"><ele>119.75</ele><time>2026-04-22T14:38:20.001Z</time></trkpt><trkpt lat="43.367093899121926" lon="-0.5571554983736395"><ele>119.5</ele><time>2026-04-22T14:38:22.001Z</time></trkpt><trkpt lat="43.36720081111628" lon="-0.5572380838836034"><ele>119.25</ele><time>2026-04-22T14:38:24.001Z</time></trkpt><trkpt lat="43.36730699120415" lon="-0.5573268185175829"><ele>119.0</ele><time>2026-04-22T14:38:26.001Z</time></trkpt><trkpt lat="43.3674164537185" lon="-0.557409842085143"><ele>118.99999999999999</ele><time>2026-04-22T14:38:28.001Z</time></trkpt><trkpt lat="43.36747345877879" lon="-0.5574473697327914"><ele>119.0</ele><time>2026-04-22T14:38:29.001Z</time></trkpt><trkpt lat="43.36752892270318" lon="-0.5574948944433408"><ele>119.0</ele><time>2026-04-22T14:38:30.001Z</time></trkpt><trkpt lat="43.36763767600782" lon="-0.5575917136208927"><ele>119.0</ele><time>2026-04-22T14:38:32.001Z</time></trkpt><trkpt lat="43.36769154833112" lon="-0.5576425529135456"><ele>118.99999999999999</ele><time>2026-04-22T14:38:33.001Z</time></trkpt><trkpt lat="43.367745727779436" lon="-0.5576905034015256"><ele>119.0</ele><time>2026-04-22T14:38:34.001Z</time></trkpt><trkpt lat="43.36780155674237" lon="-0.5577346800347082"><ele>118.99999999999999</ele><time>2026-04-22T14:38:35.001Z</time></trkpt><trkpt lat="43.36785805614651" lon="-0.5577803273107237"><ele>119.0</ele><time>2026-04-22T14:38:36.001Z</time></trkpt><trkpt lat="43.36791181823519" lon="-0.5578273953296229"><ele>119.0</ele><time>2026-04-22T14:38:37.001Z</time></trkpt><trkpt lat="43.36796785472041" lon="-0.5578718010443768"><ele>119.0</ele><time>2026-04-22T14:38:38.001Z</time></trkpt><trkpt lat="43.3680253796257" lon="-0.5579187799781291"><ele>118.99999999999999</ele><time>2026-04-22T14:38:39.001Z</time></trkpt><trkpt lat="43.368132903475136" lon="-0.5580168594814243"><ele>119.0</ele><time>2026-04-22T14:38:41.001Z</time></trkpt><trkpt lat="43.36818786372112" lon="-0.5580627772778248"><ele>118.99999999999999</ele><time>2026-04-22T14:38:42.001Z</time></trkpt><trkpt lat="43.36824295945756" lon="-0.5581052173649648"><ele>119.0</ele><time>2026-04-22T14:38:43.001Z</time></trkpt><trkpt lat="43.368297651673906" lon="-0.5581506040387766"><ele>119.0</ele><time>2026-04-22T14:38:44.001Z</time></trkpt><trkpt lat="43.36835062812927" lon="-0.5582014186761898"><ele>119.0</ele><time>2026-04-22T14:38:45.001Z</time></trkpt><trkpt lat="43.36846211172643" lon="-0.5582651526003833"><ele>118.99999999999999</ele><time>2026-04-22T14:38:47.001Z</time></trkpt><trkpt lat="43.36858260080742" lon="-0.5582220297933846"><ele>119.0</ele><time>2026-04-22T14:38:49.001Z</time></trkpt><trkpt lat="43.36868965626272" lon="-0.5581481965910949"><ele>118.99999999999999</ele><time>2026-04-22T14:38:51.001Z</time></trkpt><trkpt lat="43.368752842129844" lon="-0.5581416576928333"><ele>119.0</ele><time>2026-04-22T14:38:52.001Z</time></trkpt><trkpt lat="43.36881763360256" lon="-0.5581518786714527"><ele>119.0</ele><time>2026-04-22T14:38:53.001Z</time></trkpt><trkpt lat="43.36890957772516" lon="-0.5582654850238832"><ele>119.0</ele><time>2026-04-22T14:38:55.001Z</time></trkpt><trkpt lat="43.36898938816234" lon="-0.5583975000246492"><ele>118.99999999999999</ele><time>2026-04-22T14:38:57.001Z</time></trkpt><trkpt lat="43.369023582882264" lon="-0.5584832417899388"><ele>119.0</ele><time>2026-04-22T14:38:58.001Z</time></trkpt><trkpt lat="43.3690594722215" lon="-0.5585591143913443"><ele>119.0</ele><time>2026-04-22T14:38:59.001Z</time></trkpt><trkpt lat="43.36908959518761" lon="-0.55863630582011"><ele>119.0</ele><time>2026-04-22T14:39:00.001Z</time></trkpt><trkpt lat="43.369138703677926" lon="-0.5587888388813266"><ele>119.0</ele><time>2026-04-22T14:39:02.001Z</time></trkpt><trkpt lat="43.369192175193504" lon="-0.5589355378131247"><ele>119.0</ele><time>2026-04-22T14:39:04.001Z</time></trkpt><trkpt lat="43.36924508584253" lon="-0.5590736212277218"><ele>119.0</ele><time>2026-04-22T14:39:06.001Z</time></trkpt><trkpt lat="43.369312101858576" lon="-0.5591993731824164"><ele>119.0</ele><time>2026-04-22T14:39:08.001Z</time></trkpt><trkpt lat="43.36935666347274" lon="-0.5593549332874923"><ele>119.0</ele><time>2026-04-22T14:39:10.001Z</time></trkpt><trkpt lat="43.36941435706708" lon="-0.5595068419516429"><ele>119.0</ele><time>2026-04-22T14:39:12.001Z</time></trkpt><trkpt lat="43.36947395047548" lon="-0.5596457267861388"><ele>119.0</ele><time>2026-04-22T14:39:14.001Z</time></trkpt><trkpt lat="43.36952709662293" lon="-0.5597950971933158"><ele>118.5</ele><time>2026-04-22T14:39:16Z</time></trkpt><trkpt lat="43.369585372704364" lon="-0.5599403664152273"><ele>118.0</ele><time>2026-04-22T14:39:18Z</time></trkpt><trkpt lat="43.369648441966284" lon="-0.5600810771494417"><ele>117.5</ele><time>2026-04-22T14:39:20Z</time></trkpt><trkpt lat="43.36972886865837" lon="-0.5601999565884197"><ele>117.0</ele><time>2026-04-22T14:39:22Z</time></trkpt><trkpt lat="43.369814603961835" lon="-0.5603208205686568"><ele>117.25</ele><time>2026-04-22T14:39:24Z</time></trkpt><trkpt lat="43.369898539272555" lon="-0.560444864750165"><ele>117.5</ele><time>2026-04-22T14:39:26Z</time></trkpt><trkpt lat="43.36996418553696" lon="-0.5605684328274233"><ele>117.75</ele><time>2026-04-22T14:39:28Z</time></trkpt><trkpt lat="43.370042230189455" lon="-0.5606855583783882"><ele>118.0</ele><time>2026-04-22T14:39:30Z</time></trkpt><trkpt lat="43.37012152135364" lon="-0.5607977087638316"><ele>118.0</ele><time>2026-04-22T14:39:32Z</time></trkpt><trkpt lat="43.37015610128746" lon="-0.5608739396303688"><ele>118.00000000000001</ele><time>2026-04-22T14:39:33Z</time></trkpt><trkpt lat="43.37023459317532" lon="-0.5609983260212028"><ele>118.00000000000001</ele><time>2026-04-22T14:39:35Z</time></trkpt><trkpt lat="43.3702755100611" lon="-0.5610644876117801"><ele>118.0</ele><time>2026-04-22T14:39:36Z</time></trkpt><trkpt lat="43.370355144749745" lon="-0.561193641099363"><ele>118.0</ele><time>2026-04-22T14:39:38Z</time></trkpt><trkpt lat="43.37043014488107" lon="-0.5613268854683839"><ele>118.0</ele><time>2026-04-22T14:39:40Z</time></trkpt><trkpt lat="43.370505226915924" lon="-0.5614557332615039"><ele>118.0</ele><time>2026-04-22T14:39:42Z</time></trkpt><trkpt lat="43.37057843849379" lon="-0.5615871624581369"><ele>118.0</ele><time>2026-04-22T14:39:44Z</time></trkpt><trkpt lat="43.37064240349468" lon="-0.5617245009830748"><ele>118.0</ele><time>2026-04-22T14:39:46Z</time></trkpt><trkpt lat="43.370696133978484" lon="-0.5618742896692992"><ele>117.83333333333334</ele><time>2026-04-22T14:39:48Z</time></trkpt><trkpt lat="43.37074326074962" lon="-0.56203016315274"><ele>117.66666666666667</ele><time>2026-04-22T14:39:50Z</time></trkpt><trkpt lat="43.3707602636825" lon="-0.5621166826452426"><ele>117.5</ele><time>2026-04-22T14:39:51Z</time></trkpt><trkpt lat="43.37077293773618" lon="-0.5622051962052295"><ele>117.33333333333334</ele><time>2026-04-22T14:39:52Z</time></trkpt><trkpt lat="43.37078250336697" lon="-0.5622940657886176"><ele>117.16666666666667</ele><time>2026-04-22T14:39:53Z</time></trkpt><trkpt lat="43.370791123034174" lon="-0.5623853742057825"><ele>117.0</ele><time>2026-04-22T14:39:54Z</time></trkpt><trkpt lat="43.370792551087256" lon="-0.5624785548144993"><ele>116.71428571428572</ele><time>2026-04-22T14:39:55Z</time></trkpt><trkpt lat="43.370790189736674" lon="-0.5625728234116826"><ele>116.42857142857144</ele><time>2026-04-22T14:39:56Z</time></trkpt><trkpt lat="43.37078972980898" lon="-0.5626657114650038"><ele>116.14285714285714</ele><time>2026-04-22T14:39:57Z</time></trkpt><trkpt lat="43.37079037951815" lon="-0.5627598361702717"><ele>115.85714285714286</ele><time>2026-04-22T14:39:58Z</time></trkpt><trkpt lat="43.37078971976659" lon="-0.5628520253582134"><ele>115.57142857142857</ele><time>2026-04-22T14:39:59Z</time></trkpt><trkpt lat="43.37079104682647" lon="-0.5629454567201401"><ele>115.28571428571428</ele><time>2026-04-22T14:40:00Z</time></trkpt><trkpt lat="43.3707936215548" lon="-0.5630370755989386"><ele>114.99999999999999</ele><time>2026-04-22T14:40:01Z</time></trkpt><trkpt lat="43.37080307403284" lon="-0.5631253986790555"><ele>114.99999999999999</ele><time>2026-04-22T14:40:02Z</time></trkpt><trkpt lat="43.37081719024854" lon="-0.563212741288145"><ele>115.0</ele><time>2026-04-22T14:40:03Z</time></trkpt><trkpt lat="43.37082816182474" lon="-0.5633022377685679"><ele>114.99999999999999</ele><time>2026-04-22T14:40:04Z</time></trkpt><trkpt lat="43.370832801739425" lon="-0.5633926221242228"><ele>114.99999999999999</ele><time>2026-04-22T14:40:05Z</time></trkpt><trkpt lat="43.370833153718365" lon="-0.5634827569981059"><ele>115.0</ele><time>2026-04-22T14:40:06Z</time></trkpt><trkpt lat="43.37083086314232" lon="-0.5635738924035779"><ele>114.99999999999999</ele><time>2026-04-22T14:40:07Z</time></trkpt><trkpt lat="43.37083035171611" lon="-0.5636641356098067"><ele>114.99999999999999</ele><time>2026-04-22T14:40:08.001Z</time></trkpt><trkpt lat="43.370832606315716" lon="-0.5637514465237192"><ele>115.2</ele><time>2026-04-22T14:40:09.001Z</time></trkpt><trkpt lat="43.370833340519226" lon="-0.5638388104588897"><ele>115.4</ele><time>2026-04-22T14:40:10.001Z</time></trkpt><trkpt lat="43.37082602563253" lon="-0.5640069176364712"><ele>115.6</ele><time>2026-04-22T14:40:12.001Z</time></trkpt><trkpt lat="43.37080703110336" lon="-0.5641701601098854"><ele>115.8</ele><time>2026-04-22T14:40:14.001Z</time></trkpt><trkpt lat="43.37079527272868" lon="-0.5642694862729754"><ele>116.0</ele><time>2026-04-22T14:40:15.001Z</time></trkpt><trkpt lat="43.37077447161968" lon="-0.5644298660001196"><ele>115.5</ele><time>2026-04-22T14:40:17.001Z</time></trkpt><trkpt lat="43.37074886240485" lon="-0.5645951048450805"><ele>115.0</ele><time>2026-04-22T14:40:19.001Z</time></trkpt><trkpt lat="43.37072918021626" lon="-0.5647590483232338"><ele>114.5</ele><time>2026-04-22T14:40:21.001Z</time></trkpt><trkpt lat="43.3707086727911" lon="-0.5649218889445792"><ele>114.0</ele><time>2026-04-22T14:40:23.001Z</time></trkpt><trkpt lat="43.370691345321895" lon="-0.5650860666842857"><ele>114.0</ele><time>2026-04-22T14:40:25.001Z</time></trkpt><trkpt lat="43.37069013108584" lon="-0.5652423827072701"><ele>114.0</ele><time>2026-04-22T14:40:27.001Z</time></trkpt><trkpt lat="43.37070651578604" lon="-0.5654055487943407"><ele>114.0</ele><time>2026-04-22T14:40:29.001Z</time></trkpt><trkpt lat="43.370753151575876" lon="-0.5655605488653894"><ele>114.0</ele><time>2026-04-22T14:40:31.001Z</time></trkpt><trkpt lat="43.370781635017224" lon="-0.5656386867318163"><ele>114.0</ele><time>2026-04-22T14:40:32.001Z</time></trkpt><trkpt lat="43.37084463008081" lon="-0.5657891039752245"><ele>114.4</ele><time>2026-04-22T14:40:34.001Z</time></trkpt><trkpt lat="43.37092560259658" lon="-0.5659217428898602"><ele>114.80000000000001</ele><time>2026-04-22T14:40:36.001Z</time></trkpt><trkpt lat="43.37097010311228" lon="-0.5659840970326783"><ele>115.19999999999999</ele><time>2026-04-22T14:40:37.001Z</time></trkpt><trkpt lat="43.37101444299631" lon="-0.5660458497153183"><ele>115.6</ele><time>2026-04-22T14:40:38.001Z</time></trkpt><trkpt lat="43.371109206048104" lon="-0.5661487600296925"><ele>116.0</ele><time>2026-04-22T14:40:40.001Z</time></trkpt><trkpt lat="43.37120944870111" lon="-0.5662355132070194"><ele>116.25</ele><time>2026-04-22T14:40:42.001Z</time></trkpt><trkpt lat="43.371307142050554" lon="-0.5663320818042021"><ele>116.5</ele><time>2026-04-22T14:40:44.001Z</time></trkpt><trkpt lat="43.371408193818965" lon="-0.5664286211465048"><ele>116.75</ele><time>2026-04-22T14:40:46.001Z</time></trkpt><trkpt lat="43.37150433081591" lon="-0.5665279255596574"><ele>117.0</ele><time>2026-04-22T14:40:48.001Z</time></trkpt><trkpt lat="43.37159397624521" lon="-0.5666328861417134"><ele>116.75</ele><time>2026-04-22T14:40:50.001Z</time></trkpt><trkpt lat="43.37168007734275" lon="-0.5667526323383455"><ele>116.5</ele><time>2026-04-22T14:40:52.001Z</time></trkpt><trkpt lat="43.37176327202447" lon="-0.5668611461678058"><ele>116.25</ele><time>2026-04-22T14:40:54.001Z</time></trkpt><trkpt lat="43.37185659980986" lon="-0.5669667650774046"><ele>116.0</ele><time>2026-04-22T14:40:56.001Z</time></trkpt><trkpt lat="43.37194270334719" lon="-0.5670836706039953"><ele>115.99999999999999</ele><time>2026-04-22T14:40:58.001Z</time></trkpt><trkpt lat="43.37203448772048" lon="-0.5671987931918708"><ele>116.0</ele><time>2026-04-22T14:41:00.001Z</time></trkpt><trkpt lat="43.372085100969656" lon="-0.5672526625255382"><ele>116.0</ele><time>2026-04-22T14:41:01.001Z</time></trkpt><trkpt lat="43.3721378083003" lon="-0.567301252364574"><ele>116.0</ele><time>2026-04-22T14:41:02.001Z</time></trkpt><trkpt lat="43.37219352112007" lon="-0.5673481905467948"><ele>115.99999999999999</ele><time>2026-04-22T14:41:03.001Z</time></trkpt><trkpt lat="43.372284022406596" lon="-0.5674637312187163"><ele>116.0</ele><time>2026-04-22T14:41:05.001Z</time></trkpt><trkpt lat="43.37236031911326" lon="-0.5675877663692726"><ele>115.8</ele><time>2026-04-22T14:41:07.001Z</time></trkpt><trkpt lat="43.37239815418252" lon="-0.5677375276722542"><ele>115.6</ele><time>2026-04-22T14:41:09.001Z</time></trkpt><trkpt lat="43.3724143618795" lon="-0.5678825586159285"><ele>115.4</ele><time>2026-04-22T14:41:11.001Z</time></trkpt><trkpt lat="43.37243012361201" lon="-0.5680216559904747"><ele>115.2</ele><time>2026-04-22T14:41:13.001Z</time></trkpt><trkpt lat="43.37246308380933" lon="-0.568160715733088"><ele>115.0</ele><time>2026-04-22T14:41:15.001Z</time></trkpt><trkpt lat="43.372503405064805" lon="-0.5682969286816862"><ele>115.00000000000001</ele><time>2026-04-22T14:41:17.001Z</time></trkpt><trkpt lat="43.372547736983066" lon="-0.5684416207121449"><ele>115.0</ele><time>2026-04-22T14:41:19.001Z</time></trkpt><trkpt lat="43.37260056663298" lon="-0.5685928352728273"><ele>115.0</ele><time>2026-04-22T14:41:21Z</time></trkpt><trkpt lat="43.372624867776715" lon="-0.5686764645450754"><ele>115.0</ele><time>2026-04-22T14:41:22Z</time></trkpt><trkpt lat="43.37264649023071" lon="-0.5687583250504032"><ele>115.00000000000001</ele><time>2026-04-22T14:41:23Z</time></trkpt><trkpt lat="43.372670941211624" lon="-0.5688401586197221"><ele>115.0</ele><time>2026-04-22T14:41:24Z</time></trkpt><trkpt lat="43.37269986625851" lon="-0.5689182932644673"><ele>115.0</ele><time>2026-04-22T14:41:25Z</time></trkpt><trkpt lat="43.37272568133615" lon="-0.56899735173883"><ele>115.0</ele><time>2026-04-22T14:41:26Z</time></trkpt><trkpt lat="43.37276994327579" lon="-0.5691515234158829"><ele>115.0</ele><time>2026-04-22T14:41:28Z</time></trkpt><trkpt lat="43.37281432586227" lon="-0.569290829145413"><ele>115.0</ele><time>2026-04-22T14:41:30Z</time></trkpt><trkpt lat="43.37284740737925" lon="-0.5694211947441599"><ele>115.0</ele><time>2026-04-22T14:41:32Z</time></trkpt><trkpt lat="43.37288190860941" lon="-0.5695563596464178"><ele>115.0</ele><time>2026-04-22T14:41:34Z</time></trkpt><trkpt lat="43.372929032265574" lon="-0.5696956376757172"><ele>115.0</ele><time>2026-04-22T14:41:36Z</time></trkpt><trkpt lat="43.37296333518833" lon="-0.5698115384405016"><ele>115.0</ele><time>2026-04-22T14:41:38Z</time></trkpt><trkpt lat="43.37303389706766" lon="-0.569924174169164"><ele>115.0</ele><time>2026-04-22T14:41:40Z</time></trkpt><trkpt lat="43.37307751430658" lon="-0.5700598111358379"><ele>115.0</ele><time>2026-04-22T14:41:42Z</time></trkpt><trkpt lat="43.3731058367306" lon="-0.570220422972222"><ele>114.99999999999999</ele><time>2026-04-22T14:41:44Z</time></trkpt><trkpt lat="43.373129450569834" lon="-0.5703032612786327"><ele>115.0</ele><time>2026-04-22T14:41:45Z</time></trkpt><trkpt lat="43.37315817115161" lon="-0.5703838345036724"><ele>114.99999999999999</ele><time>2026-04-22T14:41:46Z</time></trkpt><trkpt lat="43.37318678688632" lon="-0.5704647255153826"><ele>114.99999999999999</ele><time>2026-04-22T14:41:47Z</time></trkpt><trkpt lat="43.37321300368994" lon="-0.5705494357905799"><ele>115.0</ele><time>2026-04-22T14:41:48Z</time></trkpt><trkpt lat="43.37324565087995" lon="-0.5706262746578296"><ele>114.99999999999999</ele><time>2026-04-22T14:41:49Z</time></trkpt><trkpt lat="43.37328233752059" lon="-0.5706989628564768"><ele>114.99999999999999</ele><time>2026-04-22T14:41:50Z</time></trkpt><trkpt lat="43.37336077238188" lon="-0.5708223815334375"><ele>115.0</ele><time>2026-04-22T14:41:52Z</time></trkpt><trkpt lat="43.3734496139583" lon="-0.5709430108407508"><ele>115.0</ele><time>2026-04-22T14:41:54Z</time></trkpt><trkpt lat="43.373543807269385" lon="-0.5710603844784632"><ele>115.0</ele><time>2026-04-22T14:41:56Z</time></trkpt><trkpt lat="43.373644026661296" lon="-0.5711713128416885"><ele>115.0</ele><time>2026-04-22T14:41:58Z</time></trkpt><trkpt lat="43.373740721639265" lon="-0.5712778810911039"><ele>115.33333333333334</ele><time>2026-04-22T14:42:00Z</time></trkpt><trkpt lat="43.373842241201615" lon="-0.5713765942832957"><ele>115.66666666666667</ele><time>2026-04-22T14:42:02Z</time></trkpt><trkpt lat="43.37389228193928" lon="-0.5714306236718092"><ele>116.0</ele><time>2026-04-22T14:42:03Z</time></trkpt><trkpt lat="43.373941861867465" lon="-0.5714863749787374"><ele>116.33333333333334</ele><time>2026-04-22T14:42:04Z</time></trkpt><trkpt lat="43.373992756058904" lon="-0.5715398588649248"><ele>116.66666666666667</ele><time>2026-04-22T14:42:05Z</time></trkpt><trkpt lat="43.3740481980837" lon="-0.5715939719670382"><ele>117.0</ele><time>2026-04-22T14:42:06Z</time></trkpt><trkpt lat="43.37414895768316" lon="-0.571699643952457"><ele>117.0</ele><time>2026-04-22T14:42:08Z</time></trkpt><trkpt lat="43.37424775731209" lon="-0.5718095325726925"><ele>116.99999999999999</ele><time>2026-04-22T14:42:10Z</time></trkpt><trkpt lat="43.374299578482706" lon="-0.5718632695840572"><ele>116.99999999999999</ele><time>2026-04-22T14:42:11Z</time></trkpt><trkpt lat="43.37435394769826" lon="-0.5719176549644828"><ele>117.0</ele><time>2026-04-22T14:42:12Z</time></trkpt><trkpt lat="43.374407226056015" lon="-0.5719705080894489"><ele>117.0</ele><time>2026-04-22T14:42:13Z</time></trkpt><trkpt lat="43.37450262197896" lon="-0.5720817695862078"><ele>117.0</ele><time>2026-04-22T14:42:15Z</time></trkpt><trkpt lat="43.3746021654079" lon="-0.5721850758358658"><ele>117.0</ele><time>2026-04-22T14:42:17Z</time></trkpt><trkpt lat="43.3746999486494" lon="-0.5722876032608469"><ele>117.0</ele><time>2026-04-22T14:42:19Z</time></trkpt><trkpt lat="43.374790866299406" lon="-0.5724090391490856"><ele>117.0</ele><time>2026-04-22T14:42:21Z</time></trkpt><trkpt lat="43.37487776785639" lon="-0.5725407658585848"><ele>117.0</ele><time>2026-04-22T14:42:23Z</time></trkpt><trkpt lat="43.374920935787614" lon="-0.5726051491895479"><ele>117.0</ele><time>2026-04-22T14:42:24Z</time></trkpt><trkpt lat="43.3749626183776" lon="-0.5726726327597365"><ele>117.0</ele><time>2026-04-22T14:42:25.001Z</time></trkpt><trkpt lat="43.37500265804996" lon="-0.572742985323524"><ele>117.0</ele><time>2026-04-22T14:42:26.001Z</time></trkpt><trkpt lat="43.37504213444953" lon="-0.5728123617208319"><ele>117.0</ele><time>2026-04-22T14:42:27.001Z</time></trkpt><trkpt lat="43.37508399740608" lon="-0.5728792668626077"><ele>117.0</ele><time>2026-04-22T14:42:28.001Z</time></trkpt><trkpt lat="43.375125843173144" lon="-0.5729452327693306"><ele>117.0</ele><time>2026-04-22T14:42:29.001Z</time></trkpt><trkpt lat="43.37516922094372" lon="-0.5730102546691027"><ele>117.0</ele><time>2026-04-22T14:42:30.001Z</time></trkpt><trkpt lat="43.37524947593139" lon="-0.5731460113796499"><ele>117.0</ele><time>2026-04-22T14:42:32.001Z</time></trkpt><trkpt lat="43.3753274119843" lon="-0.5732826442815733"><ele>117.0</ele><time>2026-04-22T14:42:34.001Z</time></trkpt><trkpt lat="43.37536960628449" lon="-0.5733503753153069"><ele>117.0</ele><time>2026-04-22T14:42:35.001Z</time></trkpt><trkpt lat="43.37541383310331" lon="-0.5734153102867917"><ele>117.0</ele><time>2026-04-22T14:42:36.001Z</time></trkpt><trkpt lat="43.375454635092694" lon="-0.5734914268972272"><ele>117.0</ele><time>2026-04-22T14:42:37.001Z</time></trkpt><trkpt lat="43.37549423215629" lon="-0.5735596084765476"><ele>117.0</ele><time>2026-04-22T14:42:38.001Z</time></trkpt><trkpt lat="43.37556979456037" lon="-0.5736989612399036"><ele>117.0</ele><time>2026-04-22T14:42:40.001Z</time></trkpt><trkpt lat="43.375646238701194" lon="-0.5738321931567845"><ele>117.0</ele><time>2026-04-22T14:42:42.001Z</time></trkpt><trkpt lat="43.37572832319596" lon="-0.5739568605709154"><ele>117.0</ele><time>2026-04-22T14:42:44.001Z</time></trkpt><trkpt lat="43.37580504736539" lon="-0.5740821192657225"><ele>117.0</ele><time>2026-04-22T14:42:46.001Z</time></trkpt><trkpt lat="43.37588257241775" lon="-0.5742100111563355"><ele>117.0</ele><time>2026-04-22T14:42:48.001Z</time></trkpt><trkpt lat="43.37595752614102" lon="-0.5743377801338003"><ele>117.0</ele><time>2026-04-22T14:42:50.001Z</time></trkpt><trkpt lat="43.37602765239042" lon="-0.5744730675053416"><ele>117.0</ele><time>2026-04-22T14:42:52.001Z</time></trkpt><trkpt lat="43.376103297983484" lon="-0.5745997071792857"><ele>117.0</ele><time>2026-04-22T14:42:54.001Z</time></trkpt><trkpt lat="43.37618380294801" lon="-0.5747205818932132"><ele>117.0</ele><time>2026-04-22T14:42:56.001Z</time></trkpt><trkpt lat="43.376260658926114" lon="-0.5748494159534389"><ele>117.0</ele><time>2026-04-22T14:42:58.001Z</time></trkpt><trkpt lat="43.37633551240047" lon="-0.5749671369000107"><ele>117.0</ele><time>2026-04-22T14:43:00.001Z</time></trkpt><trkpt lat="43.37641263506479" lon="-0.5750843409126255"><ele>117.0</ele><time>2026-04-22T14:43:02.001Z</time></trkpt><trkpt lat="43.37648704128331" lon="-0.575196182141736"><ele>117.0</ele><time>2026-04-22T14:43:04.001Z</time></trkpt><trkpt lat="43.37655474447282" lon="-0.575321206486013"><ele>116.99999999999999</ele><time>2026-04-22T14:43:06.001Z</time></trkpt><trkpt lat="43.37663026846376" lon="-0.5754440107645967"><ele>116.99999999999999</ele><time>2026-04-22T14:43:08.001Z</time></trkpt><trkpt lat="43.376700501289505" lon="-0.5755570605987539"><ele>117.0</ele><time>2026-04-22T14:43:10.001Z</time></trkpt><trkpt lat="43.37677086392399" lon="-0.5756686455443665"><ele>117.0</ele><time>2026-04-22T14:43:12.001Z</time></trkpt><trkpt lat="43.376871220850354" lon="-0.575839623709813"><ele>116.75</ele><time>2026-04-22T14:43:15.001Z</time></trkpt><trkpt lat="43.37695002990445" lon="-0.5759491209272186"><ele>116.5</ele><time>2026-04-22T14:43:17.001Z</time></trkpt><trkpt lat="43.37701921347168" lon="-0.5760714365357105"><ele>116.25</ele><time>2026-04-22T14:43:19.001Z</time></trkpt><trkpt lat="43.377090367469634" lon="-0.576191427136737"><ele>116.0</ele><time>2026-04-22T14:43:21.001Z</time></trkpt><trkpt lat="43.37716070793003" lon="-0.576316797078561"><ele>115.75</ele><time>2026-04-22T14:43:23.001Z</time></trkpt><trkpt lat="43.37722659864064" lon="-0.576453624213272"><ele>115.5</ele><time>2026-04-22T14:43:25.001Z</time></trkpt><trkpt lat="43.37733747821365" lon="-0.5766221660017046"><ele>115.25</ele><time>2026-04-22T14:43:28Z</time></trkpt><trkpt lat="43.377396957262114" lon="-0.5767591218967573"><ele>115.0</ele><time>2026-04-22T14:43:30Z</time></trkpt><trkpt lat="43.37746230764963" lon="-0.5768863541913926"><ele>115.0</ele><time>2026-04-22T14:43:32Z</time></trkpt><trkpt lat="43.37751863460411" lon="-0.5769937454698311"><ele>115.0</ele><time>2026-04-22T14:43:34Z</time></trkpt><trkpt lat="43.37757680648923" lon="-0.5771137687725716"><ele>115.0</ele><time>2026-04-22T14:43:37Z</time></trkpt><trkpt lat="43.377636692810796" lon="-0.5772457561574059"><ele>115.0</ele><time>2026-04-22T14:43:38Z</time></trkpt><trkpt lat="43.377682568760655" lon="-0.577392446362116"><ele>115.0</ele><time>2026-04-22T14:43:40Z</time></trkpt><trkpt lat="43.3777304999648" lon="-0.5775646171541239"><ele>115.2</ele><time>2026-04-22T14:43:42Z</time></trkpt><trkpt lat="43.37778210319855" lon="-0.5777032572366156"><ele>115.4</ele><time>2026-04-22T14:43:44Z</time></trkpt><trkpt lat="43.37780637455235" lon="-0.5777837119165491"><ele>115.6</ele><time>2026-04-22T14:43:45Z</time></trkpt><trkpt lat="43.37784588408866" lon="-0.5779543732026166"><ele>115.8</ele><time>2026-04-22T14:43:47Z</time></trkpt><trkpt lat="43.37788502955282" lon="-0.5780313703413044"><ele>116.0</ele><time>2026-04-22T14:43:48Z</time></trkpt><trkpt lat="43.37792651940201" lon="-0.5781628398114274"><ele>116.0</ele><time>2026-04-22T14:43:50Z</time></trkpt><trkpt lat="43.37797636812387" lon="-0.5783167696586341"><ele>116.0</ele><time>2026-04-22T14:43:52Z</time></trkpt><trkpt lat="43.37802946587915" lon="-0.5784655337973648"><ele>116.0</ele><time>2026-04-22T14:43:54Z</time></trkpt><trkpt lat="43.378082310295014" lon="-0.5786201764171698"><ele>116.0</ele><time>2026-04-22T14:43:56Z</time></trkpt><trkpt lat="43.37812639417415" lon="-0.578776719963133"><ele>116.0</ele><time>2026-04-22T14:43:58Z</time></trkpt><trkpt lat="43.378176623905816" lon="-0.5789317245293534"><ele>116.0</ele><time>2026-04-22T14:44:00Z</time></trkpt><trkpt lat="43.37822945831476" lon="-0.5790861736144651"><ele>116.0</ele><time>2026-04-22T14:44:02Z</time></trkpt><trkpt lat="43.37827932423398" lon="-0.579234565633996"><ele>116.0</ele><time>2026-04-22T14:44:04Z</time></trkpt><trkpt lat="43.378330918941764" lon="-0.5793860960946243"><ele>115.75</ele><time>2026-04-22T14:44:06Z</time></trkpt><trkpt lat="43.378382112077865" lon="-0.5795398719937551"><ele>115.5</ele><time>2026-04-22T14:44:08Z</time></trkpt><trkpt lat="43.37843722863264" lon="-0.5796871614694193"><ele>115.25</ele><time>2026-04-22T14:44:10Z</time></trkpt><trkpt lat="43.378488366654864" lon="-0.5798373160653787"><ele>115.0</ele><time>2026-04-22T14:44:12Z</time></trkpt><trkpt lat="43.3785381499539" lon="-0.5799792904653917"><ele>115.0</ele><time>2026-04-22T14:44:14Z</time></trkpt><trkpt lat="43.378588535911724" lon="-0.58013219035366"><ele>115.0</ele><time>2026-04-22T14:44:16Z</time></trkpt><trkpt lat="43.37863231166139" lon="-0.5802839749497479"><ele>115.0</ele><time>2026-04-22T14:44:18Z</time></trkpt><trkpt lat="43.37868744851569" lon="-0.5804283474819434"><ele>115.0</ele><time>2026-04-22T14:44:20Z</time></trkpt><trkpt lat="43.37873545436849" lon="-0.5805840738555705"><ele>115.0</ele><time>2026-04-22T14:44:22Z</time></trkpt><trkpt lat="43.378787809888735" lon="-0.5807334605664761"><ele>115.0</ele><time>2026-04-22T14:44:24Z</time></trkpt><trkpt lat="43.37883589692126" lon="-0.5808842803547704"><ele>115.0</ele><time>2026-04-22T14:44:26Z</time></trkpt><trkpt lat="43.37888849258654" lon="-0.5810402145868919"><ele>115.0</ele><time>2026-04-22T14:44:28Z</time></trkpt><trkpt lat="43.3789427099422" lon="-0.5811916731979212"><ele>115.0</ele><time>2026-04-22T14:44:30.001Z</time></trkpt><trkpt lat="43.378996890538055" lon="-0.5813491075307466"><ele>115.0</ele><time>2026-04-22T14:44:32.001Z</time></trkpt><trkpt lat="43.37904768504347" lon="-0.5814988678365539"><ele>115.0</ele><time>2026-04-22T14:44:34.001Z</time></trkpt><trkpt lat="43.37910152715635" lon="-0.5816489759923542"><ele>115.0</ele><time>2026-04-22T14:44:36.001Z</time></trkpt><trkpt lat="43.37915244814133" lon="-0.5818014067912988"><ele>115.0</ele><time>2026-04-22T14:44:38.001Z</time></trkpt><trkpt lat="43.379199865724935" lon="-0.5819441345795717"><ele>115.0</ele><time>2026-04-22T14:44:40.001Z</time></trkpt><trkpt lat="43.37925294268237" lon="-0.5820802625332626"><ele>115.0</ele><time>2026-04-22T14:44:42.001Z</time></trkpt><trkpt lat="43.37929869361672" lon="-0.5822217981478259"><ele>115.0</ele><time>2026-04-22T14:44:44.001Z</time></trkpt><trkpt lat="43.37933950233723" lon="-0.5823657128112236"><ele>114.75</ele><time>2026-04-22T14:44:46.001Z</time></trkpt><trkpt lat="43.37939113391234" lon="-0.5825096668848548"><ele>114.5</ele><time>2026-04-22T14:44:48.001Z</time></trkpt><trkpt lat="43.379444887147" lon="-0.5826555971266147"><ele>114.25</ele><time>2026-04-22T14:44:50.001Z</time></trkpt><trkpt lat="43.37949921672629" lon="-0.5828029079441612"><ele>114.0</ele><time>2026-04-22T14:44:52.001Z</time></trkpt><trkpt lat="43.37956470977872" lon="-0.5829460680725835"><ele>113.5</ele><time>2026-04-22T14:44:54.001Z</time></trkpt><trkpt lat="43.37964520409964" lon="-0.583074839702529"><ele>113.0</ele><time>2026-04-22T14:44:56.001Z</time></trkpt><trkpt lat="43.37973489152548" lon="-0.5831831887900338"><ele>112.5</ele><time>2026-04-22T14:44:58.001Z</time></trkpt><trkpt lat="43.379835673620164" lon="-0.5832648801991976"><ele>112.0</ele><time>2026-04-22T14:45:00.001Z</time></trkpt><trkpt lat="43.379936101503326" lon="-0.583338810988111"><ele>112.0</ele><time>2026-04-22T14:45:02.001Z</time></trkpt><trkpt lat="43.3800518056088" lon="-0.5833701678445786"><ele>112.0</ele><time>2026-04-22T14:45:04.001Z</time></trkpt><trkpt lat="43.3801681687106" lon="-0.5834047543408053"><ele>112.0</ele><time>2026-04-22T14:45:06.001Z</time></trkpt><trkpt lat="43.38028318594659" lon="-0.5834415484236904"><ele>112.0</ele><time>2026-04-22T14:45:08.001Z</time></trkpt><trkpt lat="43.380401787453074" lon="-0.5834751019187561"><ele>112.0</ele><time>2026-04-22T14:45:10.001Z</time></trkpt><trkpt lat="43.380512850423976" lon="-0.5835271650920126"><ele>112.0</ele><time>2026-04-22T14:45:12.001Z</time></trkpt><trkpt lat="43.38062162896149" lon="-0.5835940621103897"><ele>112.0</ele><time>2026-04-22T14:45:14.001Z</time></trkpt><trkpt lat="43.38072219251056" lon="-0.5836764782040776"><ele>112.0</ele><time>2026-04-22T14:45:16.001Z</time></trkpt><trkpt lat="43.380814899659356" lon="-0.5837737570863692"><ele>112.0</ele><time>2026-04-22T14:45:18.001Z</time></trkpt><trkpt lat="43.38090216342419" lon="-0.5838724866167705"><ele>112.0</ele><time>2026-04-22T14:45:20.001Z</time></trkpt><trkpt lat="43.380989800137264" lon="-0.5839749251095085"><ele>112.0</ele><time>2026-04-22T14:45:22.001Z</time></trkpt><trkpt lat="43.38107606276186" lon="-0.5840669142986263"><ele>112.0</ele><time>2026-04-22T14:45:24.001Z</time></trkpt><trkpt lat="43.38116378877224" lon="-0.5841757014042591"><ele>112.0</ele><time>2026-04-22T14:45:26.001Z</time></trkpt><trkpt lat="43.38125393987035" lon="-0.5842799249110008"><ele>111.99999999999999</ele><time>2026-04-22T14:45:28.001Z</time></trkpt><trkpt lat="43.38134359757186" lon="-0.584394418974219"><ele>111.99999999999999</ele><time>2026-04-22T14:45:30.001Z</time></trkpt><trkpt lat="43.381438767351" lon="-0.5845084574111127"><ele>112.0</ele><time>2026-04-22T14:45:32.001Z</time></trkpt><trkpt lat="43.381486697077825" lon="-0.5845649366994777"><ele>112.0</ele><time>2026-04-22T14:45:33Z</time></trkpt><trkpt lat="43.38153481822664" lon="-0.5846229316247818"><ele>112.16666666666667</ele><time>2026-04-22T14:45:34Z</time></trkpt><trkpt lat="43.3815826171221" lon="-0.584690658678997"><ele>112.33333333333334</ele><time>2026-04-22T14:45:35Z</time></trkpt><trkpt lat="43.3816301613255" lon="-0.5847623058057434"><ele>112.5</ele><time>2026-04-22T14:45:36Z</time></trkpt><trkpt lat="43.3817346344774" lon="-0.5848523601705669"><ele>112.66666666666666</ele><time>2026-04-22T14:45:38Z</time></trkpt><trkpt lat="43.38178073374832" lon="-0.5849185581262641"><ele>112.83333333333333</ele><time>2026-04-22T14:45:39Z</time></trkpt><trkpt lat="43.38182883883782" lon="-0.5849851493913799"><ele>113.0</ele><time>2026-04-22T14:45:40Z</time></trkpt><trkpt lat="43.381924220776874" lon="-0.5851065565580842"><ele>113.0</ele><time>2026-04-22T14:45:42Z</time></trkpt><trkpt lat="43.38202400626473" lon="-0.5852142275638125"><ele>113.0</ele><time>2026-04-22T14:45:44Z</time></trkpt><trkpt lat="43.38211656768378" lon="-0.5853307745142122"><ele>113.0</ele><time>2026-04-22T14:45:46Z</time></trkpt><trkpt lat="43.38221265079231" lon="-0.5854414021170606"><ele>113.0</ele><time>2026-04-22T14:45:48Z</time></trkpt><trkpt lat="43.38231008627431" lon="-0.5855551957100514"><ele>113.0</ele><time>2026-04-22T14:45:50Z</time></trkpt><trkpt lat="43.38239946475098" lon="-0.5856696225505691"><ele>113.00000000000001</ele><time>2026-04-22T14:45:52Z</time></trkpt><trkpt lat="43.38244410368053" lon="-0.5857309865758968"><ele>113.00000000000001</ele><time>2026-04-22T14:45:53Z</time></trkpt><trkpt lat="43.382532983940834" lon="-0.585852534920245"><ele>113.0</ele><time>2026-04-22T14:45:55Z</time></trkpt><trkpt lat="43.382618918041736" lon="-0.5859710302360182"><ele>113.0</ele><time>2026-04-22T14:45:57Z</time></trkpt><trkpt lat="43.382664263335386" lon="-0.586037528783822"><ele>113.0</ele><time>2026-04-22T14:45:58Z</time></trkpt><trkpt lat="43.38270740638821" lon="-0.5861018301582196"><ele>113.0</ele><time>2026-04-22T14:45:59Z</time></trkpt><trkpt lat="43.382750966466425" lon="-0.5861678666149478"><ele>113.0</ele><time>2026-04-22T14:46:00Z</time></trkpt><trkpt lat="43.38279719314681" lon="-0.5862339820550238"><ele>113.0</ele><time>2026-04-22T14:46:01Z</time></trkpt><trkpt lat="43.38284138265253" lon="-0.586300581207014"><ele>113.0</ele><time>2026-04-22T14:46:02Z</time></trkpt><trkpt lat="43.38288720927494" lon="-0.5863668335062868"><ele>113.0</ele><time>2026-04-22T14:46:03Z</time></trkpt><trkpt lat="43.38292868002332" lon="-0.5864351464899759"><ele>113.0</ele><time>2026-04-22T14:46:04Z</time></trkpt><trkpt lat="43.38297261023776" lon="-0.5865022991012595"><ele>113.25</ele><time>2026-04-22T14:46:05Z</time></trkpt><trkpt lat="43.3830556470133" lon="-0.5866292842380845"><ele>113.5</ele><time>2026-04-22T14:46:07Z</time></trkpt><trkpt lat="43.38314270544512" lon="-0.586754691268725"><ele>113.75</ele><time>2026-04-22T14:46:09Z</time></trkpt><trkpt lat="43.383234384067876" lon="-0.5868746814589125"><ele>114.0</ele><time>2026-04-22T14:46:11Z</time></trkpt><trkpt lat="43.38330831335128" lon="-0.5870129631057915"><ele>114.16666666666667</ele><time>2026-04-22T14:46:13Z</time></trkpt><trkpt lat="43.383366631314644" lon="-0.5871485610340509"><ele>114.33333333333334</ele><time>2026-04-22T14:46:15Z</time></trkpt><trkpt lat="43.38342057816098" lon="-0.5872033003548519"><ele>114.5</ele><time>2026-04-22T14:46:16Z</time></trkpt><trkpt lat="43.38350287557941" lon="-0.5873318562032442"><ele>114.66666666666667</ele><time>2026-04-22T14:46:18Z</time></trkpt><trkpt lat="43.38354913316732" lon="-0.5873928931367062"><ele>114.83333333333334</ele><time>2026-04-22T14:46:19Z</time></trkpt><trkpt lat="43.38359775645179" lon="-0.5874561882618559"><ele>115.0</ele><time>2026-04-22T14:46:20Z</time></trkpt><trkpt lat="43.38369466250674" lon="-0.5875456580898185"><ele>115.0</ele><time>2026-04-22T14:46:22Z</time></trkpt><trkpt lat="43.38378666427574" lon="-0.5876490696560194"><ele>115.0</ele><time>2026-04-22T14:46:24Z</time></trkpt><trkpt lat="43.38389836186442" lon="-0.5877313476965087"><ele>115.0</ele><time>2026-04-22T14:46:26Z</time></trkpt><trkpt lat="43.383993920538586" lon="-0.5878110250276899"><ele>115.0</ele><time>2026-04-22T14:46:28Z</time></trkpt><trkpt lat="43.38406253110803" lon="-0.5878231852531096"><ele>115.0</ele><time>2026-04-22T14:46:29Z</time></trkpt><trkpt lat="43.38412657691336" lon="-0.5878273255944549"><ele>114.33333333333334</ele><time>2026-04-22T14:46:30Z</time></trkpt><trkpt lat="43.38418959679819" lon="-0.5878278842705492"><ele>113.66666666666667</ele><time>2026-04-22T14:46:31Z</time></trkpt><trkpt lat="43.38425688079831" lon="-0.5878235564745127"><ele>113.0</ele><time>2026-04-22T14:46:32Z</time></trkpt><trkpt lat="43.38437195329372" lon="-0.5878108835864039"><ele>112.33333333333334</ele><time>2026-04-22T14:46:34Z</time></trkpt><trkpt lat="43.38443352606802" lon="-0.5877841364770474"><ele>111.66666666666667</ele><time>2026-04-22T14:46:35Z</time></trkpt><trkpt lat="43.3844906271133" lon="-0.5877454107238417"><ele>111.0</ele><time>2026-04-22T14:46:36Z</time></trkpt><trkpt lat="43.384591332542506" lon="-0.5876491575931133"><ele>111.0</ele><time>2026-04-22T14:46:38Z</time></trkpt><trkpt lat="43.38468812496407" lon="-0.5875592279167839"><ele>111.0</ele><time>2026-04-22T14:46:40.001Z</time></trkpt><trkpt lat="43.38476829763308" lon="-0.5874549356908942"><ele>111.0</ele><time>2026-04-22T14:46:42.001Z</time></trkpt><trkpt lat="43.38484271366957" lon="-0.587334287655291"><ele>111.0</ele><time>2026-04-22T14:46:44.001Z</time></trkpt><trkpt lat="43.384914497020915" lon="-0.5872195571683408"><ele>111.0</ele><time>2026-04-22T14:46:46.001Z</time></trkpt><trkpt lat="43.38497178248778" lon="-0.5871574816202034"><ele>111.0</ele><time>2026-04-22T14:46:48.001Z</time></trkpt><trkpt lat="43.38504497064471" lon="-0.5872318753942198"><ele>111.0</ele><time>2026-04-22T14:46:51.001Z</time></trkpt><trkpt lat="43.38508807396106" lon="-0.5873368294602633"><ele>111.0</ele><time>2026-04-22T14:46:53.001Z</time></trkpt><trkpt lat="43.38506265151309" lon="-0.5874434902872115"><ele>111.0</ele><time>2026-04-22T14:46:55.001Z</time></trkpt><trkpt lat="43.38500677485464" lon="-0.5875406338449698"><ele>111.0</ele><time>2026-04-22T14:46:57.001Z</time></trkpt><trkpt lat="43.38491904393712" lon="-0.5876459232134263"><ele>111.0</ele><time>2026-04-22T14:46:59.001Z</time></trkpt><trkpt lat="43.384860812513864" lon="-0.5876953537449346"><ele>111.0</ele><time>2026-04-22T14:47:00.001Z</time></trkpt><trkpt lat="43.38480716963085" lon="-0.5877464276573218"><ele>111.0</ele><time>2026-04-22T14:47:01.001Z</time></trkpt><trkpt lat="43.38471259852774" lon="-0.587859760208199"><ele>111.0</ele><time>2026-04-22T14:47:03.001Z</time></trkpt><trkpt lat="43.38466516055241" lon="-0.5879170083482164"><ele>111.0</ele><time>2026-04-22T14:47:04.001Z</time></trkpt><trkpt lat="43.38462050655939" lon="-0.5879794013822104"><ele>111.0</ele><time>2026-04-22T14:47:05.001Z</time></trkpt><trkpt lat="43.38451710241736" lon="-0.5880865296971447"><ele>110.4</ele><time>2026-04-22T14:47:07.001Z</time></trkpt><trkpt lat="43.384471821338664" lon="-0.5881470110018381"><ele>109.8</ele><time>2026-04-22T14:47:08.001Z</time></trkpt><trkpt lat="43.384426577786144" lon="-0.5882087657769385"><ele>109.20000000000002</ele><time>2026-04-22T14:47:09.001Z</time></trkpt><trkpt lat="43.384346920759874" lon="-0.5883411721914901"><ele>108.60000000000001</ele><time>2026-04-22T14:47:11.001Z</time></trkpt><trkpt lat="43.384270794738974" lon="-0.5884742831331843"><ele>108.0</ele><time>2026-04-22T14:47:13.001Z</time></trkpt><trkpt lat="43.38420006580049" lon="-0.5885999629567569"><ele>108.60000000000001</ele><time>2026-04-22T14:47:15.001Z</time></trkpt><trkpt lat="43.38418132947249" lon="-0.5887289304182672"><ele>109.20000000000002</ele><time>2026-04-22T14:47:17.001Z</time></trkpt><trkpt lat="43.38426407824335" lon="-0.5888167521666383"><ele>109.8</ele><time>2026-04-22T14:47:19.001Z</time></trkpt><trkpt lat="43.38434649746338" lon="-0.588881308174868"><ele>110.4</ele><time>2026-04-22T14:47:21.001Z</time></trkpt><trkpt lat="43.384422015271014" lon="-0.5889546003968964"><ele>111.0</ele><time>2026-04-22T14:47:23.001Z</time></trkpt><trkpt lat="43.38450529645386" lon="-0.5890262649335575"><ele>111.0</ele><time>2026-04-22T14:47:25.001Z</time></trkpt><trkpt lat="43.384593372362865" lon="-0.5891044620685271"><ele>111.0</ele><time>2026-04-22T14:47:27.001Z</time></trkpt><trkpt lat="43.3846830637387" lon="-0.5891835419592494"><ele>111.0</ele><time>2026-04-22T14:47:29.001Z</time></trkpt><trkpt lat="43.38478050036565" lon="-0.5892835201812534"><ele>111.0</ele><time>2026-04-22T14:47:31.001Z</time></trkpt><trkpt lat="43.38489333152702" lon="-0.5893617533996177"><ele>110.5</ele><time>2026-04-22T14:47:33.001Z</time></trkpt><trkpt lat="43.38495190739657" lon="-0.5893995440260801"><ele>110.0</ele><time>2026-04-22T14:47:34.001Z</time></trkpt><trkpt lat="43.38500829478167" lon="-0.5894468340922476"><ele>109.5</ele><time>2026-04-22T14:47:35.001Z</time></trkpt><trkpt lat="43.38511444887955" lon="-0.5895154993552038"><ele>109.0</ele><time>2026-04-22T14:47:37.001Z</time></trkpt><trkpt lat="43.385184668488684" lon="-0.5895840558260393"><ele>108.5</ele><time>2026-04-22T14:47:39Z</time></trkpt><trkpt lat="43.38517104603738" lon="-0.5896951748999368"><ele>108.0</ele><time>2026-04-22T14:47:41Z</time></trkpt><trkpt lat="43.38522222473335" lon="-0.5897607161665775"><ele>108.0</ele><time>2026-04-22T14:47:48Z</time></trkpt><trkpt lat="43.385256520265735" lon="-0.5896760059372458"><ele>108.0</ele><time>2026-04-22T14:47:52Z</time></trkpt><trkpt lat="43.38531939329885" lon="-0.5896216140420023"><ele>108.0</ele><time>2026-04-22T14:48:02Z</time></trkpt><trkpt lat="43.385339779972554" lon="-0.5897374017134479"><ele>108.0</ele><time>2026-04-22T14:48:04Z</time></trkpt><trkpt lat="43.38534332667998" lon="-0.5898589564111096"><ele>108.0</ele><time>2026-04-22T14:48:06Z</time></trkpt><trkpt lat="43.38535626339003" lon="-0.5899941877105181"><ele>108.0</ele><time>2026-04-22T14:48:08Z</time></trkpt><trkpt lat="43.385375205513895" lon="-0.5901476212533809"><ele>108.0</ele><time>2026-04-22T14:48:10Z</time></trkpt><trkpt lat="43.38538541665894" lon="-0.5903218781715038"><ele>108.0</ele><time>2026-04-22T14:48:12Z</time></trkpt><trkpt lat="43.38539565342682" lon="-0.5904160224636393"><ele>108.0</ele><time>2026-04-22T14:48:13Z</time></trkpt><trkpt lat="43.38540731557585" lon="-0.5905059486954833"><ele>108.0</ele><time>2026-04-22T14:48:14Z</time></trkpt><trkpt lat="43.385413912258805" lon="-0.590597769437245"><ele>108.0</ele><time>2026-04-22T14:48:15Z</time></trkpt><trkpt lat="43.38542155679508" lon="-0.5906914275679899"><ele>108.0</ele><time>2026-04-22T14:48:16Z</time></trkpt><trkpt lat="43.385433303021436" lon="-0.5907810942068467"><ele>108.28571428571428</ele><time>2026-04-22T14:48:17Z</time></trkpt><trkpt lat="43.38544153909062" lon="-0.5908711800846393"><ele>108.57142857142857</ele><time>2026-04-22T14:48:18Z</time></trkpt><trkpt lat="43.38544635094251" lon="-0.5909604448872048"><ele>108.85714285714286</ele><time>2026-04-22T14:48:19Z</time></trkpt><trkpt lat="43.3854486283786" lon="-0.5910525828563417"><ele>109.14285714285714</ele><time>2026-04-22T14:48:20Z</time></trkpt><trkpt lat="43.385444224310596" lon="-0.5911442054338315"><ele>109.42857142857143</ele><time>2026-04-22T14:48:21Z</time></trkpt><trkpt lat="43.3854381677904" lon="-0.5912350360627199"><ele>109.71428571428571</ele><time>2026-04-22T14:48:22Z</time></trkpt><trkpt lat="43.38542989677537" lon="-0.5913260847520946"><ele>110.0</ele><time>2026-04-22T14:48:23Z</time></trkpt><trkpt lat="43.385416102109616" lon="-0.5914169434963528"><ele>110.0</ele><time>2026-04-22T14:48:24Z</time></trkpt><trkpt lat="43.38540088472181" lon="-0.591504242670007"><ele>110.0</ele><time>2026-04-22T14:48:25Z</time></trkpt><trkpt lat="43.38538121794529" lon="-0.591591648329975"><ele>110.0</ele><time>2026-04-22T14:48:26Z</time></trkpt><trkpt lat="43.385381547218316" lon="-0.5917532319602309"><ele>110.0</ele><time>2026-04-22T14:48:28Z</time></trkpt><trkpt lat="43.38544572948759" lon="-0.5918928911682698"><ele>110.0</ele><time>2026-04-22T14:48:30Z</time></trkpt><trkpt lat="43.38551615888941" lon="-0.5920142541991695"><ele>110.16666666666666</ele><time>2026-04-22T14:48:32Z</time></trkpt><trkpt lat="43.38557088268751" lon="-0.5920611358820277"><ele>110.33333333333333</ele><time>2026-04-22T14:48:33Z</time></trkpt><trkpt lat="43.38567805122948" lon="-0.5921545189229398"><ele>110.5</ele><time>2026-04-22T14:48:35Z</time></trkpt><trkpt lat="43.38573144777888" lon="-0.5922033579499947"><ele>110.66666666666666</ele><time>2026-04-22T14:48:36Z</time></trkpt><trkpt lat="43.385786657607326" lon="-0.5922577264482911"><ele>110.83333333333333</ele><time>2026-04-22T14:48:37Z</time></trkpt><trkpt lat="43.38587998742966" lon="-0.5923556409705065"><ele>111.0</ele><time>2026-04-22T14:48:39Z</time></trkpt><trkpt lat="43.385970722238355" lon="-0.592471901619407"><ele>111.0</ele><time>2026-04-22T14:48:41Z</time></trkpt><trkpt lat="43.386056989039744" lon="-0.5925887936348987"><ele>111.0</ele><time>2026-04-22T14:48:43Z</time></trkpt><trkpt lat="43.38609969611423" lon="-0.592657500149926"><ele>111.0</ele><time>2026-04-22T14:48:44Z</time></trkpt><trkpt lat="43.38614024112387" lon="-0.5927256661470583"><ele>111.0</ele><time>2026-04-22T14:48:45Z</time></trkpt><trkpt lat="43.38618088567759" lon="-0.5927982956516041"><ele>111.0</ele><time>2026-04-22T14:48:46Z</time></trkpt><trkpt lat="43.38622052046304" lon="-0.59286848865958"><ele>111.0</ele><time>2026-04-22T14:48:47Z</time></trkpt><trkpt lat="43.38626045012605" lon="-0.5929408013893986"><ele>111.0</ele><time>2026-04-22T14:48:48Z</time></trkpt><trkpt lat="43.38629512105199" lon="-0.5930145210605535"><ele>110.85714285714285</ele><time>2026-04-22T14:48:49.001Z</time></trkpt><trkpt lat="43.38633482716883" lon="-0.5930925889030216"><ele>110.71428571428572</ele><time>2026-04-22T14:48:50.001Z</time></trkpt><trkpt lat="43.386370609591694" lon="-0.5931653025656285"><ele>110.57142857142857</ele><time>2026-04-22T14:48:51.001Z</time></trkpt><trkpt lat="43.38640833405014" lon="-0.5932533894215968"><ele>110.42857142857142</ele><time>2026-04-22T14:48:52.001Z</time></trkpt><trkpt lat="43.38644376823685" lon="-0.593333325041881"><ele>110.28571428571428</ele><time>2026-04-22T14:48:53.001Z</time></trkpt><trkpt lat="43.3864819132122" lon="-0.593411521592716"><ele>110.14285714285714</ele><time>2026-04-22T14:48:54.001Z</time></trkpt><trkpt lat="43.38652160449712" lon="-0.5934894772180829"><ele>110.0</ele><time>2026-04-22T14:48:55.001Z</time></trkpt><trkpt lat="43.386562536756315" lon="-0.5935661469425878"><ele>109.99999999999999</ele><time>2026-04-22T14:48:56.001Z</time></trkpt><trkpt lat="43.38660048176274" lon="-0.5936394831065245"><ele>110.0</ele><time>2026-04-22T14:48:57.001Z</time></trkpt><trkpt lat="43.38664075640537" lon="-0.5937091094224456"><ele>110.0</ele><time>2026-04-22T14:48:58.001Z</time></trkpt><trkpt lat="43.38668102141897" lon="-0.5937827672170405"><ele>110.0</ele><time>2026-04-22T14:48:59.001Z</time></trkpt><trkpt lat="43.386771857747505" lon="-0.5939050593993338"><ele>109.99999999999999</ele><time>2026-04-22T14:49:01.001Z</time></trkpt><trkpt lat="43.3868223477065" lon="-0.593964346337817"><ele>110.0</ele><time>2026-04-22T14:49:02.001Z</time></trkpt><trkpt lat="43.386878427344776" lon="-0.594018001197023"><ele>109.8</ele><time>2026-04-22T14:49:03.001Z</time></trkpt><trkpt lat="43.38698891333335" lon="-0.594093790780818"><ele>109.6</ele><time>2026-04-22T14:49:05.001Z</time></trkpt><trkpt lat="43.38704934687724" lon="-0.5941332737026653"><ele>109.4</ele><time>2026-04-22T14:49:06.001Z</time></trkpt><trkpt lat="43.3871688049284" lon="-0.5941836795462745"><ele>109.2</ele><time>2026-04-22T14:49:08.001Z</time></trkpt><trkpt lat="43.387288662968686" lon="-0.5942307485794511"><ele>109.0</ele><time>2026-04-22T14:49:10.001Z</time></trkpt><trkpt lat="43.38734891040146" lon="-0.5942600772300086"><ele>108.83333333333334</ele><time>2026-04-22T14:49:11.001Z</time></trkpt><trkpt lat="43.38746908867676" lon="-0.594314315097822"><ele>108.66666666666667</ele><time>2026-04-22T14:49:13.001Z</time></trkpt><trkpt lat="43.38753133987332" lon="-0.5943515290343807"><ele>108.5</ele><time>2026-04-22T14:49:14.001Z</time></trkpt><trkpt lat="43.38759433352395" lon="-0.5943806738459122"><ele>108.33333333333334</ele><time>2026-04-22T14:49:15.001Z</time></trkpt><trkpt lat="43.387654511822696" lon="-0.594416784887379"><ele>108.16666666666667</ele><time>2026-04-22T14:49:16.001Z</time></trkpt><trkpt lat="43.3877211812105" lon="-0.5944565673320414"><ele>108.0</ele><time>2026-04-22T14:49:17.001Z</time></trkpt><trkpt lat="43.387783162407906" lon="-0.5945005009833423"><ele>108.14285714285714</ele><time>2026-04-22T14:49:18.001Z</time></trkpt><trkpt lat="43.38784252243447" lon="-0.5945491527244975"><ele>108.28571428571428</ele><time>2026-04-22T14:49:19.001Z</time></trkpt><trkpt lat="43.38790144437908" lon="-0.5946084243280436"><ele>108.42857142857143</ele><time>2026-04-22T14:49:20.001Z</time></trkpt><trkpt lat="43.387959599761615" lon="-0.5946481134316123"><ele>108.57142857142857</ele><time>2026-04-22T14:49:21.001Z</time></trkpt><trkpt lat="43.38801809837258" lon="-0.5947008647945464"><ele>108.71428571428572</ele><time>2026-04-22T14:49:22.001Z</time></trkpt><trkpt lat="43.388075820067705" lon="-0.5947479779924542"><ele>108.85714285714286</ele><time>2026-04-22T14:49:23.001Z</time></trkpt><trkpt lat="43.38813264639306" lon="-0.5947920093963793"><ele>109.0</ele><time>2026-04-22T14:49:24.001Z</time></trkpt><trkpt lat="43.38819442577184" lon="-0.59483012342759"><ele>109.33333333333334</ele><time>2026-04-22T14:49:25.001Z</time></trkpt><trkpt lat="43.388253093030244" lon="-0.5948691575548187"><ele>109.66666666666667</ele><time>2026-04-22T14:49:26.001Z</time></trkpt><trkpt lat="43.38836401008859" lon="-0.5949525977196595"><ele>110.0</ele><time>2026-04-22T14:49:28.001Z</time></trkpt><trkpt lat="43.38846693658659" lon="-0.5950469120691703"><ele>110.33333333333334</ele><time>2026-04-22T14:49:30.001Z</time></trkpt><trkpt lat="43.38852116569032" lon="-0.5951001794576918"><ele>110.66666666666667</ele><time>2026-04-22T14:49:31.001Z</time></trkpt><trkpt lat="43.388573753546446" lon="-0.5951505732839699"><ele>111.0</ele><time>2026-04-22T14:49:32.001Z</time></trkpt><trkpt lat="43.3886230693996" lon="-0.5952083455720313"><ele>111.0</ele><time>2026-04-22T14:49:33.001Z</time></trkpt><trkpt lat="43.388714898457465" lon="-0.5953244447506914"><ele>111.0</ele><time>2026-04-22T14:49:35.001Z</time></trkpt><trkpt lat="43.38875252202634" lon="-0.5953989424202923"><ele>111.0</ele><time>2026-04-22T14:49:36.001Z</time></trkpt><trkpt lat="43.38882132301297" lon="-0.5955403821993024"><ele>111.0</ele><time>2026-04-22T14:49:38.001Z</time></trkpt><trkpt lat="43.38885370448284" lon="-0.5956179234056623"><ele>111.0</ele><time>2026-04-22T14:49:39.001Z</time></trkpt><trkpt lat="43.388880591995196" lon="-0.595697323774631"><ele>111.0</ele><time>2026-04-22T14:49:40.001Z</time></trkpt><trkpt lat="43.38892335276102" lon="-0.5958584323218856"><ele>110.66666666666667</ele><time>2026-04-22T14:49:42.001Z</time></trkpt><trkpt lat="43.388945198506484" lon="-0.5959427309983115"><ele>110.33333333333334</ele><time>2026-04-22T14:49:43.001Z</time></trkpt><trkpt lat="43.388984329811514" lon="-0.5961090840432476"><ele>110.0</ele><time>2026-04-22T14:49:45Z</time></trkpt><trkpt lat="43.38900384082549" lon="-0.5961927507758203"><ele>109.66666666666667</ele><time>2026-04-22T14:49:46Z</time></trkpt><trkpt lat="43.3890543880037" lon="-0.5963479465298539"><ele>109.33333333333334</ele><time>2026-04-22T14:49:48Z</time></trkpt><trkpt lat="43.38908397237047" lon="-0.596425635462481"><ele>109.0</ele><time>2026-04-22T14:49:49Z</time></trkpt><trkpt lat="43.389147850703196" lon="-0.5965707111943749"><ele>108.50000000000001</ele><time>2026-04-22T14:49:51Z</time></trkpt><trkpt lat="43.3891865279565" lon="-0.5966463829522982"><ele>108.0</ele><time>2026-04-22T14:49:52Z</time></trkpt><trkpt lat="43.3892754388472" lon="-0.5967618123948523"><ele>107.5</ele><time>2026-04-22T14:49:54Z</time></trkpt><trkpt lat="43.38932849525233" lon="-0.596813555628658"><ele>107.0</ele><time>2026-04-22T14:49:55Z</time></trkpt><trkpt lat="43.38938154605987" lon="-0.5968647607711036"><ele>106.50000000000001</ele><time>2026-04-22T14:49:56Z</time></trkpt><trkpt lat="43.38943394849692" lon="-0.5969210176975568"><ele>106.0</ele><time>2026-04-22T14:49:57Z</time></trkpt><trkpt lat="43.389486207331075" lon="-0.5969780547236522"><ele>106.00000000000001</ele><time>2026-04-22T14:49:58Z</time></trkpt><trkpt lat="43.38953724464994" lon="-0.5970380721295423"><ele>106.0</ele><time>2026-04-22T14:49:59Z</time></trkpt><trkpt lat="43.38958850411375" lon="-0.5970959618173807"><ele>106.0</ele><time>2026-04-22T14:50:00Z</time></trkpt><trkpt lat="43.38967807411476" lon="-0.5972116362749226"><ele>106.0</ele><time>2026-04-22T14:50:02Z</time></trkpt><trkpt lat="43.38973623146442" lon="-0.5972619804845247"><ele>106.00000000000001</ele><time>2026-04-22T14:50:03Z</time></trkpt><trkpt lat="43.38979666433667" lon="-0.5972967862094328"><ele>106.0</ele><time>2026-04-22T14:50:04Z</time></trkpt><trkpt lat="43.38986400683858" lon="-0.5973062621141337"><ele>106.0</ele><time>2026-04-22T14:50:05Z</time></trkpt><trkpt lat="43.38998094608656" lon="-0.5973643226111363"><ele>106.0</ele><time>2026-04-22T14:50:07Z</time></trkpt><trkpt lat="43.3900337319246" lon="-0.5974139738202857"><ele>106.0</ele><time>2026-04-22T14:50:08Z</time></trkpt><trkpt lat="43.39013278176039" lon="-0.597509217143256"><ele>106.0</ele><time>2026-04-22T14:50:10Z</time></trkpt><trkpt lat="43.39022623429791" lon="-0.5976119744634274"><ele>106.0</ele><time>2026-04-22T14:50:12Z</time></trkpt><trkpt lat="43.390313787217195" lon="-0.5977199645264819"><ele>106.25</ele><time>2026-04-22T14:50:14Z</time></trkpt><trkpt lat="43.390377122736254" lon="-0.5978579455522722"><ele>106.5</ele><time>2026-04-22T14:50:16Z</time></trkpt><trkpt lat="43.39040627161589" lon="-0.5980143273022963"><ele>106.75</ele><time>2026-04-22T14:50:18Z</time></trkpt><trkpt lat="43.39042660938464" lon="-0.5981734217364248"><ele>107.0</ele><time>2026-04-22T14:50:20Z</time></trkpt><trkpt lat="43.39044646817528" lon="-0.5983367612199659"><ele>107.0</ele><time>2026-04-22T14:50:22Z</time></trkpt><trkpt lat="43.390477483272925" lon="-0.5984887281588315"><ele>107.0</ele><time>2026-04-22T14:50:24Z</time></trkpt><trkpt lat="43.390491935061725" lon="-0.5986473592727025"><ele>107.0</ele><time>2026-04-22T14:50:26Z</time></trkpt><trkpt lat="43.39052639969359" lon="-0.5987918055713408"><ele>107.0</ele><time>2026-04-22T14:50:28Z</time></trkpt><trkpt lat="43.3905727133072" lon="-0.5989375879015048"><ele>107.0</ele><time>2026-04-22T14:50:30Z</time></trkpt><trkpt lat="43.39061872561247" lon="-0.5990827512487128"><ele>107.0</ele><time>2026-04-22T14:50:32Z</time></trkpt><trkpt lat="43.39066644854827" lon="-0.5992324026115938"><ele>107.0</ele><time>2026-04-22T14:50:34Z</time></trkpt><trkpt lat="43.390707753045916" lon="-0.5993901472488781"><ele>107.0</ele><time>2026-04-22T14:50:36Z</time></trkpt><trkpt lat="43.39075840666978" lon="-0.5995330072937524"><ele>106.75</ele><time>2026-04-22T14:50:38Z</time></trkpt><trkpt lat="43.39081055090438" lon="-0.5996801401239732"><ele>106.5</ele><time>2026-04-22T14:50:40Z</time></trkpt><trkpt lat="43.390863324712036" lon="-0.5998361462334189"><ele>106.25</ele><time>2026-04-22T14:50:42Z</time></trkpt><trkpt lat="43.390919146282855" lon="-0.5999802496877072"><ele>106.0</ele><time>2026-04-22T14:50:44Z</time></trkpt><trkpt lat="43.39098161499873" lon="-0.6001269447925877"><ele>106.0</ele><time>2026-04-22T14:50:46.001Z</time></trkpt><trkpt lat="43.39104466075039" lon="-0.6002564138638716"><ele>106.0</ele><time>2026-04-22T14:50:48.001Z</time></trkpt><trkpt lat="43.39110217259244" lon="-0.6003902436761402"><ele>106.0</ele><time>2026-04-22T14:50:50.001Z</time></trkpt><trkpt lat="43.39115941144219" lon="-0.6005274187527239"><ele>106.0</ele><time>2026-04-22T14:50:52.001Z</time></trkpt><trkpt lat="43.391196485438904" lon="-0.6006717676631854"><ele>106.19999999999999</ele><time>2026-04-22T14:50:54.001Z</time></trkpt><trkpt lat="43.3912248173125" lon="-0.6008155305751502"><ele>106.39999999999999</ele><time>2026-04-22T14:50:56.001Z</time></trkpt><trkpt lat="43.391257049897845" lon="-0.6009511438545695"><ele>106.6</ele><time>2026-04-22T14:50:58.001Z</time></trkpt><trkpt lat="43.39128767982867" lon="-0.6010871742139863"><ele>106.8</ele><time>2026-04-22T14:51:00.001Z</time></trkpt><trkpt lat="43.39130395915329" lon="-0.6012250396243348"><ele>107.0</ele><time>2026-04-22T14:51:02.001Z</time></trkpt><trkpt lat="43.39127782508829" lon="-0.6013624257177498"><ele>107.0</ele><time>2026-04-22T14:51:04.001Z</time></trkpt><trkpt lat="43.39125061463252" lon="-0.6015081091151345"><ele>107.0</ele><time>2026-04-22T14:51:06.001Z</time></trkpt><trkpt lat="43.39121379022468" lon="-0.6016545316078055"><ele>107.0</ele><time>2026-04-22T14:51:08.001Z</time></trkpt><trkpt lat="43.391183907201295" lon="-0.6018057746447353"><ele>107.0</ele><time>2026-04-22T14:51:10.001Z</time></trkpt><trkpt lat="43.39113853336897" lon="-0.6019553980311282"><ele>107.0</ele><time>2026-04-22T14:51:12.001Z</time></trkpt><trkpt lat="43.39109770020381" lon="-0.6021056440615249"><ele>107.0</ele><time>2026-04-22T14:51:14.001Z</time></trkpt><trkpt lat="43.391061989566765" lon="-0.6022580295057497"><ele>107.0</ele><time>2026-04-22T14:51:16.001Z</time></trkpt><trkpt lat="43.39102015366797" lon="-0.6024050319185512"><ele>107.0</ele><time>2026-04-22T14:51:18.001Z</time></trkpt><trkpt lat="43.390987890688145" lon="-0.6025569407455651"><ele>107.0</ele><time>2026-04-22T14:51:20.001Z</time></trkpt><trkpt lat="43.39095015202583" lon="-0.6027165161701377"><ele>107.0</ele><time>2026-04-22T14:51:22.001Z</time></trkpt><trkpt lat="43.390917514886084" lon="-0.6028764091597728"><ele>107.0</ele><time>2026-04-22T14:51:24.001Z</time></trkpt><trkpt lat="43.390881781434096" lon="-0.6030353274307932"><ele>107.0</ele><time>2026-04-22T14:51:26.001Z</time></trkpt><trkpt lat="43.3908470689749" lon="-0.6031885100813891"><ele>106.75</ele><time>2026-04-22T14:51:28.001Z</time></trkpt><trkpt lat="43.390808237200474" lon="-0.6033363884208146"><ele>106.5</ele><time>2026-04-22T14:51:30.001Z</time></trkpt><trkpt lat="43.390767561034096" lon="-0.6034816092682361"><ele>106.25</ele><time>2026-04-22T14:51:32.001Z</time></trkpt><trkpt lat="43.39072422895911" lon="-0.6036231704326419"><ele>106.0</ele><time>2026-04-22T14:51:34.001Z</time></trkpt><trkpt lat="43.390679551656255" lon="-0.6037675431707266"><ele>106.0</ele><time>2026-04-22T14:51:36.001Z</time></trkpt><trkpt lat="43.39063272307166" lon="-0.6039166980293036"><ele>106.0</ele><time>2026-04-22T14:51:38.001Z</time></trkpt></trkseg></trk></gpx>